Wetterdaten: Mittwoch, 30.03.2016
Datum Zeit Temp. A. Feuchte A. Luftdruck Regen Wind Richtung Richtung Sonnenschein ET UV Solar Taupunkt Windchill Windben Empfang
30.03.2016 00:00 8,2 C 84 % 1014,7 hPa 0,0 l/m 12,2 km/h (2 Bft) W-SW 242 0 min 0,000 mm 0,0 UV-I 0 W/m 5,7 C 4,3 C 17,7 km/h (3 Bft) 96,15 %
30.03.2016 00:02 8,2 C 84 % 1014,7 hPa 0,0 l/m 12,4 km/h (3 Bft) W-SW 257 0 min 0,000 mm 0,0 UV-I 0 W/m 5,7 C 4,2 C 16,1 km/h (3 Bft) 97,44 %
30.03.2016 00:03 8,2 C 84 % 1014,7 hPa 0,0 l/m 8,7 km/h (2 Bft) SW 232 0 min 0,000 mm 0,0 UV-I 0 W/m 5,7 C 6,5 C 11,3 km/h (2 Bft) 96,30 %
30.03.2016 00:04 8,2 C 84 % 1014,7 hPa 0,0 l/m 8,1 km/h (2 Bft) W-SW 238 0 min 0,000 mm 0,0 UV-I 0 W/m 5,7 C 6,9 C 11,3 km/h (2 Bft) 100,00 %
30.03.2016 00:05 8,2 C 84 % 1014,7 hPa 0,0 l/m 7,1 km/h (2 Bft) W-SW 242 0 min 0,000 mm 0,0 UV-I 0 W/m 5,7 C 7,7 C 9,7 km/h (2 Bft) 100,00 %
30.03.2016 00:06 8,2 C 84 % 1014,7 hPa 0,0 l/m 8,0 km/h (2 Bft) SW 235 0 min 0,000 mm 0,0 UV-I 0 W/m 5,7 C 7,0 C 11,3 km/h (2 Bft) 96,88 %
30.03.2016 00:07 8,3 C 84 % 1014,7 hPa 0,0 l/m 7,3 km/h (2 Bft) SW 220 0 min 0,000 mm 0,0 UV-I 0 W/m 5,8 C 7,6 C 9,7 km/h (2 Bft) 93,33 %
30.03.2016 00:08 8,2 C 84 % 1014,7 hPa 0,0 l/m 6,6 km/h (2 Bft) S-SW 211 0 min 0,000 mm 0,0 UV-I 0 W/m 5,7 C 8,1 C 9,7 km/h (2 Bft) 100,00 %
30.03.2016 00:09 8,2 C 84 % 1014,7 hPa 0,2 l/m 6,2 km/h (2 Bft) S 178 0 min 0,000 mm 0,0 UV-I 0 W/m 5,7 C 8,2 C 9,7 km/h (2 Bft) 86,67 %
30.03.2016 00:10 8,2 C 84 % 1014,7 hPa 0,0 l/m 7,2 km/h (2 Bft) SW 224 0 min 0,000 mm 0,0 UV-I 0 W/m 5,7 C 7,6 C 12,9 km/h (3 Bft) 94,74 %
30.03.2016 00:11 8,2 C 84 % 1014,7 hPa 0,0 l/m 8,5 km/h (2 Bft) SW 228 0 min 0,000 mm 0,0 UV-I 0 W/m 5,7 C 6,6 C 12,9 km/h (3 Bft) 100,00 %
30.03.2016 00:12 8,2 C 84 % 1014,7 hPa 0,2 l/m 6,0 km/h (2 Bft) W-SW 247 0 min 0,000 mm 0,0 UV-I 0 W/m 5,7 C 8,2 C 12,9 km/h (3 Bft) 100,00 %
30.03.2016 00:13 8,2 C 85 % 1014,6 hPa 0,0 l/m 8,6 km/h (2 Bft) W-SW 239 0 min 0,000 mm 0,0 UV-I 0 W/m 5,8 C 6,5 C 11,3 km/h (2 Bft) 96,15 %
30.03.2016 00:14 8,2 C 85 % 1014,6 hPa 0,0 l/m 9,9 km/h (2 Bft) W-SW 238 0 min 0,000 mm 0,0 UV-I 0 W/m 5,8 C 5,7 C 14,5 km/h (3 Bft) 96,67 %
30.03.2016 00:15 8,2 C 85 % 1014,6 hPa 0,0 l/m 5,6 km/h (1 Bft) W-SW 248 0 min 0,000 mm 0,0 UV-I 0 W/m 5,8 C 8,2 C 8,0 km/h (2 Bft) 100,00 %
30.03.2016 00:16 8,2 C 85 % 1014,6 hPa 0,0 l/m 7,9 km/h (2 Bft) SW 217 0 min 0,000 mm 0,0 UV-I 0 W/m 5,8 C 7,0 C 11,3 km/h (2 Bft) 96,67 %
30.03.2016 00:17 8,1 C 85 % 1014,6 hPa 0,0 l/m 6,3 km/h (2 Bft) SW 225 0 min 0,000 mm 0,0 UV-I 0 W/m 5,7 C 8,1 C 9,7 km/h (2 Bft) 100,00 %
30.03.2016 00:18 8,1 C 85 % 1014,6 hPa 0,0 l/m 5,3 km/h (1 Bft) W-SW 238 0 min 0,000 mm 0,0 UV-I 0 W/m 5,7 C 8,1 C 9,7 km/h (2 Bft) 95,83 %
30.03.2016 00:19 8,1 C 85 % 1014,6 hPa 0,0 l/m 6,3 km/h (2 Bft) W-SW 247 0 min 0,000 mm 0,0 UV-I 0 W/m 5,7 C 8,1 C 9,7 km/h (2 Bft) 97,16 %
30.03.2016 00:20 8,1 C 85 % 1014,6 hPa 0,0 l/m 6,7 km/h (2 Bft) W-SW 244 0 min 0,000 mm 0,0 UV-I 0 W/m 5,7 C 7,9 C 8,0 km/h (2 Bft) 95,12 %
30.03.2016 00:21 8,1 C 85 % 1014,6 hPa 0,0 l/m 8,0 km/h (2 Bft) W-SW 253 0 min 0,000 mm 0,0 UV-I 0 W/m 5,7 C 6,9 C 11,3 km/h (2 Bft) 96,15 %
30.03.2016 00:22 8,1 C 85 % 1014,7 hPa 0,0 l/m 8,3 km/h (2 Bft) W-SW 258 0 min 0,000 mm 0,0 UV-I 0 W/m 5,7 C 6,6 C 11,3 km/h (2 Bft) 100,00 %
30.03.2016 00:23 8,1 C 86 % 1014,8 hPa 0,0 l/m 9,8 km/h (2 Bft) W 264 0 min 0,000 mm 0,0 UV-I 0 W/m 5,9 C 5,6 C 11,3 km/h (2 Bft) 95,65 %
30.03.2016 00:24 8,1 C 86 % 1014,8 hPa 0,0 l/m 10,6 km/h (2 Bft) W 271 0 min 0,000 mm 0,0 UV-I 0 W/m 5,9 C 5,1 C 11,3 km/h (2 Bft) 100,00 %
30.03.2016 00:25 8,1 C 87 % 1014,8 hPa 0,0 l/m 9,5 km/h (2 Bft) W 263 0 min 0,000 mm 0,0 UV-I 0 W/m 6,1 C 5,8 C 12,9 km/h (3 Bft) 96,15 %
30.03.2016 00:26 8,0 C 87 % 1014,8 hPa 0,0 l/m 6,2 km/h (2 Bft) W 269 0 min 0,000 mm 0,0 UV-I 0 W/m 6,0 C 8,0 C 9,7 km/h (2 Bft) 100,00 %
30.03.2016 00:27 8,0 C 87 % 1014,7 hPa 0,0 l/m 6,9 km/h (2 Bft) W 265 0 min 0,000 mm 0,0 UV-I 0 W/m 6,0 C 7,6 C 11,3 km/h (2 Bft) 91,67 %
30.03.2016 00:28 8,0 C 87 % 1014,6 hPa 0,0 l/m 4,4 km/h (1 Bft) W 262 0 min 0,000 mm 0,0 UV-I 0 W/m 6,0 C 8,0 C 8,0 km/h (2 Bft) 100,00 %
30.03.2016 00:29 8,0 C 87 % 1014,6 hPa 0,0 l/m 5,9 km/h (2 Bft) W 270 0 min 0,000 mm 0,0 UV-I 0 W/m 6,0 C 8,0 C 9,7 km/h (2 Bft) 95,83 %
30.03.2016 00:30 8,0 C 87 % 1014,6 hPa 0,0 l/m 5,9 km/h (2 Bft) W 281 0 min 0,000 mm 0,0 UV-I 0 W/m 6,0 C 8,0 C 9,7 km/h (2 Bft) 95,65 %
30.03.2016 00:31 8,1 C 87 % 1014,6 hPa 0,0 l/m 5,6 km/h (1 Bft) W-SW 250 0 min 0,000 mm 0,0 UV-I 0 W/m 6,1 C 8,1 C 6,4 km/h (2 Bft) 95,83 %
30.03.2016 00:32 8,1 C 87 % 1014,6 hPa 0,0 l/m 6,9 km/h (2 Bft) W-SW 250 0 min 0,000 mm 0,0 UV-I 0 W/m 6,1 C 7,7 C 12,9 km/h (3 Bft) 91,30 %
30.03.2016 00:33 8,1 C 87 % 1014,6 hPa 0,0 l/m 5,8 km/h (2 Bft) W-SW 252 0 min 0,000 mm 0,0 UV-I 0 W/m 6,1 C 8,1 C 8,0 km/h (2 Bft) 100,00 %
30.03.2016 00:34 8,1 C 87 % 1014,6 hPa 0,0 l/m 6,4 km/h (2 Bft) W-SW 256 0 min 0,000 mm 0,0 UV-I 0 W/m 6,1 C 8,1 C 9,7 km/h (2 Bft) 100,00 %
30.03.2016 00:35 8,1 C 87 % 1014,6 hPa 0,0 l/m 11,3 km/h (2 Bft) W 269 0 min 0,000 mm 0,0 UV-I 0 W/m 6,1 C 4,7 C 12,9 km/h (3 Bft) 96,30 %
30.03.2016 00:36 8,2 C 87 % 1014,7 hPa 0,0 l/m 6,7 km/h (2 Bft) W-SW 243 0 min 0,000 mm 0,0 UV-I 0 W/m 6,2 C 8,0 C 9,7 km/h (2 Bft) 100,00 %
30.03.2016 00:37 8,2 C 87 % 1014,6 hPa 0,0 l/m 6,2 km/h (2 Bft) SW 234 0 min 0,000 mm 0,0 UV-I 0 W/m 6,2 C 8,2 C 9,7 km/h (2 Bft) 100,00 %
30.03.2016 00:38 8,2 C 87 % 1014,7 hPa 0,0 l/m 6,5 km/h (2 Bft) W 263 0 min 0,000 mm 0,0 UV-I 0 W/m 6,2 C 8,1 C 9,7 km/h (2 Bft) 100,00 %
30.03.2016 00:39 8,2 C 87 % 1014,7 hPa 0,0 l/m 7,9 km/h (2 Bft) W-SW 253 0 min 0,000 mm 0,0 UV-I 0 W/m 6,2 C 7,0 C 11,3 km/h (2 Bft) 100,00 %
30.03.2016 00:40 8,2 C 87 % 1014,8 hPa 0,0 l/m 7,0 km/h (2 Bft) SW 236 0 min 0,000 mm 0,0 UV-I 0 W/m 6,2 C 7,7 C 11,3 km/h (2 Bft) 100,00 %
30.03.2016 00:41 8,2 C 87 % 1014,9 hPa 0,0 l/m 6,4 km/h (2 Bft) W-SW 240 0 min 0,000 mm 0,0 UV-I 0 W/m 6,2 C 8,2 C 8,0 km/h (2 Bft) 95,83 %
30.03.2016 00:42 8,2 C 87 % 1015,0 hPa 0,0 l/m 5,6 km/h (1 Bft) W-SW 251 0 min 0,000 mm 0,0 UV-I 0 W/m 6,2 C 8,2 C 8,0 km/h (2 Bft) 100,00 %
30.03.2016 00:43 8,2 C 87 % 1015,0 hPa 0,0 l/m 6,0 km/h (2 Bft) W-SW 252 0 min 0,000 mm 0,0 UV-I 0 W/m 6,2 C 8,2 C 11,3 km/h (2 Bft) 95,83 %
30.03.2016 00:44 8,2 C 87 % 1015,0 hPa 0,0 l/m 5,7 km/h (1 Bft) W-SW 254 0 min 0,000 mm 0,0 UV-I 0 W/m 6,2 C 8,2 C 8,0 km/h (2 Bft) 91,67 %
30.03.2016 00:45 8,2 C 87 % 1015,0 hPa 0,0 l/m 4,7 km/h (1 Bft) W-SW 256 0 min 0,000 mm 0,0 UV-I 0 W/m 6,2 C 8,2 C 6,4 km/h (2 Bft) 100,00 %
30.03.2016 00:46 8,2 C 88 % 1015,0 hPa 0,0 l/m 4,4 km/h (1 Bft) SW 234 0 min 0,000 mm 0,0 UV-I 0 W/m 6,3 C 8,2 C 4,8 km/h (1 Bft) 91,43 %
30.03.2016 00:47 8,1 C 88 % 1015,0 hPa 0,2 l/m 5,5 km/h (1 Bft) SW 234 0 min 0,000 mm 0,0 UV-I 0 W/m 6,2 C 8,1 C 6,4 km/h (2 Bft) 100,00 %
30.03.2016 00:48 8,1 C 88 % 1015,0 hPa 0,0 l/m 6,0 km/h (2 Bft) W-SW 240 0 min 0,000 mm 0,0 UV-I 0 W/m 6,2 C 8,1 C 8,0 km/h (2 Bft) 100,00 %
30.03.2016 00:49 8,1 C 88 % 1015,0 hPa 0,0 l/m 3,9 km/h (1 Bft) W-SW 240 0 min 0,000 mm 0,0 UV-I 0 W/m 6,2 C 8,1 C 4,8 km/h (1 Bft) 100,00 %
30.03.2016 00:50 8,1 C 88 % 1015,0 hPa 0,0 l/m 5,7 km/h (1 Bft) W-SW 251 0 min 0,000 mm 0,0 UV-I 0 W/m 6,2 C 8,1 C 9,7 km/h (2 Bft) 100,00 %
30.03.2016 00:51 8,1 C 88 % 1014,9 hPa 0,2 l/m 5,9 km/h (2 Bft) SW 224 0 min 0,000 mm 0,0 UV-I 0 W/m 6,2 C 8,1 C 8,0 km/h (2 Bft) 100,00 %
30.03.2016 00:52 8,1 C 88 % 1014,9 hPa 0,0 l/m 4,8 km/h (1 Bft) W-SW 252 0 min 0,000 mm 0,0 UV-I 0 W/m 6,2 C 8,1 C 6,4 km/h (2 Bft) 100,00 %
30.03.2016 00:53 8,1 C 88 % 1014,9 hPa 0,0 l/m 4,5 km/h (1 Bft) W-SW 242 0 min 0,000 mm 0,0 UV-I 0 W/m 6,2 C 8,1 C 6,4 km/h (2 Bft) 100,00 %
30.03.2016 00:54 8,1 C 88 % 1014,9 hPa 0,0 l/m 4,7 km/h (1 Bft) W-SW 244 0 min 0,000 mm 0,0 UV-I 0 W/m 6,2 C 8,1 C 8,0 km/h (2 Bft) 97,58 %
30.03.2016 00:55 8,1 C 88 % 1014,9 hPa 0,0 l/m 5,0 km/h (1 Bft) W-SW 250 0 min 0,000 mm 0,0 UV-I 0 W/m 6,2 C 8,1 C 6,4 km/h (2 Bft) 97,56 %
30.03.2016 00:56 8,1 C 88 % 1014,9 hPa 0,0 l/m 4,1 km/h (1 Bft) W-SW 252 0 min 0,000 mm 0,0 UV-I 0 W/m 6,2 C 8,1 C 6,4 km/h (2 Bft) 100,00 %
30.03.2016 00:57 8,1 C 88 % 1014,9 hPa 0,0 l/m 6,0 km/h (2 Bft) W-SW 244 0 min 0,000 mm 0,0 UV-I 0 W/m 6,2 C 8,1 C 11,3 km/h (2 Bft) 95,65 %
30.03.2016 00:58 8,1 C 88 % 1015,0 hPa 0,0 l/m 9,7 km/h (2 Bft) W 267 0 min 0,000 mm 0,0 UV-I 0 W/m 6,2 C 5,7 C 12,9 km/h (3 Bft) 100,00 %
30.03.2016 00:59 8,1 C 88 % 1015,0 hPa 0,0 l/m 7,3 km/h (2 Bft) W-SW 248 0 min 0,000 mm 0,0 UV-I 0 W/m 6,2 C 7,4 C 11,3 km/h (2 Bft) 91,30 %
30.03.2016 01:00 8,1 C 88 % 1015,1 hPa 0,0 l/m 7,9 km/h (2 Bft) W-SW 250 0 min 0,000 mm 0,0 UV-I 0 W/m 6,2 C 6,9 C 11,3 km/h (2 Bft) 96,30 %
30.03.2016 01:02 8,1 C 89 % 1015,2 hPa 0,2 l/m 10,2 km/h (2 Bft) W-SW 242 0 min 0,000 mm 0,0 UV-I 0 W/m 6,4 C 5,4 C 14,5 km/h (3 Bft) 100,00 %
30.03.2016 01:03 8,1 C 89 % 1015,3 hPa 0,0 l/m 9,9 km/h (2 Bft) W-SW 255 0 min 0,000 mm 0,0 UV-I 0 W/m 6,4 C 5,6 C 14,5 km/h (3 Bft) 96,15 %
30.03.2016 01:04 8,1 C 89 % 1015,3 hPa 0,0 l/m 10,3 km/h (2 Bft) W-SW 251 0 min 0,000 mm 0,0 UV-I 0 W/m 6,4 C 5,3 C 12,9 km/h (3 Bft) 96,30 %
30.03.2016 01:05 8,1 C 89 % 1015,4 hPa 0,2 l/m 10,1 km/h (2 Bft) W-SW 252 0 min 0,000 mm 0,0 UV-I 0 W/m 6,4 C 5,4 C 12,9 km/h (3 Bft) 100,00 %
30.03.2016 01:06 8,1 C 89 % 1015,5 hPa 0,2 l/m 10,9 km/h (2 Bft) W-SW 248 0 min 0,000 mm 0,0 UV-I 0 W/m 6,4 C 4,9 C 16,1 km/h (3 Bft) 96,30 %
30.03.2016 01:07 8,1 C 89 % 1015,5 hPa 0,2 l/m 11,5 km/h (2 Bft) SW 229 0 min 0,000 mm 0,0 UV-I 0 W/m 6,4 C 4,6 C 12,9 km/h (3 Bft) 100,00 %
30.03.2016 01:08 8,0 C 89 % 1015,4 hPa 0,0 l/m 12,4 km/h (3 Bft) W-SW 257 0 min 0,000 mm 0,0 UV-I 0 W/m 6,3 C 4,0 C 14,5 km/h (3 Bft) 100,00 %
30.03.2016 01:09 8,0 C 89 % 1015,4 hPa 0,2 l/m 8,3 km/h (2 Bft) SW 232 0 min 0,000 mm 0,0 UV-I 0 W/m 6,3 C 6,5 C 11,3 km/h (2 Bft) 96,55 %
30.03.2016 01:10 8,0 C 89 % 1015,3 hPa 0,2 l/m 9,0 km/h (2 Bft) SW 217 0 min 0,000 mm 0,0 UV-I 0 W/m 6,3 C 6,0 C 12,9 km/h (3 Bft) 100,00 %
30.03.2016 01:11 8,0 C 89 % 1015,3 hPa 0,0 l/m 7,5 km/h (2 Bft) W 268 0 min 0,000 mm 0,0 UV-I 0 W/m 6,3 C 7,1 C 11,3 km/h (2 Bft) 96,15 %
30.03.2016 01:12 8,0 C 89 % 1015,3 hPa 0,2 l/m 7,6 km/h (2 Bft) W 267 0 min 0,000 mm 0,0 UV-I 0 W/m 6,3 C 7,1 C 11,3 km/h (2 Bft) 100,00 %
30.03.2016 01:13 8,0 C 89 % 1015,2 hPa 0,0 l/m 4,5 km/h (1 Bft) SW 222 0 min 0,000 mm 0,0 UV-I 0 W/m 6,3 C 8,0 C 6,4 km/h (2 Bft) 100,00 %
30.03.2016 01:14 8,0 C 89 % 1015,1 hPa 0,2 l/m 5,8 km/h (2 Bft) SW 229 0 min 0,000 mm 0,0 UV-I 0 W/m 6,3 C 8,0 C 8,0 km/h (2 Bft) 100,00 %
30.03.2016 01:15 7,9 C 89 % 1015,1 hPa 0,0 l/m 4,7 km/h (1 Bft) S-SW 209 0 min 0,000 mm 0,0 UV-I 0 W/m 6,2 C 7,9 C 6,4 km/h (2 Bft) 95,83 %
30.03.2016 01:16 8,0 C 89 % 1015,0 hPa 0,0 l/m 5,1 km/h (1 Bft) S 179 0 min 0,000 mm 0,0 UV-I 0 W/m 6,3 C 8,0 C 6,4 km/h (2 Bft) 100,00 %
30.03.2016 01:17 7,9 C 89 % 1014,9 hPa 0,2 l/m 2,6 km/h (1 Bft) S 169 0 min 0,000 mm 0,0 UV-I 0 W/m 6,2 C 7,9 C 4,8 km/h (1 Bft) 100,00 %
30.03.2016 01:18 7,9 C 90 % 1014,9 hPa 0,0 l/m 3,0 km/h (1 Bft) S-SO 167 0 min 0,000 mm 0,0 UV-I 0 W/m 6,4 C 7,9 C 6,4 km/h (2 Bft) 95,65 %
30.03.2016 01:19 7,9 C 90 % 1014,9 hPa 0,0 l/m 3,0 km/h (1 Bft) S-SO 167 0 min 0,000 mm 0,0 UV-I 0 W/m 6,4 C 7,9 C 4,8 km/h (1 Bft) 100,00 %
30.03.2016 01:20 7,9 C 90 % 1014,9 hPa 0,0 l/m 2,0 km/h (1 Bft) S-SO 167 0 min 0,000 mm 0,0 UV-I 0 W/m 6,4 C 7,9 C 4,8 km/h (1 Bft) 100,00 %
30.03.2016 01:21 7,9 C 90 % 1014,9 hPa 0,0 l/m 4,4 km/h (1 Bft) S-SO 167 0 min 0,000 mm 0,0 UV-I 0 W/m 6,4 C 7,9 C 6,4 km/h (2 Bft) 100,00 %
30.03.2016 01:22 7,9 C 90 % 1014,9 hPa 0,0 l/m 3,4 km/h (1 Bft) S-SO 167 0 min 0,000 mm 0,0 UV-I 0 W/m 6,4 C 7,9 C 6,4 km/h (2 Bft) 100,00 %
30.03.2016 01:23 7,9 C 90 % 1014,9 hPa 0,0 l/m 4,0 km/h (1 Bft) S-SO 168 0 min 0,000 mm 0,0 UV-I 0 W/m 6,4 C 7,9 C 6,4 km/h (2 Bft) 100,00 %
30.03.2016 01:24 7,8 C 90 % 1014,8 hPa 0,0 l/m 2,5 km/h (1 Bft) S-SO 165 0 min 0,000 mm 0,0 UV-I 0 W/m 6,3 C 7,8 C 6,4 km/h (2 Bft) 96,15 %
30.03.2016 01:25 7,8 C 90 % 1014,7 hPa 0,0 l/m 2,3 km/h (1 Bft) S-SO 157 0 min 0,000 mm 0,0 UV-I 0 W/m 6,3 C 7,8 C 4,8 km/h (1 Bft) 100,00 %
30.03.2016 01:26 7,8 C 90 % 1014,7 hPa 0,0 l/m 4,0 km/h (1 Bft) S-SO 155 0 min 0,000 mm 0,0 UV-I 0 W/m 6,3 C 7,8 C 6,4 km/h (2 Bft) 100,00 %
30.03.2016 01:27 7,8 C 91 % 1014,7 hPa 0,0 l/m 4,5 km/h (1 Bft) S-SO 157 0 min 0,000 mm 0,0 UV-I 0 W/m 6,4 C 7,8 C 8,0 km/h (2 Bft) 100,00 %
30.03.2016 01:28 7,8 C 91 % 1014,6 hPa 0,0 l/m 5,5 km/h (1 Bft) S-SO 157 0 min 0,000 mm 0,0 UV-I 0 W/m 6,4 C 7,8 C 8,0 km/h (2 Bft) 100,00 %
30.03.2016 01:29 7,7 C 91 % 1014,5 hPa 0,0 l/m 5,8 km/h (2 Bft) S-SO 159 0 min 0,000 mm 0,0 UV-I 0 W/m 6,3 C 7,7 C 9,7 km/h (2 Bft) 100,00 %
30.03.2016 01:30 7,7 C 91 % 1014,5 hPa 0,0 l/m 8,5 km/h (2 Bft) S-SO 151 0 min 0,000 mm 0,0 UV-I 0 W/m 6,3 C 6,1 C 12,9 km/h (3 Bft) 100,00 %
30.03.2016 01:31 7,6 C 92 % 1014,4 hPa 0,0 l/m 8,0 km/h (2 Bft) SO 137 0 min 0,000 mm 0,0 UV-I 0 W/m 6,4 C 6,3 C 14,5 km/h (3 Bft) 100,00 %
30.03.2016 01:32 7,6 C 92 % 1014,4 hPa 0,0 l/m 5,1 km/h (1 Bft) S-SO 155 0 min 0,000 mm 0,0 UV-I 0 W/m 6,4 C 7,6 C 8,0 km/h (2 Bft) 100,00 %
30.03.2016 01:33 7,5 C 92 % 1014,5 hPa 0,0 l/m 6,3 km/h (2 Bft) S-SO 155 0 min 0,000 mm 0,0 UV-I 0 W/m 6,3 C 7,5 C 12,9 km/h (3 Bft) 100,00 %
30.03.2016 01:34 7,5 C 92 % 1014,5 hPa 0,0 l/m 6,5 km/h (2 Bft) S-SO 153 0 min 0,000 mm 0,0 UV-I 0 W/m 6,3 C 7,4 C 9,7 km/h (2 Bft) 100,00 %
30.03.2016 01:35 7,5 C 92 % 1014,6 hPa 0,0 l/m 8,6 km/h (2 Bft) SO 140 0 min 0,000 mm 0,0 UV-I 0 W/m 6,3 C 5,8 C 11,3 km/h (2 Bft) 100,00 %
30.03.2016 01:36 7,5 C 92 % 1014,6 hPa 0,0 l/m 8,8 km/h (2 Bft) S 182 0 min 0,000 mm 0,0 UV-I 0 W/m 6,3 C 5,6 C 12,9 km/h (3 Bft) 100,00 %
30.03.2016 01:37 7,5 C 92 % 1014,7 hPa 0,0 l/m 8,0 km/h (2 Bft) S-SO 159 0 min 0,000 mm 0,0 UV-I 0 W/m 6,3 C 6,2 C 12,9 km/h (3 Bft) 96,15 %
30.03.2016 01:38 7,5 C 92 % 1014,7 hPa 0,0 l/m 8,8 km/h (2 Bft) S-SO 148 0 min 0,000 mm 0,0 UV-I 0 W/m 6,3 C 5,6 C 12,9 km/h (3 Bft) 100,00 %
30.03.2016 01:39 7,5 C 92 % 1014,6 hPa 0,0 l/m 9,9 km/h (2 Bft) S-SO 155 0 min 0,000 mm 0,0 UV-I 0 W/m 6,3 C 4,9 C 14,5 km/h (3 Bft) 100,00 %
30.03.2016 01:40 7,5 C 92 % 1014,6 hPa 0,0 l/m 6,8 km/h (2 Bft) S 172 0 min 0,000 mm 0,0 UV-I 0 W/m 6,3 C 7,2 C 9,7 km/h (2 Bft) 100,00 %
30.03.2016 01:41 7,5 C 92 % 1014,6 hPa 0,0 l/m 7,4 km/h (2 Bft) S 177 0 min 0,000 mm 0,0 UV-I 0 W/m 6,3 C 6,7 C 12,9 km/h (3 Bft) 100,00 %
30.03.2016 01:42 7,5 C 92 % 1014,6 hPa 0,0 l/m 9,1 km/h (2 Bft) S-SO 158 0 min 0,000 mm 0,0 UV-I 0 W/m 6,3 C 5,4 C 14,5 km/h (3 Bft) 96,30 %
30.03.2016 01:43 7,6 C 91 % 1014,6 hPa 0,0 l/m 7,3 km/h (2 Bft) S-SO 159 0 min 0,000 mm 0,0 UV-I 0 W/m 6,2 C 6,9 C 9,7 km/h (2 Bft) 96,15 %
30.03.2016 01:44 7,5 C 91 % 1014,5 hPa 0,0 l/m 8,1 km/h (2 Bft) S 188 0 min 0,000 mm 0,0 UV-I 0 W/m 6,1 C 6,2 C 14,5 km/h (3 Bft) 100,00 %
30.03.2016 01:45 7,6 C 91 % 1014,6 hPa 0,0 l/m 9,1 km/h (2 Bft) S 191 0 min 0,000 mm 0,0 UV-I 0 W/m 6,2 C 5,5 C 17,7 km/h (3 Bft) 100,00 %
30.03.2016 01:46 7,6 C 91 % 1014,6 hPa 0,0 l/m 8,4 km/h (2 Bft) S 170 0 min 0,000 mm 0,0 UV-I 0 W/m 6,2 C 6,0 C 12,9 km/h (3 Bft) 100,00 %
30.03.2016 01:47 7,6 C 91 % 1014,6 hPa 0,0 l/m 7,9 km/h (2 Bft) S-SO 147 0 min 0,000 mm 0,0 UV-I 0 W/m 6,2 C 6,4 C 11,3 km/h (2 Bft) 100,00 %
30.03.2016 01:48 7,6 C 91 % 1014,6 hPa 0,0 l/m 8,0 km/h (2 Bft) S-SO 163 0 min 0,000 mm 0,0 UV-I 0 W/m 6,2 C 6,3 C 12,9 km/h (3 Bft) 100,00 %
30.03.2016 01:49 7,6 C 91 % 1014,6 hPa 0,0 l/m 6,8 km/h (2 Bft) S-SO 163 0 min 0,000 mm 0,0 UV-I 0 W/m 6,2 C 7,3 C 12,9 km/h (3 Bft) 100,00 %
30.03.2016 01:50 7,6 C 91 % 1014,6 hPa 0,0 l/m 7,2 km/h (2 Bft) S 185 0 min 0,000 mm 0,0 UV-I 0 W/m 6,2 C 7,0 C 12,9 km/h (3 Bft) 100,00 %
30.03.2016 01:51 7,6 C 91 % 1014,6 hPa 0,0 l/m 8,9 km/h (2 Bft) SW 221 0 min 0,000 mm 0,0 UV-I 0 W/m 6,2 C 5,7 C 14,5 km/h (3 Bft) 100,00 %
30.03.2016 01:52 7,7 C 91 % 1014,6 hPa 0,0 l/m 8,6 km/h (2 Bft) S-SO 159 0 min 0,000 mm 0,0 UV-I 0 W/m 6,3 C 6,0 C 12,9 km/h (3 Bft) 98,23 %
30.03.2016 01:53 7,7 C 91 % 1014,6 hPa 0,0 l/m 8,4 km/h (2 Bft) S 170 0 min 0,000 mm 0,0 UV-I 0 W/m 6,3 C 6,1 C 12,9 km/h (3 Bft) 100,00 %
30.03.2016 01:54 7,7 C 91 % 1014,6 hPa 0,0 l/m 10,0 km/h (2 Bft) S 188 0 min 0,000 mm 0,0 UV-I 0 W/m 6,3 C 5,1 C 19,3 km/h (3 Bft) 100,00 %
30.03.2016 01:55 7,7 C 91 % 1014,7 hPa 0,0 l/m 10,7 km/h (2 Bft) S-SO 158 0 min 0,000 mm 0,0 UV-I 0 W/m 6,3 C 4,6 C 17,7 km/h (3 Bft) 93,33 %
30.03.2016 01:56 7,7 C 91 % 1014,8 hPa 0,0 l/m 12,4 km/h (3 Bft) S-SO 163 0 min 0,000 mm 0,0 UV-I 0 W/m 6,3 C 3,6 C 17,7 km/h (3 Bft) 96,55 %
30.03.2016 01:57 7,7 C 91 % 1014,8 hPa 0,0 l/m 16,3 km/h (3 Bft) S-SW 193 0 min 0,000 mm 0,0 UV-I 0 W/m 6,3 C 1,8 C 25,7 km/h (4 Bft) 100,00 %
30.03.2016 01:58 7,8 C 91 % 1014,8 hPa 0,0 l/m 12,9 km/h (3 Bft) S-SO 165 0 min 0,000 mm 0,0 UV-I 0 W/m 6,4 C 3,5 C 19,3 km/h (3 Bft) 100,00 %
30.03.2016 01:59 7,8 C 91 % 1014,8 hPa 0,0 l/m 18,0 km/h (3 Bft) S 182 0 min 0,000 mm 0,0 UV-I 0 W/m 6,4 C 1,2 C 27,4 km/h (4 Bft) 100,00 %
30.03.2016 02:00 7,8 C 91 % 1014,9 hPa 0,0 l/m 16,8 km/h (3 Bft) S 174 0 min 0,000 mm 0,0 UV-I 0 W/m 6,4 C 1,7 C 25,7 km/h (4 Bft) 92,86 %
30.03.2016 02:02 7,8 C 91 % 1015,0 hPa 0,2 l/m 17,6 km/h (3 Bft) S 175 0 min 0,000 mm 0,0 UV-I 0 W/m 6,4 C 1,4 C 30,6 km/h (5 Bft) 98,21 %
30.03.2016 02:03 7,8 C 91 % 1015,0 hPa 0,0 l/m 15,2 km/h (3 Bft) S-SO 151 0 min 0,000 mm 0,0 UV-I 0 W/m 6,4 C 2,4 C 20,9 km/h (4 Bft) 100,00 %
30.03.2016 02:04 7,8 C 90 % 1015,0 hPa 0,0 l/m 14,5 km/h (3 Bft) S 178 0 min 0,000 mm 0,0 UV-I 0 W/m 6,3 C 2,7 C 17,7 km/h (3 Bft) 96,55 %
30.03.2016 02:05 7,8 C 90 % 1015,1 hPa 0,0 l/m 15,1 km/h (3 Bft) S 182 0 min 0,000 mm 0,0 UV-I 0 W/m 6,3 C 2,4 C 25,7 km/h (4 Bft) 100,00 %
30.03.2016 02:06 7,8 C 90 % 1015,1 hPa 0,0 l/m 16,4 km/h (3 Bft) S 179 0 min 0,000 mm 0,0 UV-I 0 W/m 6,3 C 1,8 C 22,5 km/h (4 Bft) 96,55 %
30.03.2016 02:07 7,8 C 90 % 1015,1 hPa 0,0 l/m 13,2 km/h (3 Bft) S-SW 198 0 min 0,000 mm 0,0 UV-I 0 W/m 6,3 C 3,3 C 16,1 km/h (3 Bft) 95,83 %
30.03.2016 02:08 7,8 C 90 % 1015,1 hPa 0,2 l/m 14,6 km/h (3 Bft) S-SW 203 0 min 0,000 mm 0,0 UV-I 0 W/m 6,3 C 2,7 C 19,3 km/h (3 Bft) 100,00 %
30.03.2016 02:09 7,8 C 91 % 1015,2 hPa 0,0 l/m 11,2 km/h (2 Bft) S 186 0 min 0,000 mm 0,0 UV-I 0 W/m 6,4 C 4,4 C 16,1 km/h (3 Bft) 96,15 %
30.03.2016 02:10 7,8 C 91 % 1015,2 hPa 0,0 l/m 10,6 km/h (2 Bft) SW 219 0 min 0,000 mm 0,0 UV-I 0 W/m 6,4 C 4,8 C 14,5 km/h (3 Bft) 100,00 %
30.03.2016 02:11 7,8 C 91 % 1015,2 hPa 0,2 l/m 8,4 km/h (2 Bft) S 189 0 min 0,000 mm 0,0 UV-I 0 W/m 6,4 C 6,2 C 11,3 km/h (2 Bft) 86,96 %
30.03.2016 02:12 7,8 C 91 % 1015,2 hPa 0,0 l/m 11,9 km/h (2 Bft) S 190 0 min 0,000 mm 0,0 UV-I 0 W/m 6,4 C 4,0 C 14,5 km/h (3 Bft) 100,00 %
30.03.2016 02:13 7,8 C 91 % 1015,2 hPa 0,0 l/m 7,9 km/h (2 Bft) S-SW 201 0 min 0,000 mm 0,0 UV-I 0 W/m 6,4 C 6,6 C 9,7 km/h (2 Bft) 96,15 %
30.03.2016 02:14 7,8 C 91 % 1015,2 hPa 0,0 l/m 11,2 km/h (2 Bft) S-SW 201 0 min 0,000 mm 0,0 UV-I 0 W/m 6,4 C 4,4 C 14,5 km/h (3 Bft) 96,30 %
30.03.2016 02:15 7,8 C 91 % 1015,2 hPa 0,0 l/m 9,2 km/h (2 Bft) S-SW 203 0 min 0,000 mm 0,0 UV-I 0 W/m 6,4 C 5,7 C 11,3 km/h (2 Bft) 100,00 %
30.03.2016 02:16 7,8 C 91 % 1015,2 hPa 0,0 l/m 9,3 km/h (2 Bft) S 186 0 min 0,000 mm 0,0 UV-I 0 W/m 6,4 C 5,6 C 11,3 km/h (2 Bft) 92,59 %
30.03.2016 02:17 7,8 C 91 % 1015,2 hPa 0,0 l/m 10,8 km/h (2 Bft) S-SW 203 0 min 0,000 mm 0,0 UV-I 0 W/m 6,4 C 4,7 C 12,9 km/h (3 Bft) 100,00 %
30.03.2016 02:18 7,8 C 91 % 1015,2 hPa 0,0 l/m 9,1 km/h (2 Bft) S 188 0 min 0,000 mm 0,0 UV-I 0 W/m 6,4 C 5,8 C 12,9 km/h (3 Bft) 91,67 %
30.03.2016 02:19 7,8 C 91 % 1015,2 hPa 0,2 l/m 9,3 km/h (2 Bft) SO 130 0 min 0,000 mm 0,0 UV-I 0 W/m 6,4 C 5,6 C 12,9 km/h (3 Bft) 100,00 %
30.03.2016 02:20 7,8 C 91 % 1015,2 hPa 0,0 l/m 7,3 km/h (2 Bft) S 178 0 min 0,000 mm 0,0 UV-I 0 W/m 6,4 C 7,1 C 11,3 km/h (2 Bft) 96,67 %
30.03.2016 02:21 7,8 C 91 % 1015,1 hPa 0,0 l/m 8,4 km/h (2 Bft) S-SO 161 0 min 0,000 mm 0,0 UV-I 0 W/m 6,4 C 6,2 C 12,9 km/h (3 Bft) 96,15 %
30.03.2016 02:22 7,8 C 91 % 1015,2 hPa 0,0 l/m 8,1 km/h (2 Bft) S-SW 194 0 min 0,000 mm 0,0 UV-I 0 W/m 6,4 C 6,5 C 12,9 km/h (3 Bft) 100,00 %
30.03.2016 02:23 7,9 C 91 % 1015,2 hPa 0,0 l/m 7,1 km/h (2 Bft) S-SW 198 0 min 0,000 mm 0,0 UV-I 0 W/m 6,5 C 7,3 C 11,3 km/h (2 Bft) 91,30 %
30.03.2016 02:24 7,9 C 91 % 1015,1 hPa 0,0 l/m 8,2 km/h (2 Bft) S-SW 200 0 min 0,000 mm 0,0 UV-I 0 W/m 6,5 C 6,5 C 14,5 km/h (3 Bft) 100,00 %
30.03.2016 02:25 7,9 C 91 % 1015,2 hPa 0,0 l/m 9,2 km/h (2 Bft) S-SW 196 0 min 0,000 mm 0,0 UV-I 0 W/m 6,5 C 5,8 C 12,9 km/h (3 Bft) 91,30 %
30.03.2016 02:26 7,9 C 91 % 1015,2 hPa 0,0 l/m 8,7 km/h (2 Bft) S 188 0 min 0,000 mm 0,0 UV-I 0 W/m 6,5 C 6,1 C 12,9 km/h (3 Bft) 100,00 %
30.03.2016 02:27 7,9 C 91 % 1015,2 hPa 0,0 l/m 7,6 km/h (2 Bft) S 176 0 min 0,000 mm 0,0 UV-I 0 W/m 6,5 C 7,0 C 11,3 km/h (2 Bft) 91,67 %
30.03.2016 02:28 7,9 C 91 % 1015,1 hPa 0,2 l/m 6,4 km/h (2 Bft) S 172 0 min 0,000 mm 0,0 UV-I 0 W/m 6,5 C 7,9 C 9,7 km/h (2 Bft) 100,00 %
30.03.2016 02:29 7,9 C 91 % 1015,0 hPa 0,0 l/m 9,5 km/h (2 Bft) S-SO 159 0 min 0,000 mm 0,0 UV-I 0 W/m 6,5 C 5,6 C 14,5 km/h (3 Bft) 96,30 %
30.03.2016 02:30 7,9 C 91 % 1015,0 hPa 0,0 l/m 8,6 km/h (2 Bft) S-SW 193 0 min 0,000 mm 0,0 UV-I 0 W/m 6,5 C 6,2 C 12,9 km/h (3 Bft) 95,65 %
30.03.2016 02:31 7,9 C 91 % 1015,0 hPa 0,0 l/m 9,6 km/h (2 Bft) S-SW 196 0 min 0,000 mm 0,0 UV-I 0 W/m 6,5 C 5,5 C 11,3 km/h (2 Bft) 96,30 %
30.03.2016 02:32 7,9 C 91 % 1015,0 hPa 0,0 l/m 8,0 km/h (2 Bft) S-SW 207 0 min 0,000 mm 0,0 UV-I 0 W/m 6,5 C 6,6 C 12,9 km/h (3 Bft) 96,15 %
30.03.2016 02:33 7,9 C 91 % 1015,0 hPa 0,0 l/m 7,1 km/h (2 Bft) S 170 0 min 0,000 mm 0,0 UV-I 0 W/m 6,5 C 7,3 C 9,7 km/h (2 Bft) 100,00 %
30.03.2016 02:34 7,9 C 90 % 1015,0 hPa 0,0 l/m 7,5 km/h (2 Bft) S-SW 213 0 min 0,000 mm 0,0 UV-I 0 W/m 6,4 C 7,0 C 9,7 km/h (2 Bft) 96,15 %
30.03.2016 02:35 7,9 C 90 % 1014,9 hPa 0,0 l/m 6,8 km/h (2 Bft) S-SW 192 0 min 0,000 mm 0,0 UV-I 0 W/m 6,4 C 7,6 C 9,7 km/h (2 Bft) 100,00 %
30.03.2016 02:36 7,9 C 90 % 1014,9 hPa 0,0 l/m 4,5 km/h (1 Bft) S-SO 159 0 min 0,000 mm 0,0 UV-I 0 W/m 6,4 C 7,9 C 9,7 km/h (2 Bft) 92,86 %
30.03.2016 02:37 7,9 C 90 % 1014,9 hPa 0,0 l/m 6,3 km/h (2 Bft) S 191 0 min 0,000 mm 0,0 UV-I 0 W/m 6,4 C 7,9 C 9,7 km/h (2 Bft) 100,00 %
30.03.2016 02:38 7,9 C 90 % 1014,9 hPa 0,0 l/m 5,6 km/h (1 Bft) S 178 0 min 0,000 mm 0,0 UV-I 0 W/m 6,4 C 7,9 C 8,0 km/h (2 Bft) 95,65 %
30.03.2016 02:39 7,9 C 91 % 1014,9 hPa 0,0 l/m 7,2 km/h (2 Bft) S-SW 200 0 min 0,000 mm 0,0 UV-I 0 W/m 6,5 C 7,3 C 11,3 km/h (2 Bft) 100,00 %
30.03.2016 02:40 7,9 C 91 % 1014,9 hPa 0,0 l/m 5,9 km/h (2 Bft) S-SW 196 0 min 0,000 mm 0,0 UV-I 0 W/m 6,5 C 7,9 C 9,7 km/h (2 Bft) 95,65 %
30.03.2016 02:41 7,9 C 91 % 1014,8 hPa 0,0 l/m 6,1 km/h (2 Bft) S-SO 168 0 min 0,000 mm 0,0 UV-I 0 W/m 6,5 C 7,9 C 9,7 km/h (2 Bft) 100,00 %
30.03.2016 02:42 7,9 C 91 % 1014,8 hPa 0,0 l/m 4,7 km/h (1 Bft) S 176 0 min 0,000 mm 0,0 UV-I 0 W/m 6,5 C 7,9 C 6,4 km/h (2 Bft) 100,00 %
30.03.2016 02:43 7,9 C 91 % 1014,8 hPa 0,0 l/m 3,0 km/h (1 Bft) S-SW 197 0 min 0,000 mm 0,0 UV-I 0 W/m 6,5 C 7,9 C 4,8 km/h (1 Bft) 100,00 %
30.03.2016 02:44 7,9 C 91 % 1014,8 hPa 0,0 l/m 2,8 km/h (1 Bft) S 169 0 min 0,000 mm 0,0 UV-I 0 W/m 6,5 C 7,9 C 6,4 km/h (2 Bft) 92,31 %
30.03.2016 02:45 7,9 C 91 % 1014,7 hPa 0,0 l/m 4,6 km/h (1 Bft) S 169 0 min 0,000 mm 0,0 UV-I 0 W/m 6,5 C 7,9 C 8,0 km/h (2 Bft) 100,00 %
30.03.2016 02:46 7,9 C 91 % 1014,8 hPa 0,0 l/m 4,2 km/h (1 Bft) S 178 0 min 0,000 mm 0,0 UV-I 0 W/m 6,5 C 7,9 C 6,4 km/h (2 Bft) 100,00 %
30.03.2016 02:47 7,9 C 91 % 1014,7 hPa 0,0 l/m 4,5 km/h (1 Bft) S 171 0 min 0,000 mm 0,0 UV-I 0 W/m 6,5 C 7,9 C 8,0 km/h (2 Bft) 88,89 %
30.03.2016 02:48 7,9 C 91 % 1014,7 hPa 0,0 l/m 4,7 km/h (1 Bft) S-SO 163 0 min 0,000 mm 0,0 UV-I 0 W/m 6,5 C 7,9 C 9,7 km/h (2 Bft) 100,00 %
30.03.2016 02:49 7,9 C 91 % 1014,7 hPa 0,0 l/m 3,0 km/h (1 Bft) S-SO 163 0 min 0,000 mm 0,0 UV-I 0 W/m 6,5 C 7,9 C 4,8 km/h (1 Bft) 100,00 %
30.03.2016 02:50 7,9 C 91 % 1014,7 hPa 0,0 l/m 3,0 km/h (1 Bft) S 169 0 min 0,000 mm 0,0 UV-I 0 W/m 6,5 C 7,9 C 6,4 km/h (2 Bft) 100,00 %
30.03.2016 02:51 7,9 C 91 % 1014,7 hPa 0,0 l/m 4,4 km/h (1 Bft) S-SO 159 0 min 0,000 mm 0,0 UV-I 0 W/m 6,5 C 7,9 C 8,0 km/h (2 Bft) 100,00 %
30.03.2016 02:52 7,9 C 91 % 1014,7 hPa 0,0 l/m 2,7 km/h (1 Bft) S-SO 159 0 min 0,000 mm 0,0 UV-I 0 W/m 6,5 C 7,9 C 6,4 km/h (2 Bft) 95,83 %
30.03.2016 02:53 7,8 C 91 % 1014,7 hPa 0,0 l/m 3,2 km/h (1 Bft) S 171 0 min 0,000 mm 0,0 UV-I 0 W/m 6,4 C 7,8 C 6,4 km/h (2 Bft) 100,00 %
30.03.2016 02:54 7,8 C 91 % 1014,7 hPa 0,0 l/m 4,3 km/h (1 Bft) S 171 0 min 0,000 mm 0,0 UV-I 0 W/m 6,4 C 7,8 C 8,0 km/h (2 Bft) 100,00 %
30.03.2016 02:55 7,8 C 91 % 1014,6 hPa 0,0 l/m 2,7 km/h (1 Bft) S 170 0 min 0,000 mm 0,0 UV-I 0 W/m 6,4 C 7,8 C 6,4 km/h (2 Bft) 100,00 %
30.03.2016 02:56 7,8 C 91 % 1014,6 hPa 0,0 l/m 3,5 km/h (1 Bft) S 175 0 min 0,000 mm 0,0 UV-I 0 W/m 6,4 C 7,8 C 6,4 km/h (2 Bft) 100,00 %
30.03.2016 02:57 7,8 C 91 % 1014,6 hPa 0,0 l/m 2,5 km/h (1 Bft) S 170 0 min 0,000 mm 0,0 UV-I 0 W/m 6,4 C 7,8 C 4,8 km/h (1 Bft) 100,00 %
30.03.2016 02:58 7,8 C 91 % 1014,6 hPa 0,0 l/m 4,6 km/h (1 Bft) S 177 0 min 0,000 mm 0,0 UV-I 0 W/m 6,4 C 7,8 C 12,9 km/h (3 Bft) 100,00 %
30.03.2016 02:59 7,8 C 91 % 1014,6 hPa 0,0 l/m 6,2 km/h (2 Bft) S-SO 152 0 min 0,000 mm 0,0 UV-I 0 W/m 6,4 C 7,8 C 8,0 km/h (2 Bft) 100,00 %
30.03.2016 03:00 7,8 C 91 % 1014,6 hPa 0,0 l/m 4,4 km/h (1 Bft) S-SO 165 0 min 0,000 mm 0,0 UV-I 0 W/m 6,4 C 7,8 C 8,0 km/h (2 Bft) 100,00 %
30.03.2016 03:02 7,8 C 91 % 1014,6 hPa 0,0 l/m 4,7 km/h (1 Bft) S-SO 167 0 min 0,000 mm 0,0 UV-I 0 W/m 6,4 C 7,8 C 8,0 km/h (2 Bft) 97,73 %
30.03.2016 03:03 7,8 C 91 % 1014,6 hPa 0,0 l/m 4,7 km/h (1 Bft) S-SO 151 0 min 0,000 mm 0,0 UV-I 0 W/m 6,4 C 7,8 C 8,0 km/h (2 Bft) 100,00 %
30.03.2016 03:04 7,8 C 91 % 1014,6 hPa 0,0 l/m 7,0 km/h (2 Bft) S-SO 158 0 min 0,000 mm 0,0 UV-I 0 W/m 6,4 C 7,3 C 11,3 km/h (2 Bft) 100,00 %
30.03.2016 03:05 7,8 C 91 % 1014,6 hPa 0,0 l/m 6,0 km/h (2 Bft) S 170 0 min 0,000 mm 0,0 UV-I 0 W/m 6,4 C 7,8 C 9,7 km/h (2 Bft) 100,00 %
30.03.2016 03:06 7,9 C 91 % 1014,6 hPa 0,0 l/m 3,5 km/h (1 Bft) S-SO 165 0 min 0,000 mm 0,0 UV-I 0 W/m 6,5 C 7,9 C 6,4 km/h (2 Bft) 100,00 %
30.03.2016 03:07 7,9 C 91 % 1014,5 hPa 0,0 l/m 3,6 km/h (1 Bft) S-SO 163 0 min 0,000 mm 0,0 UV-I 0 W/m 6,5 C 7,9 C 6,4 km/h (2 Bft) 100,00 %
30.03.2016 03:08 7,9 C 90 % 1014,5 hPa 0,0 l/m 4,9 km/h (1 Bft) S-SO 165 0 min 0,000 mm 0,0 UV-I 0 W/m 6,4 C 7,9 C 8,0 km/h (2 Bft) 100,00 %
30.03.2016 03:09 7,9 C 90 % 1014,5 hPa 0,0 l/m 4,2 km/h (1 Bft) S 173 0 min 0,000 mm 0,0 UV-I 0 W/m 6,4 C 7,9 C 9,7 km/h (2 Bft) 100,00 %
30.03.2016 03:10 7,9 C 90 % 1014,5 hPa 0,0 l/m 4,1 km/h (1 Bft) S-SO 161 0 min 0,000 mm 0,0 UV-I 0 W/m 6,4 C 7,9 C 8,0 km/h (2 Bft) 100,00 %
30.03.2016 03:11 7,9 C 90 % 1014,5 hPa 0,0 l/m 7,0 km/h (2 Bft) S-SO 161 0 min 0,000 mm 0,0 UV-I 0 W/m 6,4 C 7,4 C 9,7 km/h (2 Bft) 100,00 %
30.03.2016 03:12 7,9 C 90 % 1014,5 hPa 0,0 l/m 8,2 km/h (2 Bft) S-SO 167 0 min 0,000 mm 0,0 UV-I 0 W/m 6,4 C 6,5 C 11,3 km/h (2 Bft) 100,00 %
30.03.2016 03:13 7,9 C 90 % 1014,5 hPa 0,0 l/m 7,3 km/h (2 Bft) S-SO 160 0 min 0,000 mm 0,0 UV-I 0 W/m 6,4 C 7,2 C 9,7 km/h (2 Bft) 100,00 %
30.03.2016 03:14 7,9 C 90 % 1014,6 hPa 0,0 l/m 7,1 km/h (2 Bft) S-SO 161 0 min 0,000 mm 0,0 UV-I 0 W/m 6,4 C 7,3 C 12,9 km/h (3 Bft) 100,00 %
30.03.2016 03:15 7,9 C 90 % 1014,5 hPa 0,0 l/m 6,7 km/h (2 Bft) S 178 0 min 0,000 mm 0,0 UV-I 0 W/m 6,4 C 7,7 C 11,3 km/h (2 Bft) 100,00 %
30.03.2016 03:16 7,9 C 90 % 1014,5 hPa 0,0 l/m 5,6 km/h (1 Bft) S 191 0 min 0,000 mm 0,0 UV-I 0 W/m 6,4 C 7,9 C 8,0 km/h (2 Bft) 92,31 %
30.03.2016 03:17 7,9 C 90 % 1014,5 hPa 0,0 l/m 7,2 km/h (2 Bft) S 177 0 min 0,000 mm 0,0 UV-I 0 W/m 6,4 C 7,3 C 9,7 km/h (2 Bft) 100,00 %
30.03.2016 03:18 7,9 C 90 % 1014,6 hPa 0,0 l/m 5,6 km/h (1 Bft) S 172 0 min 0,000 mm 0,0 UV-I 0 W/m 6,4 C 7,9 C 9,7 km/h (2 Bft) 100,00 %
30.03.2016 03:19 8,0 C 90 % 1014,6 hPa 0,0 l/m 5,4 km/h (1 Bft) S 180 0 min 0,000 mm 0,0 UV-I 0 W/m 6,5 C 8,0 C 11,3 km/h (2 Bft) 100,00 %
30.03.2016 03:20 7,9 C 90 % 1014,6 hPa 0,0 l/m 5,6 km/h (1 Bft) S-SO 161 0 min 0,000 mm 0,0 UV-I 0 W/m 6,4 C 7,9 C 8,0 km/h (2 Bft) 96,15 %
30.03.2016 03:21 8,0 C 90 % 1014,5 hPa 0,0 l/m 6,9 km/h (2 Bft) S 173 0 min 0,000 mm 0,0 UV-I 0 W/m 6,5 C 7,6 C 9,7 km/h (2 Bft) 100,00 %
30.03.2016 03:22 7,9 C 90 % 1014,5 hPa 0,0 l/m 7,2 km/h (2 Bft) S 169 0 min 0,000 mm 0,0 UV-I 0 W/m 6,4 C 7,3 C 9,7 km/h (2 Bft) 100,00 %
30.03.2016 03:23 8,0 C 90 % 1014,5 hPa 0,0 l/m 6,1 km/h (2 Bft) S-SO 165 0 min 0,000 mm 0,0 UV-I 0 W/m 6,5 C 8,0 C 11,3 km/h (2 Bft) 100,00 %
30.03.2016 03:24 8,0 C 90 % 1014,4 hPa 0,0 l/m 5,8 km/h (2 Bft) S-SO 151 0 min 0,000 mm 0,0 UV-I 0 W/m 6,5 C 8,0 C 9,7 km/h (2 Bft) 100,00 %
30.03.2016 03:25 8,0 C 90 % 1014,4 hPa 0,0 l/m 6,4 km/h (2 Bft) S-SO 167 0 min 0,000 mm 0,0 UV-I 0 W/m 6,5 C 8,0 C 8,0 km/h (2 Bft) 100,00 %
30.03.2016 03:26 8,0 C 90 % 1014,4 hPa 0,0 l/m 8,4 km/h (2 Bft) S-SW 195 0 min 0,000 mm 0,0 UV-I 0 W/m 6,5 C 6,5 C 11,3 km/h (2 Bft) 100,00 %
30.03.2016 03:27 8,0 C 90 % 1014,4 hPa 0,0 l/m 6,3 km/h (2 Bft) S-SO 163 0 min 0,000 mm 0,0 UV-I 0 W/m 6,5 C 8,0 C 14,5 km/h (3 Bft) 100,00 %
30.03.2016 03:28 8,0 C 90 % 1014,4 hPa 0,0 l/m 4,3 km/h (1 Bft) S 178 0 min 0,000 mm 0,0 UV-I 0 W/m 6,5 C 8,0 C 8,0 km/h (2 Bft) 100,00 %
30.03.2016 03:29 8,0 C 89 % 1014,4 hPa 0,0 l/m 5,3 km/h (1 Bft) S-SO 167 0 min 0,000 mm 0,0 UV-I 0 W/m 6,3 C 8,0 C 9,7 km/h (2 Bft) 100,00 %
30.03.2016 03:30 8,0 C 89 % 1014,5 hPa 0,0 l/m 6,6 km/h (2 Bft) S-SO 165 0 min 0,000 mm 0,0 UV-I 0 W/m 6,3 C 7,9 C 9,7 km/h (2 Bft) 100,00 %
30.03.2016 03:31 8,1 C 89 % 1014,4 hPa 0,0 l/m 3,4 km/h (1 Bft) S-SO 165 0 min 0,000 mm 0,0 UV-I 0 W/m 6,4 C 8,1 C 6,4 km/h (2 Bft) 100,00 %
30.03.2016 03:32 8,1 C 89 % 1014,4 hPa 0,0 l/m 4,7 km/h (1 Bft) S-SO 167 0 min 0,000 mm 0,0 UV-I 0 W/m 6,4 C 8,1 C 8,0 km/h (2 Bft) 100,00 %
30.03.2016 03:33 8,1 C 89 % 1014,4 hPa 0,0 l/m 4,6 km/h (1 Bft) S-SO 166 0 min 0,000 mm 0,0 UV-I 0 W/m 6,4 C 8,1 C 8,0 km/h (2 Bft) 100,00 %
30.03.2016 03:34 8,1 C 89 % 1014,4 hPa 0,0 l/m 4,8 km/h (1 Bft) S-SO 155 0 min 0,000 mm 0,0 UV-I 0 W/m 6,4 C 8,1 C 6,4 km/h (2 Bft) 100,00 %
30.03.2016 03:35 8,1 C 89 % 1014,4 hPa 0,0 l/m 4,6 km/h (1 Bft) S 190 0 min 0,000 mm 0,0 UV-I 0 W/m 6,4 C 8,1 C 8,0 km/h (2 Bft) 92,86 %
30.03.2016 03:36 8,1 C 89 % 1014,4 hPa 0,0 l/m 4,0 km/h (1 Bft) S 185 0 min 0,000 mm 0,0 UV-I 0 W/m 6,4 C 8,1 C 6,4 km/h (2 Bft) 100,00 %
30.03.2016 03:37 8,1 C 89 % 1014,4 hPa 0,0 l/m 3,4 km/h (1 Bft) S 172 0 min 0,000 mm 0,0 UV-I 0 W/m 6,4 C 8,1 C 6,4 km/h (2 Bft) 100,00 %
30.03.2016 03:38 8,1 C 89 % 1014,4 hPa 0,0 l/m 3,1 km/h (1 Bft) S-SO 163 0 min 0,000 mm 0,0 UV-I 0 W/m 6,4 C 8,1 C 6,4 km/h (2 Bft) 96,30 %
30.03.2016 03:39 8,1 C 89 % 1014,4 hPa 0,0 l/m 2,5 km/h (1 Bft) S-SO 168 0 min 0,000 mm 0,0 UV-I 0 W/m 6,4 C 8,1 C 6,4 km/h (2 Bft) 100,00 %
30.03.2016 03:40 8,1 C 89 % 1014,4 hPa 0,0 l/m 3,8 km/h (1 Bft) S-SO 167 0 min 0,000 mm 0,0 UV-I 0 W/m 6,4 C 8,1 C 6,4 km/h (2 Bft) 100,00 %
30.03.2016 03:41 8,1 C 89 % 1014,4 hPa 0,0 l/m 1,2 km/h (1 Bft) S-SO 167 0 min 0,000 mm 0,0 UV-I 0 W/m 6,4 C 8,1 C 4,8 km/h (1 Bft) 100,00 %
30.03.2016 03:42 8,1 C 89 % 1014,4 hPa 0,0 l/m 1,8 km/h (1 Bft) S-SO 161 0 min 0,000 mm 0,0 UV-I 0 W/m 6,4 C 8,1 C 3,2 km/h (1 Bft) 100,00 %
30.03.2016 03:43 8,1 C 89 % 1014,3 hPa 0,0 l/m 2,2 km/h (1 Bft) S-SO 151 0 min 0,000 mm 0,0 UV-I 0 W/m 6,4 C 8,1 C 3,2 km/h (1 Bft) 100,00 %
30.03.2016 03:44 8,1 C 89 % 1014,3 hPa 0,0 l/m 1,9 km/h (1 Bft) S-SO 155 0 min 0,000 mm 0,0 UV-I 0 W/m 6,4 C 8,1 C 3,2 km/h (1 Bft) 100,00 %
30.03.2016 03:45 8,0 C 90 % 1014,3 hPa 0,0 l/m 2,3 km/h (1 Bft) S-SO 156 0 min 0,000 mm 0,0 UV-I 0 W/m 6,5 C 8,0 C 3,2 km/h (1 Bft) 100,00 %
30.03.2016 03:46 7,9 C 90 % 1014,3 hPa 0,0 l/m 2,1 km/h (1 Bft) S-SO 161 0 min 0,000 mm 0,0 UV-I 0 W/m 6,4 C 7,9 C 6,4 km/h (2 Bft) 100,00 %
30.03.2016 03:47 7,9 C 90 % 1014,3 hPa 0,0 l/m 2,1 km/h (1 Bft) SO 140 0 min 0,000 mm 0,0 UV-I 0 W/m 6,4 C 7,9 C 4,8 km/h (1 Bft) 100,00 %
30.03.2016 03:48 7,8 C 91 % 1014,3 hPa 0,0 l/m 2,6 km/h (1 Bft) S-SO 157 0 min 0,000 mm 0,0 UV-I 0 W/m 6,4 C 7,8 C 3,2 km/h (1 Bft) 100,00 %
30.03.2016 03:49 7,8 C 91 % 1014,3 hPa 0,0 l/m 2,3 km/h (1 Bft) S-SO 148 0 min 0,000 mm 0,0 UV-I 0 W/m 6,4 C 7,8 C 6,4 km/h (2 Bft) 100,00 %
30.03.2016 03:50 7,7 C 91 % 1014,3 hPa 0,0 l/m 2,1 km/h (1 Bft) S-SO 153 0 min 0,000 mm 0,0 UV-I 0 W/m 6,3 C 7,7 C 4,8 km/h (1 Bft) 100,00 %
30.03.2016 03:51 7,7 C 91 % 1014,2 hPa 0,0 l/m 3,3 km/h (1 Bft) S-SO 155 0 min 0,000 mm 0,0 UV-I 0 W/m 6,3 C 7,7 C 4,8 km/h (1 Bft) 100,00 %
30.03.2016 03:52 7,7 C 92 % 1014,2 hPa 0,0 l/m 2,3 km/h (1 Bft) S-SO 147 0 min 0,000 mm 0,0 UV-I 0 W/m 6,5 C 7,7 C 4,8 km/h (1 Bft) 100,00 %
30.03.2016 03:53 7,6 C 92 % 1014,2 hPa 0,0 l/m 2,5 km/h (1 Bft) S-SO 154 0 min 0,000 mm 0,0 UV-I 0 W/m 6,4 C 7,6 C 4,8 km/h (1 Bft) 100,00 %
30.03.2016 03:54 7,7 C 92 % 1014,1 hPa 0,0 l/m 4,6 km/h (1 Bft) S-SO 157 0 min 0,000 mm 0,0 UV-I 0 W/m 6,5 C 7,7 C 8,0 km/h (2 Bft) 100,00 %
30.03.2016 03:55 7,6 C 92 % 1014,1 hPa 0,0 l/m 3,5 km/h (1 Bft) SO 145 0 min 0,000 mm 0,0 UV-I 0 W/m 6,4 C 7,6 C 6,4 km/h (2 Bft) 96,30 %
30.03.2016 03:56 7,6 C 92 % 1014,1 hPa 0,0 l/m 3,8 km/h (1 Bft) S-SO 148 0 min 0,000 mm 0,0 UV-I 0 W/m 6,4 C 7,6 C 6,4 km/h (2 Bft) 100,00 %
30.03.2016 03:57 7,6 C 92 % 1014,0 hPa 0,0 l/m 4,4 km/h (1 Bft) S-SO 160 0 min 0,000 mm 0,0 UV-I 0 W/m 6,4 C 7,6 C 9,7 km/h (2 Bft) 100,00 %
30.03.2016 03:58 7,6 C 92 % 1014,1 hPa 0,0 l/m 5,2 km/h (1 Bft) S-SO 153 0 min 0,000 mm 0,0 UV-I 0 W/m 6,4 C 7,6 C 9,7 km/h (2 Bft) 100,00 %
30.03.2016 03:59 7,6 C 92 % 1014,1 hPa 0,0 l/m 5,1 km/h (1 Bft) S-SO 160 0 min 0,000 mm 0,0 UV-I 0 W/m 6,4 C 7,6 C 6,4 km/h (2 Bft) 100,00 %
30.03.2016 04:00 7,6 C 92 % 1014,0 hPa 0,0 l/m 4,0 km/h (1 Bft) S-SO 167 0 min 0,000 mm 0,0 UV-I 0 W/m 6,4 C 7,6 C 6,4 km/h (2 Bft) 100,00 %
30.03.2016 04:02 7,6 C 92 % 1014,2 hPa 0,0 l/m 4,0 km/h (1 Bft) S-SO 161 0 min 0,000 mm 0,0 UV-I 0 W/m 6,4 C 7,6 C 6,4 km/h (2 Bft) 100,00 %
30.03.2016 04:03 7,6 C 92 % 1014,2 hPa 0,0 l/m 3,4 km/h (1 Bft) S-SO 149 0 min 0,000 mm 0,0 UV-I 0 W/m 6,4 C 7,6 C 6,4 km/h (2 Bft) 100,00 %
30.03.2016 04:04 7,6 C 91 % 1014,1 hPa 0,0 l/m 1,6 km/h (1 Bft) S-SO 158 0 min 0,000 mm 0,0 UV-I 0 W/m 6,2 C 7,6 C 3,2 km/h (1 Bft) 96,30 %
30.03.2016 04:05 7,7 C 91 % 1014,1 hPa 0,0 l/m 2,8 km/h (1 Bft) S-SO 167 0 min 0,000 mm 0,0 UV-I 0 W/m 6,3 C 7,7 C 6,4 km/h (2 Bft) 96,88 %
30.03.2016 04:06 7,7 C 91 % 1014,1 hPa 0,0 l/m 1,2 km/h (1 Bft) S-SO 167 0 min 0,000 mm 0,0 UV-I 0 W/m 6,3 C 7,7 C 1,6 km/h (1 Bft) 91,67 %
30.03.2016 04:07 7,7 C 91 % 1014,0 hPa 0,0 l/m 1,9 km/h (1 Bft) S 175 0 min 0,000 mm 0,0 UV-I 0 W/m 6,3 C 7,7 C 4,8 km/h (1 Bft) 96,55 %
30.03.2016 04:08 7,7 C 91 % 1014,1 hPa 0,0 l/m 1,4 km/h (1 Bft) S-SO 167 0 min 0,000 mm 0,0 UV-I 0 W/m 6,3 C 7,7 C 4,8 km/h (1 Bft) 100,00 %
30.03.2016 04:09 7,7 C 91 % 1014,0 hPa 0,0 l/m 2,6 km/h (1 Bft) S-SO 167 0 min 0,000 mm 0,0 UV-I 0 W/m 6,3 C 7,7 C 4,8 km/h (1 Bft) 92,31 %
30.03.2016 04:10 7,7 C 91 % 1013,8 hPa 0,0 l/m 4,0 km/h (1 Bft) S-SO 148 0 min 0,000 mm 0,0 UV-I 0 W/m 6,3 C 7,7 C 6,4 km/h (2 Bft) 100,00 %
30.03.2016 04:11 7,6 C 91 % 1013,8 hPa 0,0 l/m 3,3 km/h (1 Bft) S-SO 149 0 min 0,000 mm 0,0 UV-I 0 W/m 6,2 C 7,6 C 4,8 km/h (1 Bft) 95,65 %
30.03.2016 04:12 7,6 C 91 % 1013,8 hPa 0,0 l/m 4,0 km/h (1 Bft) SO 140 0 min 0,000 mm 0,0 UV-I 0 W/m 6,2 C 7,6 C 4,8 km/h (1 Bft) 100,00 %
30.03.2016 04:13 7,5 C 91 % 1013,8 hPa 0,0 l/m 1,2 km/h (1 Bft) SO 140 0 min 0,000 mm 0,0 UV-I 0 W/m 6,1 C 7,5 C 3,2 km/h (1 Bft) 95,65 %
30.03.2016 04:14 7,4 C 92 % 1013,9 hPa 0,0 l/m 1,2 km/h (1 Bft) SO 140 0 min 0,000 mm 0,0 UV-I 0 W/m 6,2 C 7,4 C 1,6 km/h (1 Bft) 100,00 %
30.03.2016 04:15 7,4 C 92 % 1014,0 hPa 0,0 l/m 3,5 km/h (1 Bft) S-SO 166 0 min 0,000 mm 0,0 UV-I 0 W/m 6,2 C 7,4 C 6,4 km/h (2 Bft) 93,10 %
30.03.2016 04:16 7,4 C 92 % 1013,9 hPa 0,0 l/m 2,3 km/h (1 Bft) S-SO 166 0 min 0,000 mm 0,0 UV-I 0 W/m 6,2 C 7,4 C 4,8 km/h (1 Bft) 96,30 %
30.03.2016 04:17 7,3 C 92 % 1014,0 hPa 0,0 l/m 1,0 km/h (0 Bft) S-SO 166 0 min 0,000 mm 0,0 UV-I 0 W/m 6,1 C 7,3 C 1,6 km/h (1 Bft) 100,00 %
30.03.2016 04:18 7,3 C 92 % 1014,0 hPa 0,0 l/m 1,9 km/h (1 Bft) S-SO 166 0 min 0,000 mm 0,0 UV-I 0 W/m 6,1 C 7,3 C 4,8 km/h (1 Bft) 91,67 %
30.03.2016 04:19 7,3 C 92 % 1013,9 hPa 0,0 l/m 1,5 km/h (1 Bft) S-SO 166 0 min 0,000 mm 0,0 UV-I 0 W/m 6,1 C 7,3 C 4,8 km/h (1 Bft) 100,00 %
30.03.2016 04:20 7,3 C 92 % 1013,9 hPa 0,0 l/m 0,8 km/h (0 Bft) S-SO 166 0 min 0,000 mm 0,0 UV-I 0 W/m 6,1 C 7,3 C 1,6 km/h (1 Bft) 95,83 %
30.03.2016 04:21 7,3 C 92 % 1013,9 hPa 0,0 l/m 1,6 km/h (1 Bft) S-SO 166 0 min 0,000 mm 0,0 UV-I 0 W/m 6,1 C 7,3 C 4,8 km/h (1 Bft) 100,00 %
30.03.2016 04:22 7,3 C 92 % 1013,7 hPa 0,0 l/m 2,0 km/h (1 Bft) S-SO 164 0 min 0,000 mm 0,0 UV-I 0 W/m 6,1 C 7,3 C 4,8 km/h (1 Bft) 96,15 %
30.03.2016 04:23 7,3 C 92 % 1013,7 hPa 0,0 l/m 1,3 km/h (1 Bft) S-SO 163 0 min 0,000 mm 0,0 UV-I 0 W/m 6,1 C 7,3 C 3,2 km/h (1 Bft) 95,83 %
30.03.2016 04:24 7,3 C 92 % 1013,8 hPa 0,0 l/m 3,0 km/h (1 Bft) S-SO 154 0 min 0,000 mm 0,0 UV-I 0 W/m 6,1 C 7,3 C 6,4 km/h (2 Bft) 100,00 %
30.03.2016 04:25 7,4 C 92 % 1013,7 hPa 0,0 l/m 2,7 km/h (1 Bft) S-SO 148 0 min 0,000 mm 0,0 UV-I 0 W/m 6,2 C 7,4 C 4,8 km/h (1 Bft) 95,83 %
30.03.2016 04:26 7,4 C 92 % 1013,7 hPa 0,0 l/m 3,8 km/h (1 Bft) SO 145 0 min 0,000 mm 0,0 UV-I 0 W/m 6,2 C 7,4 C 4,8 km/h (1 Bft) 100,00 %
30.03.2016 04:27 7,3 C 92 % 1013,6 hPa 0,0 l/m 5,2 km/h (1 Bft) SO 132 0 min 0,000 mm 0,0 UV-I 0 W/m 6,1 C 7,3 C 6,4 km/h (2 Bft) 96,15 %
30.03.2016 04:28 7,3 C 92 % 1013,6 hPa 0,0 l/m 5,6 km/h (1 Bft) SO 134 0 min 0,000 mm 0,0 UV-I 0 W/m 6,1 C 7,3 C 6,4 km/h (2 Bft) 100,00 %
30.03.2016 04:29 7,3 C 92 % 1013,7 hPa 0,0 l/m 5,3 km/h (1 Bft) SO 134 0 min 0,000 mm 0,0 UV-I 0 W/m 6,1 C 7,3 C 6,4 km/h (2 Bft) 96,67 %
30.03.2016 04:30 7,3 C 92 % 1013,7 hPa 0,0 l/m 4,0 km/h (1 Bft) SO 134 0 min 0,000 mm 0,0 UV-I 0 W/m 6,1 C 7,3 C 4,8 km/h (1 Bft) 96,55 %
30.03.2016 04:31 7,3 C 92 % 1013,6 hPa 0,0 l/m 2,9 km/h (1 Bft) SO 141 0 min 0,000 mm 0,0 UV-I 0 W/m 6,1 C 7,3 C 4,8 km/h (1 Bft) 100,00 %
30.03.2016 04:32 7,2 C 92 % 1013,6 hPa 0,0 l/m 1,9 km/h (1 Bft) SO 141 0 min 0,000 mm 0,0 UV-I 0 W/m 6,0 C 7,2 C 3,2 km/h (1 Bft) 95,65 %
30.03.2016 04:33 7,2 C 92 % 1013,6 hPa 0,0 l/m 1,1 km/h (1 Bft) SO 141 0 min 0,000 mm 0,0 UV-I 0 W/m 6,0 C 7,2 C 3,2 km/h (1 Bft) 95,83 %
30.03.2016 04:34 7,1 C 93 % 1013,6 hPa 0,0 l/m 0,1 km/h (0 Bft) SO 141 0 min 0,000 mm 0,0 UV-I 0 W/m 6,0 C 7,1 C 1,6 km/h (1 Bft) 90,91 %
30.03.2016 04:35 7,1 C 93 % 1013,6 hPa 0,0 l/m 0,1 km/h (0 Bft) SO 141 0 min 0,000 mm 0,0 UV-I 0 W/m 6,0 C 7,1 C 1,6 km/h (1 Bft) 96,30 %
30.03.2016 04:36 7,1 C 93 % 1013,7 hPa 0,0 l/m 0,3 km/h (0 Bft) SO 141 0 min 0,000 mm 0,0 UV-I 0 W/m 6,0 C 7,1 C 1,6 km/h (1 Bft) 95,65 %
30.03.2016 04:37 7,0 C 93 % 1013,7 hPa 0,0 l/m 1,3 km/h (1 Bft) SO 141 0 min 0,000 mm 0,0 UV-I 0 W/m 5,9 C 7,0 C 1,6 km/h (1 Bft) 100,00 %
30.03.2016 04:38 7,0 C 93 % 1013,6 hPa 0,0 l/m 0,7 km/h (0 Bft) SO 141 0 min 0,000 mm 0,0 UV-I 0 W/m 5,9 C 7,0 C 1,6 km/h (1 Bft) 96,15 %
30.03.2016 04:39 7,0 C 93 % 1013,6 hPa 0,0 l/m 0,0 km/h (0 Bft) SO 141 0 min 0,000 mm 0,0 UV-I 0 W/m 5,9 C 7,0 C 0,0 km/h (0 Bft) 96,30 %
30.03.2016 04:40 7,0 C 93 % 1013,6 hPa 0,0 l/m 0,3 km/h (0 Bft) SO 141 0 min 0,000 mm 0,0 UV-I 0 W/m 5,9 C 7,0 C 1,6 km/h (1 Bft) 100,00 %
30.03.2016 04:41 7,0 C 93 % 1013,6 hPa 0,0 l/m 2,0 km/h (1 Bft) SO 141 0 min 0,000 mm 0,0 UV-I 0 W/m 5,9 C 7,0 C 3,2 km/h (1 Bft) 100,00 %
30.03.2016 04:42 7,0 C 93 % 1013,6 hPa 0,0 l/m 1,9 km/h (1 Bft) SO 141 0 min 0,000 mm 0,0 UV-I 0 W/m 5,9 C 7,0 C 3,2 km/h (1 Bft) 96,15 %
30.03.2016 04:43 6,9 C 93 % 1013,6 hPa 0,0 l/m 1,9 km/h (1 Bft) SO 141 0 min 0,000 mm 0,0 UV-I 0 W/m 5,8 C 6,9 C 3,2 km/h (1 Bft) 96,30 %
30.03.2016 04:44 6,9 C 93 % 1013,5 hPa 0,0 l/m 2,8 km/h (1 Bft) SO 140 0 min 0,000 mm 0,0 UV-I 0 W/m 5,8 C 6,9 C 3,2 km/h (1 Bft) 93,33 %
30.03.2016 04:45 6,9 C 93 % 1013,5 hPa 0,0 l/m 2,8 km/h (1 Bft) O-SO 113 0 min 0,000 mm 0,0 UV-I 0 W/m 5,8 C 6,9 C 4,8 km/h (1 Bft) 95,65 %
30.03.2016 04:46 6,8 C 93 % 1013,6 hPa 0,0 l/m 3,3 km/h (1 Bft) NO 49 0 min 0,000 mm 0,0 UV-I 0 W/m 5,7 C 6,8 C 4,8 km/h (1 Bft) 100,00 %
30.03.2016 04:47 6,8 C 93 % 1013,6 hPa 0,0 l/m 2,8 km/h (1 Bft) NO 46 0 min 0,000 mm 0,0 UV-I 0 W/m 5,7 C 6,8 C 3,2 km/h (1 Bft) 100,00 %
30.03.2016 04:48 6,8 C 93 % 1013,6 hPa 0,0 l/m 4,4 km/h (1 Bft) NO 42 0 min 0,000 mm 0,0 UV-I 0 W/m 5,7 C 6,8 C 4,8 km/h (1 Bft) 95,83 %
30.03.2016 04:49 6,7 C 93 % 1013,6 hPa 0,0 l/m 3,8 km/h (1 Bft) NO 42 0 min 0,000 mm 0,0 UV-I 0 W/m 5,6 C 6,7 C 4,8 km/h (1 Bft) 95,65 %
30.03.2016 04:50 6,7 C 94 % 1013,6 hPa 0,0 l/m 3,9 km/h (1 Bft) NO 42 0 min 0,000 mm 0,0 UV-I 0 W/m 5,8 C 6,7 C 4,8 km/h (1 Bft) 100,00 %
30.03.2016 04:51 6,7 C 94 % 1013,6 hPa 0,0 l/m 3,6 km/h (1 Bft) NO 42 0 min 0,000 mm 0,0 UV-I 0 W/m 5,8 C 6,7 C 4,8 km/h (1 Bft) 100,00 %
30.03.2016 04:52 6,7 C 94 % 1013,6 hPa 0,0 l/m 3,9 km/h (1 Bft) NO 42 0 min 0,000 mm 0,0 UV-I 0 W/m 5,8 C 6,7 C 4,8 km/h (1 Bft) 96,30 %
30.03.2016 04:53 6,7 C 94 % 1013,6 hPa 0,0 l/m 3,3 km/h (1 Bft) NO 42 0 min 0,000 mm 0,0 UV-I 0 W/m 5,8 C 6,7 C 4,8 km/h (1 Bft) 96,15 %
30.03.2016 04:54 6,7 C 94 % 1013,6 hPa 0,0 l/m 3,5 km/h (1 Bft) NO 42 0 min 0,000 mm 0,0 UV-I 0 W/m 5,8 C 6,7 C 4,8 km/h (1 Bft) 100,00 %
30.03.2016 04:55 6,7 C 94 % 1013,6 hPa 0,0 l/m 1,9 km/h (1 Bft) NO 42 0 min 0,000 mm 0,0 UV-I 0 W/m 5,8 C 6,7 C 3,2 km/h (1 Bft) 95,65 %
30.03.2016 04:56 6,7 C 94 % 1013,7 hPa 0,0 l/m 2,5 km/h (1 Bft) NO 42 0 min 0,000 mm 0,0 UV-I 0 W/m 5,8 C 6,7 C 4,8 km/h (1 Bft) 96,30 %
30.03.2016 04:57 6,7 C 94 % 1013,7 hPa 0,0 l/m 2,3 km/h (1 Bft) NO 42 0 min 0,000 mm 0,0 UV-I 0 W/m 5,8 C 6,7 C 3,2 km/h (1 Bft) 100,00 %
30.03.2016 04:58 6,7 C 94 % 1013,7 hPa 0,0 l/m 2,0 km/h (1 Bft) NO 42 0 min 0,000 mm 0,0 UV-I 0 W/m 5,8 C 6,7 C 3,2 km/h (1 Bft) 100,00 %
30.03.2016 04:59 6,7 C 94 % 1013,7 hPa 0,0 l/m 1,8 km/h (1 Bft) NO 42 0 min 0,000 mm 0,0 UV-I 0 W/m 5,8 C 6,7 C 3,2 km/h (1 Bft) 100,00 %
30.03.2016 05:00 6,7 C 94 % 1013,7 hPa 0,0 l/m 2,0 km/h (1 Bft) NO 42 0 min 0,000 mm 0,0 UV-I 0 W/m 5,8 C 6,7 C 3,2 km/h (1 Bft) 100,00 %
30.03.2016 05:02 6,7 C 94 % 1013,6 hPa 0,0 l/m 1,6 km/h (1 Bft) NO 42 0 min 0,000 mm 0,0 UV-I 0 W/m 5,8 C 6,7 C 3,2 km/h (1 Bft) 97,37 %
30.03.2016 05:03 6,7 C 94 % 1013,6 hPa 0,0 l/m 3,6 km/h (1 Bft) NO 42 0 min 0,000 mm 0,0 UV-I 0 W/m 5,8 C 6,7 C 4,8 km/h (1 Bft) 100,00 %
30.03.2016 05:04 6,7 C 94 % 1013,5 hPa 0,0 l/m 5,6 km/h (1 Bft) NO 39 0 min 0,000 mm 0,0 UV-I 0 W/m 5,8 C 6,7 C 6,4 km/h (2 Bft) 100,00 %
30.03.2016 05:05 6,7 C 94 % 1013,4 hPa 0,0 l/m 6,0 km/h (2 Bft) N-NO 26 0 min 0,000 mm 0,0 UV-I 0 W/m 5,8 C 6,7 C 8,0 km/h (2 Bft) 100,00 %
30.03.2016 05:06 6,7 C 94 % 1013,4 hPa 0,0 l/m 7,0 km/h (2 Bft) N-NO 15 0 min 0,000 mm 0,0 UV-I 0 W/m 5,8 C 6,2 C 9,7 km/h (2 Bft) 100,00 %
30.03.2016 05:07 6,6 C 94 % 1013,4 hPa 0,0 l/m 6,4 km/h (2 Bft) NO 41 0 min 0,000 mm 0,0 UV-I 0 W/m 5,7 C 6,6 C 9,7 km/h (2 Bft) 100,00 %
30.03.2016 05:08 6,6 C 94 % 1013,4 hPa 0,0 l/m 5,2 km/h (1 Bft) N-NO 26 0 min 0,000 mm 0,0 UV-I 0 W/m 5,7 C 6,6 C 8,0 km/h (2 Bft) 100,00 %
30.03.2016 05:09 6,6 C 94 % 1013,4 hPa 0,0 l/m 5,5 km/h (1 Bft) NO 45 0 min 0,000 mm 0,0 UV-I 0 W/m 5,7 C 6,6 C 6,4 km/h (2 Bft) 100,00 %
30.03.2016 05:10 6,6 C 95 % 1013,5 hPa 0,0 l/m 5,1 km/h (1 Bft) N-NO 30 0 min 0,000 mm 0,0 UV-I 0 W/m 5,9 C 6,6 C 6,4 km/h (2 Bft) 100,00 %
30.03.2016 05:11 6,6 C 95 % 1013,5 hPa 0,0 l/m 5,3 km/h (1 Bft) N-NO 23 0 min 0,000 mm 0,0 UV-I 0 W/m 5,9 C 6,6 C 6,4 km/h (2 Bft) 100,00 %
30.03.2016 05:12 6,6 C 95 % 1013,5 hPa 0,0 l/m 4,6 km/h (1 Bft) N-NO 21 0 min 0,000 mm 0,0 UV-I 0 W/m 5,9 C 6,6 C 6,4 km/h (2 Bft) 100,00 %
30.03.2016 05:13 6,6 C 95 % 1013,6 hPa 0,0 l/m 3,2 km/h (1 Bft) N-NO 19 0 min 0,000 mm 0,0 UV-I 0 W/m 5,9 C 6,6 C 6,4 km/h (2 Bft) 100,00 %
30.03.2016 05:14 6,5 C 95 % 1013,6 hPa 0,0 l/m 2,3 km/h (1 Bft) N-NO 19 0 min 0,000 mm 0,0 UV-I 0 W/m 5,8 C 6,5 C 3,2 km/h (1 Bft) 100,00 %
30.03.2016 05:15 6,5 C 95 % 1013,7 hPa 0,0 l/m 2,3 km/h (1 Bft) N-NO 19 0 min 0,000 mm 0,0 UV-I 0 W/m 5,8 C 6,5 C 3,2 km/h (1 Bft) 95,83 %
30.03.2016 05:16 6,4 C 95 % 1013,7 hPa 0,0 l/m 1,0 km/h (0 Bft) N-NO 19 0 min 0,000 mm 0,0 UV-I 0 W/m 5,7 C 6,4 C 3,2 km/h (1 Bft) 100,00 %
30.03.2016 05:17 6,4 C 95 % 1013,7 hPa 0,0 l/m 0,1 km/h (0 Bft) N-NO 19 0 min 0,000 mm 0,0 UV-I 0 W/m 5,7 C 6,4 C 1,6 km/h (1 Bft) 100,00 %
30.03.2016 05:18 6,4 C 95 % 1013,8 hPa 0,0 l/m 1,0 km/h (0 Bft) N-NO 19 0 min 0,000 mm 0,0 UV-I 0 W/m 5,7 C 6,4 C 1,6 km/h (1 Bft) 100,00 %
30.03.2016 05:19 6,4 C 95 % 1013,8 hPa 0,0 l/m 1,0 km/h (0 Bft) N-NO 19 0 min 0,000 mm 0,0 UV-I 0 W/m 5,7 C 6,4 C 1,6 km/h (1 Bft) 100,00 %
30.03.2016 05:20 6,4 C 95 % 1013,8 hPa 0,0 l/m 0,7 km/h (0 Bft) N-NO 19 0 min 0,000 mm 0,0 UV-I 0 W/m 5,7 C 6,4 C 1,6 km/h (1 Bft) 100,00 %
30.03.2016 05:21 6,3 C 95 % 1013,9 hPa 0,0 l/m 0,5 km/h (0 Bft) N-NO 19 0 min 0,000 mm 0,0 UV-I 0 W/m 5,6 C 6,3 C 1,6 km/h (1 Bft) 100,00 %
30.03.2016 05:22 6,3 C 95 % 1013,8 hPa 0,0 l/m 0,2 km/h (0 Bft) N-NO 19 0 min 0,000 mm 0,0 UV-I 0 W/m 5,6 C 6,3 C 1,6 km/h (1 Bft) 100,00 %
30.03.2016 05:23 6,3 C 95 % 1013,8 hPa 0,0 l/m 1,5 km/h (1 Bft) N 9 0 min 0,000 mm 0,0 UV-I 0 W/m 5,6 C 6,3 C 6,4 km/h (2 Bft) 96,30 %
30.03.2016 05:24 6,3 C 95 % 1013,8 hPa 0,0 l/m 3,0 km/h (1 Bft) N 5 0 min 0,000 mm 0,0 UV-I 0 W/m 5,6 C 6,3 C 6,4 km/h (2 Bft) 100,00 %
30.03.2016 05:25 6,3 C 95 % 1013,8 hPa 0,0 l/m 1,4 km/h (1 Bft) N 9 0 min 0,000 mm 0,0 UV-I 0 W/m 5,6 C 6,3 C 3,2 km/h (1 Bft) 100,00 %
30.03.2016 05:26 6,3 C 95 % 1013,9 hPa 0,0 l/m 3,0 km/h (1 Bft) N 11 0 min 0,000 mm 0,0 UV-I 0 W/m 5,6 C 6,3 C 4,8 km/h (1 Bft) 100,00 %
30.03.2016 05:27 6,3 C 95 % 1013,9 hPa 0,0 l/m 1,9 km/h (1 Bft) N 11 0 min 0,000 mm 0,0 UV-I 0 W/m 5,6 C 6,3 C 4,8 km/h (1 Bft) 100,00 %
30.03.2016 05:28 6,4 C 96 % 1013,9 hPa 0,0 l/m 0,6 km/h (0 Bft) N 11 0 min 0,000 mm 0,0 UV-I 0 W/m 5,8 C 6,4 C 1,6 km/h (1 Bft) 100,00 %
30.03.2016 05:29 6,4 C 95 % 1013,9 hPa 0,0 l/m 1,5 km/h (1 Bft) N 11 0 min 0,000 mm 0,0 UV-I 0 W/m 5,7 C 6,4 C 3,2 km/h (1 Bft) 96,88 %
30.03.2016 05:30 6,4 C 95 % 1013,9 hPa 0,0 l/m 2,1 km/h (1 Bft) N 11 0 min 0,000 mm 0,0 UV-I 0 W/m 5,7 C 6,4 C 3,2 km/h (1 Bft) 100,00 %
30.03.2016 05:31 6,4 C 95 % 1013,8 hPa 0,0 l/m 3,6 km/h (1 Bft) N 11 0 min 0,000 mm 0,0 UV-I 0 W/m 5,7 C 6,4 C 4,8 km/h (1 Bft) 100,00 %
30.03.2016 05:32 6,4 C 95 % 1013,7 hPa 0,0 l/m 4,7 km/h (1 Bft) N-NO 26 0 min 0,000 mm 0,0 UV-I 0 W/m 5,7 C 6,4 C 6,4 km/h (2 Bft) 88,89 %
30.03.2016 05:33 6,4 C 95 % 1013,6 hPa 0,0 l/m 5,1 km/h (1 Bft) NO 45 0 min 0,000 mm 0,0 UV-I 0 W/m 5,7 C 6,4 C 6,4 km/h (2 Bft) 100,00 %
30.03.2016 05:34 6,4 C 95 % 1013,6 hPa 0,0 l/m 5,8 km/h (2 Bft) N-NO 32 0 min 0,000 mm 0,0 UV-I 0 W/m 5,7 C 6,4 C 8,0 km/h (2 Bft) 100,00 %
30.03.2016 05:35 6,3 C 95 % 1013,5 hPa 0,0 l/m 5,6 km/h (1 Bft) N-NO 29 0 min 0,000 mm 0,0 UV-I 0 W/m 5,6 C 6,3 C 8,0 km/h (2 Bft) 100,00 %
30.03.2016 05:36 6,3 C 95 % 1013,5 hPa 0,0 l/m 6,1 km/h (2 Bft) NO 37 0 min 0,000 mm 0,0 UV-I 0 W/m 5,6 C 6,3 C 8,0 km/h (2 Bft) 100,00 %
30.03.2016 05:37 6,3 C 95 % 1013,5 hPa 0,0 l/m 6,3 km/h (2 Bft) NO 41 0 min 0,000 mm 0,0 UV-I 0 W/m 5,6 C 6,3 C 8,0 km/h (2 Bft) 100,00 %
30.03.2016 05:38 6,3 C 95 % 1013,4 hPa 0,0 l/m 6,0 km/h (2 Bft) NO 44 0 min 0,000 mm 0,0 UV-I 0 W/m 5,6 C 6,3 C 6,4 km/h (2 Bft) 100,00 %
30.03.2016 05:39 6,3 C 96 % 1013,4 hPa 0,0 l/m 4,8 km/h (1 Bft) NO 45 0 min 0,000 mm 0,0 UV-I 0 W/m 5,7 C 6,3 C 6,4 km/h (2 Bft) 100,00 %
30.03.2016 05:40 6,3 C 96 % 1013,4 hPa 0,0 l/m 5,2 km/h (1 Bft) NO 55 0 min 0,000 mm 0,0 UV-I 0 W/m 5,7 C 6,3 C 6,4 km/h (2 Bft) 100,00 %
30.03.2016 05:41 6,3 C 96 % 1013,4 hPa 0,0 l/m 5,3 km/h (1 Bft) NO 53 0 min 0,000 mm 0,0 UV-I 0 W/m 5,7 C 6,3 C 6,4 km/h (2 Bft) 96,15 %
30.03.2016 05:42 6,3 C 96 % 1013,3 hPa 0,0 l/m 5,7 km/h (1 Bft) NO 51 0 min 0,000 mm 0,0 UV-I 0 W/m 5,7 C 6,3 C 8,0 km/h (2 Bft) 100,00 %
30.03.2016 05:43 6,3 C 96 % 1013,4 hPa 0,0 l/m 4,1 km/h (1 Bft) NO 52 0 min 0,000 mm 0,0 UV-I 0 W/m 5,7 C 6,3 C 6,4 km/h (2 Bft) 100,00 %
30.03.2016 05:44 6,3 C 96 % 1013,4 hPa 0,0 l/m 3,6 km/h (1 Bft) NO 52 0 min 0,000 mm 0,0 UV-I 0 W/m 5,7 C 6,3 C 4,8 km/h (1 Bft) 100,00 %
30.03.2016 05:45 6,3 C 96 % 1013,5 hPa 0,0 l/m 2,5 km/h (1 Bft) NO 52 0 min 0,000 mm 0,0 UV-I 0 W/m 5,7 C 6,3 C 4,8 km/h (1 Bft) 100,00 %
30.03.2016 05:46 6,3 C 96 % 1013,5 hPa 0,0 l/m 2,3 km/h (1 Bft) NO 52 0 min 0,000 mm 0,0 UV-I 0 W/m 5,7 C 6,3 C 3,2 km/h (1 Bft) 95,65 %
30.03.2016 05:47 6,3 C 96 % 1013,5 hPa 0,0 l/m 2,5 km/h (1 Bft) NO 52 0 min 0,000 mm 0,0 UV-I 0 W/m 5,7 C 6,3 C 3,2 km/h (1 Bft) 100,00 %
30.03.2016 05:48 6,3 C 96 % 1013,5 hPa 0,0 l/m 2,4 km/h (1 Bft) NO 52 0 min 0,000 mm 0,0 UV-I 0 W/m 5,7 C 6,3 C 3,2 km/h (1 Bft) 100,00 %
30.03.2016 05:49 6,2 C 96 % 1013,5 hPa 0,0 l/m 4,0 km/h (1 Bft) NO 52 0 min 0,000 mm 0,0 UV-I 0 W/m 5,6 C 6,2 C 4,8 km/h (1 Bft) 100,00 %
30.03.2016 05:50 6,2 C 95 % 1013,5 hPa 0,0 l/m 3,6 km/h (1 Bft) NO 52 0 min 0,000 mm 0,0 UV-I 0 W/m 5,5 C 6,2 C 4,8 km/h (1 Bft) 100,00 %
30.03.2016 05:51 6,2 C 95 % 1013,6 hPa 0,0 l/m 3,4 km/h (1 Bft) NO 52 0 min 0,000 mm 0,0 UV-I 0 W/m 5,5 C 6,2 C 4,8 km/h (1 Bft) 100,00 %
30.03.2016 05:52 6,1 C 96 % 1013,6 hPa 0,0 l/m 3,0 km/h (1 Bft) NO 52 0 min 0,000 mm 0,0 UV-I 0 W/m 5,5 C 6,1 C 3,2 km/h (1 Bft) 100,00 %
30.03.2016 05:53 6,1 C 96 % 1013,6 hPa 0,0 l/m 3,1 km/h (1 Bft) NO 52 0 min 0,000 mm 0,0 UV-I 0 W/m 5,5 C 6,1 C 3,2 km/h (1 Bft) 100,00 %
30.03.2016 05:54 6,1 C 96 % 1013,7 hPa 0,0 l/m 2,6 km/h (1 Bft) NO 52 0 min 0,000 mm 0,0 UV-I 0 W/m 5,5 C 6,1 C 3,2 km/h (1 Bft) 100,00 %
30.03.2016 05:55 6,1 C 96 % 1013,6 hPa 0,0 l/m 3,4 km/h (1 Bft) NO 52 0 min 0,000 mm 0,0 UV-I 0 W/m 5,5 C 6,1 C 4,8 km/h (1 Bft) 100,00 %
30.03.2016 05:56 6,1 C 96 % 1013,6 hPa 0,0 l/m 3,4 km/h (1 Bft) NO 52 0 min 0,000 mm 0,0 UV-I 0 W/m 5,5 C 6,1 C 4,8 km/h (1 Bft) 100,00 %
30.03.2016 05:57 6,1 C 96 % 1013,7 hPa 0,0 l/m 3,4 km/h (1 Bft) NO 52 0 min 0,000 mm 0,0 UV-I 0 W/m 5,5 C 6,1 C 4,8 km/h (1 Bft) 100,00 %
30.03.2016 05:58 6,1 C 96 % 1013,6 hPa 0,0 l/m 3,3 km/h (1 Bft) NO 52 0 min 0,000 mm 0,0 UV-I 0 W/m 5,5 C 6,1 C 4,8 km/h (1 Bft) 95,65 %
30.03.2016 05:59 6,1 C 96 % 1013,7 hPa 0,0 l/m 3,5 km/h (1 Bft) NO 51 0 min 0,000 mm 0,0 UV-I 0 W/m 5,5 C 6,1 C 4,8 km/h (1 Bft) 100,00 %
30.03.2016 06:00 6,0 C 96 % 1013,7 hPa 0,0 l/m 3,8 km/h (1 Bft) NO 51 0 min 0,000 mm 0,0 UV-I 0 W/m 5,4 C 6,0 C 4,8 km/h (1 Bft) 100,00 %
30.03.2016 06:02 6,0 C 96 % 1013,7 hPa 0,0 l/m 4,1 km/h (1 Bft) NO 51 0 min 0,000 mm 0,0 UV-I 0 W/m 5,4 C 6,0 C 6,4 km/h (2 Bft) 97,92 %
30.03.2016 06:03 6,0 C 96 % 1013,6 hPa 0,0 l/m 4,7 km/h (1 Bft) NO 51 0 min 0,000 mm 0,0 UV-I 0 W/m 5,4 C 6,0 C 6,4 km/h (2 Bft) 95,65 %
30.03.2016 06:04 6,0 C 96 % 1013,6 hPa 0,0 l/m 3,9 km/h (1 Bft) NO 51 0 min 0,000 mm 0,0 UV-I 0 W/m 5,4 C 6,0 C 6,4 km/h (2 Bft) 100,00 %
30.03.2016 06:05 6,0 C 96 % 1013,6 hPa 0,0 l/m 4,8 km/h (1 Bft) NO 51 0 min 0,000 mm 0,0 UV-I 0 W/m 5,4 C 6,0 C 6,4 km/h (2 Bft) 100,00 %
30.03.2016 06:06 6,0 C 96 % 1013,6 hPa 0,0 l/m 3,6 km/h (1 Bft) NO 51 0 min 0,000 mm 0,0 UV-I 0 W/m 5,4 C 6,0 C 4,8 km/h (1 Bft) 100,00 %
30.03.2016 06:07 6,1 C 96 % 1013,6 hPa 0,0 l/m 4,2 km/h (1 Bft) NO 51 0 min 0,000 mm 0,0 UV-I 0 W/m 5,5 C 6,1 C 4,8 km/h (1 Bft) 100,00 %
30.03.2016 06:08 6,1 C 96 % 1013,6 hPa 0,0 l/m 3,0 km/h (1 Bft) NO 51 0 min 0,000 mm 0,0 UV-I 0 W/m 5,5 C 6,1 C 4,8 km/h (1 Bft) 100,00 %
30.03.2016 06:09 6,1 C 96 % 1013,7 hPa 0,0 l/m 3,5 km/h (1 Bft) NO 51 0 min 0,000 mm 0,0 UV-I 0 W/m 5,5 C 6,1 C 4,8 km/h (1 Bft) 96,15 %
30.03.2016 06:10 6,0 C 96 % 1013,7 hPa 0,0 l/m 3,1 km/h (1 Bft) NO 51 0 min 0,000 mm 0,0 UV-I 0 W/m 5,4 C 6,0 C 4,8 km/h (1 Bft) 100,00 %
30.03.2016 06:11 6,0 C 96 % 1013,6 hPa 0,0 l/m 3,4 km/h (1 Bft) NO 51 0 min 0,000 mm 0,0 UV-I 0 W/m 5,4 C 6,0 C 4,8 km/h (1 Bft) 91,30 %
30.03.2016 06:12 6,0 C 96 % 1013,6 hPa 0,0 l/m 3,4 km/h (1 Bft) NO 51 0 min 0,000 mm 0,0 UV-I 0 W/m 5,4 C 6,0 C 4,8 km/h (1 Bft) 100,00 %
30.03.2016 06:13 5,9 C 96 % 1013,6 hPa 0,0 l/m 4,2 km/h (1 Bft) NO 51 0 min 0,000 mm 0,0 UV-I 0 W/m 5,3 C 5,9 C 4,8 km/h (1 Bft) 96,15 %
30.03.2016 06:14 5,9 C 96 % 1013,6 hPa 0,0 l/m 3,8 km/h (1 Bft) NO 51 0 min 0,000 mm 0,0 UV-I 0 W/m 5,3 C 5,9 C 4,8 km/h (1 Bft) 96,30 %
30.03.2016 06:15 5,9 C 96 % 1013,6 hPa 0,0 l/m 3,9 km/h (1 Bft) NO 51 0 min 0,000 mm 0,0 UV-I 0 W/m 5,3 C 5,9 C 4,8 km/h (1 Bft) 100,00 %
30.03.2016 06:16 5,9 C 96 % 1013,6 hPa 0,0 l/m 3,5 km/h (1 Bft) NO 51 0 min 0,000 mm 0,0 UV-I 0 W/m 5,3 C 5,9 C 4,8 km/h (1 Bft) 91,67 %
30.03.2016 06:17 5,9 C 96 % 1013,5 hPa 0,0 l/m 4,3 km/h (1 Bft) NO 55 0 min 0,000 mm 0,0 UV-I 0 W/m 5,3 C 5,9 C 6,4 km/h (2 Bft) 100,00 %
30.03.2016 06:18 5,9 C 96 % 1013,5 hPa 0,0 l/m 5,0 km/h (1 Bft) NO 55 0 min 0,000 mm 0,0 UV-I 0 W/m 5,3 C 5,9 C 6,4 km/h (2 Bft) 96,43 %
30.03.2016 06:19 5,9 C 96 % 1013,5 hPa 0,0 l/m 6,4 km/h (2 Bft) O-NO 63 0 min 0,000 mm 0,0 UV-I 0 W/m 5,3 C 5,9 C 8,0 km/h (2 Bft) 100,00 %
30.03.2016 06:20 5,9 C 96 % 1013,5 hPa 0,0 l/m 4,9 km/h (1 Bft) NO 52 0 min 0,000 mm 0,0 UV-I 0 W/m 5,3 C 5,9 C 6,4 km/h (2 Bft) 95,83 %
30.03.2016 06:21 6,0 C 96 % 1013,5 hPa 0,0 l/m 4,3 km/h (1 Bft) O-NO 66 0 min 0,000 mm 0,0 UV-I 0 W/m 5,4 C 6,0 C 6,4 km/h (2 Bft) 100,00 %
30.03.2016 06:22 6,0 C 96 % 1013,5 hPa 0,0 l/m 4,7 km/h (1 Bft) O-NO 68 0 min 0,000 mm 0,0 UV-I 0 W/m 5,4 C 6,0 C 6,4 km/h (2 Bft) 91,67 %
30.03.2016 06:23 6,0 C 96 % 1013,5 hPa 0,0 l/m 5,2 km/h (1 Bft) O-NO 70 0 min 0,000 mm 0,0 UV-I 0 W/m 5,4 C 6,0 C 6,4 km/h (2 Bft) 92,11 %
30.03.2016 06:24 6,0 C 96 % 1013,5 hPa 0,0 l/m 4,7 km/h (1 Bft) O-NO 73 0 min 0,000 mm 0,0 UV-I 0 W/m 5,4 C 6,0 C 6,4 km/h (2 Bft) 100,00 %
30.03.2016 06:25 6,0 C 96 % 1013,5 hPa 0,0 l/m 6,0 km/h (2 Bft) O-NO 72 0 min 0,000 mm 0,0 UV-I 0 W/m 5,4 C 6,0 C 6,4 km/h (2 Bft) 100,00 %
30.03.2016 06:26 6,0 C 96 % 1013,6 hPa 0,0 l/m 4,8 km/h (1 Bft) O-NO 72 0 min 0,000 mm 0,0 UV-I 0 W/m 5,4 C 6,0 C 6,4 km/h (2 Bft) 96,15 %
30.03.2016 06:27 6,0 C 96 % 1013,6 hPa 0,0 l/m 4,2 km/h (1 Bft) O-NO 71 0 min 0,000 mm 0,0 UV-I 0 W/m 5,4 C 6,0 C 4,8 km/h (1 Bft) 95,83 %
30.03.2016 06:28 6,0 C 96 % 1013,6 hPa 0,0 l/m 5,1 km/h (1 Bft) O-NO 64 0 min 0,000 mm 0,0 UV-I 0 W/m 5,4 C 6,0 C 6,4 km/h (2 Bft) 100,00 %
30.03.2016 06:29 5,9 C 96 % 1013,6 hPa 0,0 l/m 4,2 km/h (1 Bft) O-NO 72 0 min 0,000 mm 0,0 UV-I 0 W/m 5,3 C 5,9 C 4,8 km/h (1 Bft) 95,83 %
30.03.2016 06:30 5,9 C 96 % 1013,6 hPa 0,0 l/m 4,0 km/h (1 Bft) O-NO 69 0 min 0,000 mm 0,0 UV-I 0 W/m 5,3 C 5,9 C 4,8 km/h (1 Bft) 100,00 %
30.03.2016 06:31 5,9 C 96 % 1013,6 hPa 0,0 l/m 4,4 km/h (1 Bft) O-NO 69 0 min 0,000 mm 0,0 UV-I 0 W/m 5,3 C 5,9 C 6,4 km/h (2 Bft) 91,67 %
30.03.2016 06:32 6,0 C 96 % 1013,6 hPa 0,0 l/m 4,7 km/h (1 Bft) O-NO 69 0 min 0,000 mm 0,0 UV-I 0 W/m 5,4 C 6,0 C 6,4 km/h (2 Bft) 96,15 %
30.03.2016 06:33 6,0 C 96 % 1013,6 hPa 0,0 l/m 4,2 km/h (1 Bft) O-NO 69 0 min 0,000 mm 0,0 UV-I 0 W/m 5,4 C 6,0 C 4,8 km/h (1 Bft) 100,00 %
30.03.2016 06:34 6,0 C 96 % 1013,7 hPa 0,0 l/m 4,1 km/h (1 Bft) NO 55 0 min 0,000 mm 0,0 UV-I 0 W/m 5,4 C 6,0 C 6,4 km/h (2 Bft) 92,31 %
30.03.2016 06:35 6,0 C 96 % 1013,6 hPa 0,0 l/m 4,1 km/h (1 Bft) NO 53 0 min 0,000 mm 0,0 UV-I 0 W/m 5,4 C 6,0 C 6,4 km/h (2 Bft) 100,00 %
30.03.2016 06:36 6,0 C 96 % 1013,6 hPa 0,0 l/m 5,0 km/h (1 Bft) NO 56 0 min 0,000 mm 0,0 UV-I 0 W/m 5,4 C 6,0 C 6,4 km/h (2 Bft) 95,65 %
30.03.2016 06:37 6,0 C 96 % 1013,6 hPa 0,0 l/m 5,2 km/h (1 Bft) NO 55 0 min 0,000 mm 0,0 UV-I 0 W/m 5,4 C 6,0 C 6,4 km/h (2 Bft) 100,00 %
30.03.2016 06:38 6,0 C 96 % 1013,5 hPa 0,0 l/m 4,7 km/h (1 Bft) O-NO 67 0 min 0,000 mm 0,0 UV-I 0 W/m 5,4 C 6,0 C 4,8 km/h (1 Bft) 96,15 %
30.03.2016 06:39 6,0 C 96 % 1013,6 hPa 0,0 l/m 4,4 km/h (1 Bft) O-NO 60 0 min 0,000 mm 0,0 UV-I 0 W/m 5,4 C 6,0 C 4,8 km/h (1 Bft) 100,00 %
30.03.2016 06:40 5,9 C 96 % 1013,5 hPa 0,0 l/m 5,8 km/h (2 Bft) O-NO 58 0 min 0,000 mm 0,0 UV-I 0 W/m 5,3 C 5,9 C 8,0 km/h (2 Bft) 95,65 %
30.03.2016 06:41 5,9 C 96 % 1013,5 hPa 0,0 l/m 5,7 km/h (1 Bft) O-NO 69 0 min 0,000 mm 0,0 UV-I 0 W/m 5,3 C 5,9 C 6,4 km/h (2 Bft) 100,00 %
30.03.2016 06:42 5,9 C 96 % 1013,5 hPa 0,0 l/m 6,4 km/h (2 Bft) O-NO 70 0 min 0,000 mm 0,0 UV-I 0 W/m 5,3 C 5,9 C 8,0 km/h (2 Bft) 96,30 %
30.03.2016 06:43 5,9 C 96 % 1013,5 hPa 0,0 l/m 7,0 km/h (2 Bft) O-NO 67 0 min 0,000 mm 0,0 UV-I 0 W/m 5,3 C 5,4 C 9,7 km/h (2 Bft) 95,65 %
30.03.2016 06:44 5,9 C 96 % 1013,5 hPa 0,0 l/m 6,1 km/h (2 Bft) O-NO 66 0 min 0,000 mm 0,0 UV-I 0 W/m 5,3 C 5,9 C 6,4 km/h (2 Bft) 100,00 %
30.03.2016 06:45 5,9 C 96 % 1013,5 hPa 0,0 l/m 5,8 km/h (2 Bft) O-NO 66 0 min 0,000 mm 0,0 UV-I 0 W/m 5,3 C 5,9 C 8,0 km/h (2 Bft) 91,30 %
30.03.2016 06:46 5,9 C 96 % 1013,5 hPa 0,0 l/m 5,7 km/h (1 Bft) O-NO 72 0 min 0,000 mm 0,0 UV-I 0 W/m 5,3 C 5,9 C 6,4 km/h (2 Bft) 100,00 %
30.03.2016 06:47 5,9 C 96 % 1013,6 hPa 0,0 l/m 5,7 km/h (1 Bft) O-NO 78 0 min 0,000 mm 0,0 UV-I 0 W/m 5,3 C 5,9 C 8,0 km/h (2 Bft) 100,00 %
30.03.2016 06:48 5,8 C 96 % 1013,6 hPa 0,0 l/m 6,1 km/h (2 Bft) O-NO 78 0 min 0,000 mm 0,0 UV-I 3 W/m 5,2 C 5,8 C 8,0 km/h (2 Bft) 95,83 %
30.03.2016 06:49 5,8 C 96 % 1013,6 hPa 0,0 l/m 8,0 km/h (2 Bft) O-NO 73 0 min 0,000 mm 0,0 UV-I 5 W/m 5,2 C 4,4 C 11,3 km/h (2 Bft) 95,65 %
30.03.2016 06:50 5,8 C 96 % 1013,5 hPa 0,0 l/m 9,0 km/h (2 Bft) O-NO 76 0 min 0,000 mm 0,0 UV-I 5 W/m 5,2 C 3,7 C 11,3 km/h (2 Bft) 100,00 %
30.03.2016 06:51 5,8 C 96 % 1013,6 hPa 0,0 l/m 6,4 km/h (2 Bft) O-NO 78 0 min 0,000 mm 0,0 UV-I 5 W/m 5,2 C 5,8 C 11,3 km/h (2 Bft) 100,00 %
30.03.2016 06:52 5,9 C 96 % 1013,6 hPa 0,0 l/m 5,5 km/h (1 Bft) O 92 0 min 0,000 mm 0,0 UV-I 6 W/m 5,3 C 5,9 C 9,7 km/h (2 Bft) 100,00 %
30.03.2016 06:53 5,9 C 96 % 1013,6 hPa 0,0 l/m 4,2 km/h (1 Bft) O 86 0 min 0,000 mm 0,0 UV-I 7 W/m 5,3 C 5,9 C 9,7 km/h (2 Bft) 96,55 %
30.03.2016 06:54 5,8 C 96 % 1013,6 hPa 0,0 l/m 5,6 km/h (1 Bft) O-NO 78 0 min 0,000 mm 0,0 UV-I 9 W/m 5,2 C 5,8 C 6,4 km/h (2 Bft) 100,00 %
30.03.2016 06:55 5,8 C 96 % 1013,6 hPa 0,0 l/m 4,4 km/h (1 Bft) O-SO 102 0 min 0,000 mm 0,0 UV-I 9 W/m 5,2 C 5,8 C 9,7 km/h (2 Bft) 100,00 %
30.03.2016 06:56 5,8 C 96 % 1013,6 hPa 0,0 l/m 3,4 km/h (1 Bft) O 86 1 min 0,000 mm 0,0 UV-I 11 W/m 5,2 C 5,8 C 6,4 km/h (2 Bft) 100,00 %
30.03.2016 06:57 5,8 C 96 % 1013,6 hPa 0,0 l/m 5,9 km/h (2 Bft) O-NO 72 1 min 0,000 mm 0,0 UV-I 11 W/m 5,2 C 5,8 C 11,3 km/h (2 Bft) 100,00 %
30.03.2016 06:58 5,8 C 96 % 1013,6 hPa 0,0 l/m 4,8 km/h (1 Bft) O-NO 65 0 min 0,000 mm 0,0 UV-I 12 W/m 5,2 C 5,8 C 8,0 km/h (2 Bft) 96,67 %
30.03.2016 06:59 5,8 C 96 % 1013,6 hPa 0,0 l/m 4,1 km/h (1 Bft) O 92 0 min 0,000 mm 0,0 UV-I 12 W/m 5,2 C 5,8 C 6,4 km/h (2 Bft) 100,00 %
30.03.2016 07:00 5,8 C 96 % 1013,6 hPa 0,0 l/m 5,1 km/h (1 Bft) O 88 0 min 0,000 mm 0,0 UV-I 12 W/m 5,2 C 5,8 C 8,0 km/h (2 Bft) 100,00 %
30.03.2016 07:02 5,8 C 96 % 1013,6 hPa 0,0 l/m 5,0 km/h (1 Bft) O 86 0 min 0,000 mm 0,0 UV-I 12 W/m 5,2 C 5,8 C 9,7 km/h (2 Bft) 100,00 %
30.03.2016 07:03 5,8 C 96 % 1013,6 hPa 0,0 l/m 3,6 km/h (1 Bft) O 93 0 min 0,000 mm 0,0 UV-I 14 W/m 5,2 C 5,8 C 4,8 km/h (1 Bft) 100,00 %
30.03.2016 07:04 5,8 C 96 % 1013,6 hPa 0,0 l/m 3,5 km/h (1 Bft) O 81 0 min 0,000 mm 0,0 UV-I 15 W/m 5,2 C 5,8 C 4,8 km/h (1 Bft) 97,37 %
30.03.2016 07:05 5,8 C 96 % 1013,6 hPa 0,0 l/m 2,4 km/h (1 Bft) O 81 0 min 0,000 mm 0,0 UV-I 16 W/m 5,2 C 5,8 C 4,8 km/h (1 Bft) 100,00 %
30.03.2016 07:06 5,8 C 96 % 1013,7 hPa 0,0 l/m 2,6 km/h (1 Bft) O 88 0 min 0,000 mm 0,0 UV-I 16 W/m 5,2 C 5,8 C 3,2 km/h (1 Bft) 96,30 %
30.03.2016 07:07 5,8 C 96 % 1013,7 hPa 0,0 l/m 3,2 km/h (1 Bft) O 88 0 min 0,000 mm 0,0 UV-I 16 W/m 5,2 C 5,8 C 4,8 km/h (1 Bft) 100,00 %
30.03.2016 07:08 5,8 C 96 % 1013,7 hPa 0,0 l/m 2,5 km/h (1 Bft) O 88 0 min 0,000 mm 0,0 UV-I 18 W/m 5,2 C 5,8 C 3,2 km/h (1 Bft) 96,15 %
30.03.2016 07:09 5,8 C 96 % 1013,7 hPa 0,0 l/m 1,8 km/h (1 Bft) O 88 0 min 0,000 mm 0,0 UV-I 18 W/m 5,2 C 5,8 C 3,2 km/h (1 Bft) 100,00 %
30.03.2016 07:10 5,8 C 96 % 1013,7 hPa 0,0 l/m 4,3 km/h (1 Bft) O-NO 77 0 min 0,000 mm 0,0 UV-I 19 W/m 5,2 C 5,8 C 6,4 km/h (2 Bft) 96,15 %
30.03.2016 07:11 5,8 C 96 % 1013,7 hPa 0,0 l/m 3,9 km/h (1 Bft) O 92 0 min 0,000 mm 0,0 UV-I 20 W/m 5,2 C 5,8 C 6,4 km/h (2 Bft) 100,00 %
30.03.2016 07:12 5,8 C 96 % 1013,7 hPa 0,0 l/m 4,3 km/h (1 Bft) O 80 0 min 0,000 mm 0,0 UV-I 21 W/m 5,2 C 5,8 C 6,4 km/h (2 Bft) 100,00 %
30.03.2016 07:13 5,8 C 97 % 1013,7 hPa 0,0 l/m 3,1 km/h (1 Bft) O 88 0 min 0,000 mm 0,0 UV-I 23 W/m 5,4 C 5,8 C 4,8 km/h (1 Bft) 100,00 %
30.03.2016 07:14 5,8 C 96 % 1013,6 hPa 0,0 l/m 3,0 km/h (1 Bft) O 88 0 min 0,000 mm 0,0 UV-I 25 W/m 5,2 C 5,8 C 3,2 km/h (1 Bft) 100,00 %
30.03.2016 07:15 5,8 C 97 % 1013,6 hPa 0,0 l/m 1,7 km/h (1 Bft) O 88 0 min 0,000 mm 0,0 UV-I 25 W/m 5,4 C 5,8 C 3,2 km/h (1 Bft) 100,00 %
30.03.2016 07:16 5,8 C 96 % 1013,6 hPa 0,0 l/m 0,5 km/h (0 Bft) O 88 0 min 0,000 mm 0,0 UV-I 26 W/m 5,2 C 5,8 C 1,6 km/h (1 Bft) 95,65 %
30.03.2016 07:17 5,8 C 96 % 1013,6 hPa 0,0 l/m 0,1 km/h (0 Bft) O 88 0 min 0,000 mm 0,0 UV-I 26 W/m 5,2 C 5,8 C 1,6 km/h (1 Bft) 100,00 %
30.03.2016 07:18 5,8 C 96 % 1013,6 hPa 0,0 l/m 1,7 km/h (1 Bft) O 88 0 min 0,000 mm 0,0 UV-I 26 W/m 5,2 C 5,8 C 3,2 km/h (1 Bft) 100,00 %
30.03.2016 07:19 5,7 C 96 % 1013,6 hPa 0,0 l/m 0,6 km/h (0 Bft) O 88 0 min 0,000 mm 0,0 UV-I 28 W/m 5,1 C 5,7 C 1,6 km/h (1 Bft) 100,00 %
30.03.2016 07:20 5,7 C 96 % 1013,6 hPa 0,0 l/m 0,1 km/h (0 Bft) O 88 0 min 0,000 mm 0,0 UV-I 28 W/m 5,1 C 5,7 C 1,6 km/h (1 Bft) 100,00 %
30.03.2016 07:21 5,7 C 96 % 1013,6 hPa 0,0 l/m 0,2 km/h (0 Bft) O 88 0 min 0,000 mm 0,0 UV-I 28 W/m 5,1 C 5,7 C 1,6 km/h (1 Bft) 100,00 %
30.03.2016 07:22 5,7 C 96 % 1013,6 hPa 0,0 l/m 0,7 km/h (0 Bft) O 88 0 min 0,000 mm 0,0 UV-I 29 W/m 5,1 C 5,7 C 1,6 km/h (1 Bft) 100,00 %
30.03.2016 07:23 5,6 C 96 % 1013,6 hPa 0,0 l/m 0,2 km/h (0 Bft) O 88 0 min 0,000 mm 0,0 UV-I 30 W/m 5,0 C 5,6 C 1,6 km/h (1 Bft) 100,00 %
30.03.2016 07:24 5,6 C 96 % 1013,6 hPa 0,0 l/m 2,7 km/h (1 Bft) O-SO 115 0 min 0,000 mm 0,0 UV-I 32 W/m 5,0 C 5,6 C 4,8 km/h (1 Bft) 100,00 %
30.03.2016 07:25 5,7 C 97 % 1013,6 hPa 0,0 l/m 4,2 km/h (1 Bft) O 88 0 min 0,000 mm 0,0 UV-I 33 W/m 5,3 C 5,7 C 6,4 km/h (2 Bft) 96,15 %
30.03.2016 07:26 5,7 C 97 % 1013,6 hPa 0,0 l/m 3,5 km/h (1 Bft) O-NO 69 0 min 0,000 mm 0,0 UV-I 34 W/m 5,3 C 5,7 C 4,8 km/h (1 Bft) 100,00 %
30.03.2016 07:27 5,7 C 96 % 1013,6 hPa 0,0 l/m 5,0 km/h (1 Bft) O 81 0 min 0,000 mm 0,0 UV-I 36 W/m 5,1 C 5,7 C 6,4 km/h (2 Bft) 100,00 %
30.03.2016 07:28 5,7 C 97 % 1013,5 hPa 0,0 l/m 1,7 km/h (1 Bft) O-NO 71 0 min 0,000 mm 0,0 UV-I 38 W/m 5,3 C 5,7 C 4,8 km/h (1 Bft) 100,00 %
30.03.2016 07:29 5,8 C 97 % 1013,6 hPa 0,0 l/m 1,9 km/h (1 Bft) O-NO 71 0 min 0,000 mm 0,0 UV-I 40 W/m 5,4 C 5,8 C 3,2 km/h (1 Bft) 91,30 %
30.03.2016 07:30 5,8 C 97 % 1013,6 hPa 0,0 l/m 1,5 km/h (1 Bft) O-NO 71 0 min 0,000 mm 0,0 UV-I 42 W/m 5,4 C 5,8 C 3,2 km/h (1 Bft) 100,00 %
30.03.2016 07:31 5,8 C 97 % 1013,6 hPa 0,0 l/m 0,1 km/h (0 Bft) O-NO 71 0 min 0,000 mm 0,0 UV-I 44 W/m 5,4 C 5,8 C 1,6 km/h (1 Bft) 100,00 %
30.03.2016 07:32 5,8 C 97 % 1013,6 hPa 0,0 l/m 0,7 km/h (0 Bft) O-NO 71 0 min 0,000 mm 0,0 UV-I 46 W/m 5,4 C 5,8 C 1,6 km/h (1 Bft) 100,00 %
30.03.2016 07:33 5,7 C 97 % 1013,7 hPa 0,0 l/m 1,0 km/h (0 Bft) O-NO 71 0 min 0,000 mm 0,0 UV-I 48 W/m 5,3 C 5,7 C 1,6 km/h (1 Bft) 100,00 %
30.03.2016 07:34 5,7 C 96 % 1013,6 hPa 0,0 l/m 0,1 km/h (0 Bft) O-NO 71 0 min 0,000 mm 0,0 UV-I 49 W/m 5,1 C 5,7 C 1,6 km/h (1 Bft) 100,00 %
30.03.2016 07:35 5,6 C 96 % 1013,6 hPa 0,0 l/m 0,0 km/h (0 Bft) O-NO 71 0 min 0,000 mm 0,0 UV-I 49 W/m 5,0 C 5,6 C 0,0 km/h (0 Bft) 100,00 %
30.03.2016 07:36 5,6 C 96 % 1013,7 hPa 0,0 l/m 0,2 km/h (0 Bft) O-NO 71 0 min 0,000 mm 0,0 UV-I 51 W/m 5,0 C 5,6 C 1,6 km/h (1 Bft) 100,00 %
30.03.2016 07:37 5,6 C 96 % 1013,7 hPa 0,0 l/m 1,0 km/h (0 Bft) O-NO 71 0 min 0,000 mm 0,0 UV-I 55 W/m 5,0 C 5,6 C 1,6 km/h (1 Bft) 100,00 %
30.03.2016 07:38 5,5 C 96 % 1013,7 hPa 0,0 l/m 1,7 km/h (1 Bft) O-NO 71 0 min 0,000 mm 0,0 UV-I 59 W/m 4,9 C 5,5 C 3,2 km/h (1 Bft) 100,00 %
30.03.2016 07:39 5,5 C 96 % 1013,7 hPa 0,0 l/m 1,5 km/h (1 Bft) O-NO 71 0 min 0,000 mm 0,0 UV-I 59 W/m 4,9 C 5,5 C 3,2 km/h (1 Bft) 100,00 %
30.03.2016 07:40 5,5 C 96 % 1013,7 hPa 0,0 l/m 0,1 km/h (0 Bft) O-NO 71 0 min 0,000 mm 0,0 UV-I 58 W/m 4,9 C 5,5 C 1,6 km/h (1 Bft) 100,00 %
30.03.2016 07:41 5,5 C 97 % 1013,7 hPa 0,0 l/m 0,1 km/h (0 Bft) O-NO 71 0 min 0,000 mm 0,0 UV-I 58 W/m 5,1 C 5,5 C 1,6 km/h (1 Bft) 100,00 %
30.03.2016 07:42 5,5 C 97 % 1013,6 hPa 0,0 l/m 0,1 km/h (0 Bft) O-NO 71 0 min 0,000 mm 0,0 UV-I 58 W/m 5,1 C 5,5 C 1,6 km/h (1 Bft) 100,00 %
30.03.2016 07:43 5,6 C 97 % 1013,6 hPa 0,0 l/m 0,4 km/h (0 Bft) O-NO 71 0 min 0,000 mm 0,0 UV-I 58 W/m 5,2 C 5,6 C 1,6 km/h (1 Bft) 100,00 %
30.03.2016 07:44 5,6 C 97 % 1013,5 hPa 0,0 l/m 0,0 km/h (0 Bft) O-NO 71 0 min 0,000 mm 0,0 UV-I 59 W/m 5,2 C 5,6 C 0,0 km/h (0 Bft) 100,00 %
30.03.2016 07:45 5,6 C 97 % 1013,5 hPa 0,0 l/m 0,7 km/h (0 Bft) O-NO 71 0 min 0,000 mm 0,0 UV-I 57 W/m 5,2 C 5,6 C 1,6 km/h (1 Bft) 100,00 %
30.03.2016 07:46 5,6 C 97 % 1013,5 hPa 0,0 l/m 0,0 km/h (0 Bft) O-NO 71 0 min 0,000 mm 0,0 UV-I 60 W/m 5,2 C 5,6 C 0,0 km/h (0 Bft) 100,00 %
30.03.2016 07:47 5,6 C 97 % 1013,5 hPa 0,0 l/m 0,1 km/h (0 Bft) O-NO 71 0 min 0,000 mm 0,0 UV-I 68 W/m 5,2 C 5,6 C 1,6 km/h (1 Bft) 100,00 %
30.03.2016 07:48 5,6 C 97 % 1013,5 hPa 0,0 l/m 0,2 km/h (0 Bft) O-NO 71 0 min 0,000 mm 0,0 UV-I 72 W/m 5,2 C 5,6 C 1,6 km/h (1 Bft) 100,00 %
30.03.2016 07:49 5,6 C 97 % 1013,5 hPa 0,0 l/m 0,1 km/h (0 Bft) O-NO 71 0 min 0,000 mm 0,0 UV-I 70 W/m 5,2 C 5,6 C 1,6 km/h (1 Bft) 100,00 %
30.03.2016 07:50 5,6 C 97 % 1013,5 hPa 0,0 l/m 1,5 km/h (1 Bft) O-NO 71 0 min 0,000 mm 0,0 UV-I 72 W/m 5,2 C 5,6 C 3,2 km/h (1 Bft) 100,00 %
30.03.2016 07:51 5,6 C 97 % 1013,5 hPa 0,0 l/m 0,3 km/h (0 Bft) O-NO 71 0 min 0,000 mm 0,0 UV-I 78 W/m 5,2 C 5,6 C 1,6 km/h (1 Bft) 100,00 %
30.03.2016 07:52 5,7 C 97 % 1013,6 hPa 0,0 l/m 0,1 km/h (0 Bft) O-NO 71 0 min 0,000 mm 0,0 UV-I 81 W/m 5,3 C 5,7 C 1,6 km/h (1 Bft) 100,00 %
30.03.2016 07:53 5,7 C 97 % 1013,6 hPa 0,0 l/m 0,1 km/h (0 Bft) O-NO 71 0 min 0,000 mm 0,0 UV-I 74 W/m 5,3 C 5,7 C 1,6 km/h (1 Bft) 100,00 %
30.03.2016 07:54 5,7 C 97 % 1013,6 hPa 0,0 l/m 0,0 km/h (0 Bft) O-NO 71 0 min 0,000 mm 0,0 UV-I 68 W/m 5,3 C 5,7 C 0,0 km/h (0 Bft) 95,65 %
30.03.2016 07:55 5,8 C 97 % 1013,6 hPa 0,0 l/m 0,0 km/h (0 Bft) O-NO 71 0 min 0,000 mm 0,0 UV-I 72 W/m 5,4 C 5,8 C 0,0 km/h (0 Bft) 100,00 %
30.03.2016 07:56 5,8 C 97 % 1013,6 hPa 0,0 l/m 0,0 km/h (0 Bft) O-NO 71 0 min 0,000 mm 0,0 UV-I 82 W/m 5,4 C 5,8 C 0,0 km/h (0 Bft) 100,00 %
30.03.2016 07:57 5,8 C 97 % 1013,6 hPa 0,0 l/m 0,0 km/h (0 Bft) O-NO 71 0 min 0,000 mm 0,0 UV-I 83 W/m 5,4 C 5,8 C 0,0 km/h (0 Bft) 100,00 %
30.03.2016 07:58 5,9 C 97 % 1013,6 hPa 0,0 l/m 0,0 km/h (0 Bft) O-NO 71 0 min 0,000 mm 0,0 UV-I 87 W/m 5,5 C 5,9 C 0,0 km/h (0 Bft) 100,00 %
30.03.2016 07:59 5,9 C 97 % 1013,6 hPa 0,0 l/m 0,5 km/h (0 Bft) O-NO 71 0 min 0,000 mm 0,0 UV-I 92 W/m 5,5 C 5,9 C 1,6 km/h (1 Bft) 100,00 %
30.03.2016 08:00 5,9 C 97 % 1013,6 hPa 0,0 l/m 0,0 km/h (0 Bft) O-NO 71 0 min 0,000 mm 0,0 UV-I 99 W/m 5,5 C 5,9 C 0,0 km/h (0 Bft) 100,00 %
30.03.2016 08:02 6,0 C 97 % 1013,5 hPa 0,0 l/m 0,6 km/h (0 Bft) O-NO 71 0 min 0,025 mm 0,0 UV-I 104 W/m 5,6 C 6,0 C 1,6 km/h (1 Bft) 100,00 %
30.03.2016 08:03 6,1 C 97 % 1013,4 hPa 0,0 l/m 0,7 km/h (0 Bft) O-NO 71 0 min 0,000 mm 0,0 UV-I 111 W/m 5,7 C 6,1 C 1,6 km/h (1 Bft) 96,15 %
30.03.2016 08:04 6,1 C 97 % 1013,4 hPa 0,0 l/m 0,3 km/h (0 Bft) O-NO 71 0 min 0,000 mm 0,0 UV-I 115 W/m 5,7 C 6,1 C 1,6 km/h (1 Bft) 100,00 %
30.03.2016 08:05 6,2 C 97 % 1013,4 hPa 0,0 l/m 0,0 km/h (0 Bft) O-NO 71 1 min 0,000 mm 0,0 UV-I 120 W/m 5,8 C 6,2 C 0,0 km/h (0 Bft) 100,00 %
30.03.2016 08:06 6,2 C 97 % 1013,4 hPa 0,0 l/m 0,0 km/h (0 Bft) O-NO 71 1 min 0,000 mm 0,0 UV-I 130 W/m 5,8 C 6,2 C 0,0 km/h (0 Bft) 100,00 %
30.03.2016 08:07 6,3 C 97 % 1013,4 hPa 0,0 l/m 0,3 km/h (0 Bft) O-NO 71 1 min 0,000 mm 0,0 UV-I 132 W/m 5,9 C 6,3 C 1,6 km/h (1 Bft) 100,00 %
30.03.2016 08:08 6,4 C 97 % 1013,4 hPa 0,0 l/m 0,6 km/h (0 Bft) O-NO 71 1 min 0,000 mm 0,0 UV-I 133 W/m 6,0 C 6,4 C 1,6 km/h (1 Bft) 100,00 %
30.03.2016 08:09 6,4 C 97 % 1013,4 hPa 0,0 l/m 1,2 km/h (1 Bft) O-NO 71 1 min 0,000 mm 0,0 UV-I 131 W/m 6,0 C 6,4 C 1,6 km/h (1 Bft) 100,00 %
30.03.2016 08:10 6,4 C 97 % 1013,5 hPa 0,0 l/m 1,5 km/h (1 Bft) O-NO 71 1 min 0,000 mm 0,0 UV-I 128 W/m 6,0 C 6,4 C 3,2 km/h (1 Bft) 100,00 %
30.03.2016 08:11 6,5 C 97 % 1013,4 hPa 0,0 l/m 1,8 km/h (1 Bft) O-NO 71 0 min 0,000 mm 0,0 UV-I 125 W/m 6,1 C 6,5 C 3,2 km/h (1 Bft) 100,00 %
30.03.2016 08:12 6,6 C 97 % 1013,4 hPa 0,0 l/m 1,6 km/h (1 Bft) O-NO 71 0 min 0,000 mm 0,0 UV-I 107 W/m 6,2 C 6,6 C 3,2 km/h (1 Bft) 100,00 %
30.03.2016 08:13 6,6 C 97 % 1013,4 hPa 0,0 l/m 1,8 km/h (1 Bft) O-NO 71 0 min 0,000 mm 0,0 UV-I 78 W/m 6,2 C 6,6 C 3,2 km/h (1 Bft) 95,65 %
30.03.2016 08:14 6,7 C 97 % 1013,4 hPa 0,0 l/m 3,1 km/h (1 Bft) O-NO 71 0 min 0,000 mm 0,0 UV-I 103 W/m 6,3 C 6,7 C 4,8 km/h (1 Bft) 95,83 %
30.03.2016 08:15 6,7 C 97 % 1013,4 hPa 0,0 l/m 3,9 km/h (1 Bft) O-NO 71 1 min 0,000 mm 0,0 UV-I 138 W/m 6,3 C 6,7 C 4,8 km/h (1 Bft) 100,00 %
30.03.2016 08:16 6,8 C 97 % 1013,4 hPa 0,0 l/m 3,0 km/h (1 Bft) O-NO 71 1 min 0,000 mm 0,0 UV-I 145 W/m 6,4 C 6,8 C 4,8 km/h (1 Bft) 95,83 %
30.03.2016 08:17 6,8 C 97 % 1013,4 hPa 0,0 l/m 1,7 km/h (1 Bft) O-NO 71 1 min 0,000 mm 0,0 UV-I 150 W/m 6,4 C 6,8 C 3,2 km/h (1 Bft) 100,00 %
30.03.2016 08:18 6,9 C 97 % 1013,4 hPa 0,0 l/m 0,7 km/h (0 Bft) O-NO 71 1 min 0,000 mm 0,0 UV-I 155 W/m 6,5 C 6,9 C 1,6 km/h (1 Bft) 100,00 %
30.03.2016 08:19 6,9 C 97 % 1013,5 hPa 0,0 l/m 0,0 km/h (0 Bft) O-NO 71 1 min 0,000 mm 0,0 UV-I 160 W/m 6,5 C 6,9 C 0,0 km/h (0 Bft) 95,83 %
30.03.2016 08:20 7,0 C 97 % 1013,4 hPa 0,0 l/m 0,7 km/h (0 Bft) O-NO 71 1 min 0,000 mm 0,0 UV-I 161 W/m 6,6 C 7,0 C 1,6 km/h (1 Bft) 96,15 %
30.03.2016 08:21 7,1 C 96 % 1013,4 hPa 0,0 l/m 1,4 km/h (1 Bft) O-NO 71 1 min 0,000 mm 0,0 UV-I 166 W/m 6,5 C 7,1 C 1,6 km/h (1 Bft) 100,00 %
30.03.2016 08:22 7,1 C 96 % 1013,5 hPa 0,0 l/m 1,0 km/h (0 Bft) O-NO 71 1 min 0,000 mm 0,0 UV-I 177 W/m 6,5 C 7,1 C 1,6 km/h (1 Bft) 96,15 %
30.03.2016 08:23 7,1 C 96 % 1013,5 hPa 0,0 l/m 1,1 km/h (1 Bft) O-NO 71 1 min 0,000 mm 0,0 UV-I 168 W/m 6,5 C 7,1 C 3,2 km/h (1 Bft) 100,00 %
30.03.2016 08:24 7,1 C 96 % 1013,4 hPa 0,0 l/m 0,8 km/h (0 Bft) O-NO 71 1 min 0,000 mm 0,0 UV-I 166 W/m 6,5 C 7,1 C 1,6 km/h (1 Bft) 96,15 %
30.03.2016 08:25 7,2 C 95 % 1013,4 hPa 0,0 l/m 1,4 km/h (1 Bft) O-NO 71 1 min 0,000 mm 0,0 UV-I 157 W/m 6,5 C 7,2 C 3,2 km/h (1 Bft) 100,00 %
30.03.2016 08:26 7,2 C 95 % 1013,4 hPa 0,0 l/m 1,9 km/h (1 Bft) O-NO 71 1 min 0,000 mm 0,0 UV-I 161 W/m 6,5 C 7,2 C 3,2 km/h (1 Bft) 95,65 %
30.03.2016 08:27 7,2 C 95 % 1013,4 hPa 0,0 l/m 0,2 km/h (0 Bft) O-NO 71 1 min 0,000 mm 0,0 UV-I 163 W/m 6,5 C 7,2 C 1,6 km/h (1 Bft) 95,83 %
30.03.2016 08:28 7,2 C 95 % 1013,4 hPa 0,0 l/m 0,1 km/h (0 Bft) O-NO 71 1 min 0,000 mm 0,0 UV-I 170 W/m 6,5 C 7,2 C 1,6 km/h (1 Bft) 95,65 %
30.03.2016 08:29 7,3 C 95 % 1013,4 hPa 0,0 l/m 0,0 km/h (0 Bft) O-NO 71 1 min 0,000 mm 0,0 UV-I 184 W/m 6,6 C 7,3 C 0,0 km/h (0 Bft) 95,83 %
30.03.2016 08:30 7,3 C 95 % 1013,4 hPa 0,0 l/m 0,8 km/h (0 Bft) O-NO 71 1 min 0,000 mm 0,0 UV-I 198 W/m 6,6 C 7,3 C 1,6 km/h (1 Bft) 96,55 %
30.03.2016 08:31 7,4 C 95 % 1013,4 hPa 0,0 l/m 0,8 km/h (0 Bft) O-NO 71 1 min 0,000 mm 0,0 UV-I 203 W/m 6,7 C 7,4 C 1,6 km/h (1 Bft) 91,67 %
30.03.2016 08:32 7,4 C 94 % 1013,3 hPa 0,0 l/m 0,3 km/h (0 Bft) O-NO 71 1 min 0,000 mm 0,0 UV-I 203 W/m 6,5 C 7,4 C 1,6 km/h (1 Bft) 100,00 %
30.03.2016 08:33 7,5 C 94 % 1013,3 hPa 0,0 l/m 0,1 km/h (0 Bft) O-NO 71 1 min 0,000 mm 0,0 UV-I 195 W/m 6,6 C 7,5 C 1,6 km/h (1 Bft) 95,83 %
30.03.2016 08:34 7,6 C 93 % 1013,3 hPa 0,0 l/m 1,2 km/h (1 Bft) O-NO 71 1 min 0,000 mm 0,0 UV-I 205 W/m 6,5 C 7,6 C 3,2 km/h (1 Bft) 93,10 %
30.03.2016 08:35 7,6 C 93 % 1013,3 hPa 0,0 l/m 1,6 km/h (1 Bft) O-NO 71 1 min 0,000 mm 0,0 UV-I 232 W/m 6,5 C 7,6 C 3,2 km/h (1 Bft) 100,00 %
30.03.2016 08:36 7,6 C 93 % 1013,3 hPa 0,0 l/m 2,4 km/h (1 Bft) O-NO 71 1 min 0,000 mm 0,0 UV-I 248 W/m 6,5 C 7,6 C 4,8 km/h (1 Bft) 92,86 %
30.03.2016 08:37 7,6 C 93 % 1013,3 hPa 0,0 l/m 3,5 km/h (1 Bft) NO 40 1 min 0,000 mm 0,0 UV-I 252 W/m 6,5 C 7,6 C 4,8 km/h (1 Bft) 100,00 %
30.03.2016 08:38 7,7 C 93 % 1013,3 hPa 0,0 l/m 5,2 km/h (1 Bft) NO 46 1 min 0,000 mm 0,0 UV-I 261 W/m 6,6 C 7,7 C 6,4 km/h (2 Bft) 95,65 %
30.03.2016 08:39 7,7 C 93 % 1013,3 hPa 0,0 l/m 4,0 km/h (1 Bft) NO 48 1 min 0,000 mm 0,0 UV-I 268 W/m 6,6 C 7,7 C 6,4 km/h (2 Bft) 100,00 %
30.03.2016 08:40 7,8 C 94 % 1013,3 hPa 0,0 l/m 4,7 km/h (1 Bft) O-NO 67 1 min 0,000 mm 0,0 UV-I 276 W/m 6,9 C 7,8 C 6,4 km/h (2 Bft) 91,67 %
30.03.2016 08:41 7,8 C 93 % 1013,4 hPa 0,0 l/m 5,0 km/h (1 Bft) N-NO 31 1 min 0,000 mm 0,4 UV-I 297 W/m 6,7 C 7,8 C 6,4 km/h (2 Bft) 100,00 %
30.03.2016 08:42 7,8 C 93 % 1013,4 hPa 0,0 l/m 6,4 km/h (2 Bft) NO 34 1 min 0,000 mm 0,5 UV-I 295 W/m 6,7 C 7,8 C 8,0 km/h (2 Bft) 93,33 %
30.03.2016 08:43 7,9 C 93 % 1013,5 hPa 0,0 l/m 4,7 km/h (1 Bft) NO 50 1 min 0,000 mm 0,4 UV-I 285 W/m 6,8 C 7,9 C 6,4 km/h (2 Bft) 100,00 %
30.03.2016 08:44 8,0 C 94 % 1013,4 hPa 0,0 l/m 4,3 km/h (1 Bft) NO 51 1 min 0,000 mm 0,2 UV-I 276 W/m 7,1 C 8,0 C 6,4 km/h (2 Bft) 96,30 %
30.03.2016 08:45 8,0 C 92 % 1013,4 hPa 0,0 l/m 5,4 km/h (1 Bft) O-NO 58 1 min 0,000 mm 0,3 UV-I 284 W/m 6,8 C 8,0 C 6,4 km/h (2 Bft) 95,65 %
30.03.2016 08:46 8,0 C 92 % 1013,4 hPa 0,0 l/m 5,9 km/h (2 Bft) NO 52 1 min 0,000 mm 0,0 UV-I 267 W/m 6,8 C 8,0 C 6,4 km/h (2 Bft) 100,00 %
30.03.2016 08:47 8,0 C 92 % 1013,4 hPa 0,0 l/m 5,8 km/h (2 Bft) O-NO 57 1 min 0,000 mm 0,0 UV-I 223 W/m 6,8 C 8,0 C 6,4 km/h (2 Bft) 96,15 %
30.03.2016 08:48 8,0 C 92 % 1013,4 hPa 0,0 l/m 6,1 km/h (2 Bft) O-NO 77 1 min 0,000 mm 0,0 UV-I 232 W/m 6,8 C 8,0 C 8,0 km/h (2 Bft) 100,00 %
30.03.2016 08:49 8,0 C 92 % 1013,3 hPa 0,0 l/m 5,2 km/h (1 Bft) O 91 0 min 0,000 mm 0,0 UV-I 160 W/m 6,8 C 8,0 C 6,4 km/h (2 Bft) 100,00 %
30.03.2016 08:50 8,0 C 92 % 1013,2 hPa 0,0 l/m 6,3 km/h (2 Bft) O-NO 60 1 min 0,000 mm 0,0 UV-I 208 W/m 6,8 C 8,0 C 8,0 km/h (2 Bft) 100,00 %
30.03.2016 08:51 7,9 C 91 % 1013,2 hPa 0,0 l/m 7,1 km/h (2 Bft) O-NO 74 0 min 0,000 mm 0,0 UV-I 165 W/m 6,5 C 7,3 C 9,7 km/h (2 Bft) 100,00 %
30.03.2016 08:52 7,9 C 91 % 1013,1 hPa 0,0 l/m 6,0 km/h (2 Bft) O 90 0 min 0,000 mm 0,0 UV-I 140 W/m 6,5 C 7,9 C 8,0 km/h (2 Bft) 100,00 %
30.03.2016 08:53 7,9 C 92 % 1013,2 hPa 0,0 l/m 4,6 km/h (1 Bft) O-NO 66 0 min 0,000 mm 0,0 UV-I 134 W/m 6,7 C 7,9 C 6,4 km/h (2 Bft) 92,86 %
30.03.2016 08:54 7,9 C 92 % 1013,2 hPa 0,0 l/m 4,1 km/h (1 Bft) O-NO 75 0 min 0,000 mm 0,0 UV-I 120 W/m 6,7 C 7,9 C 6,4 km/h (2 Bft) 95,83 %
30.03.2016 08:55 7,9 C 92 % 1013,2 hPa 0,0 l/m 3,7 km/h (1 Bft) O-NO 76 0 min 0,000 mm 0,1 UV-I 127 W/m 6,7 C 7,9 C 4,8 km/h (1 Bft) 100,00 %
30.03.2016 08:56 7,9 C 91 % 1013,2 hPa 0,0 l/m 3,7 km/h (1 Bft) O-NO 67 0 min 0,000 mm 0,5 UV-I 145 W/m 6,5 C 7,9 C 4,8 km/h (1 Bft) 95,83 %
30.03.2016 08:57 7,9 C 92 % 1013,2 hPa 0,0 l/m 5,0 km/h (1 Bft) O-NO 69 0 min 0,000 mm 0,5 UV-I 168 W/m 6,7 C 7,9 C 6,4 km/h (2 Bft) 100,00 %
30.03.2016 08:58 7,9 C 92 % 1013,3 hPa 0,0 l/m 3,4 km/h (1 Bft) O-NO 69 1 min 0,000 mm 0,5 UV-I 203 W/m 6,7 C 7,9 C 4,8 km/h (1 Bft) 100,00 %
30.03.2016 08:59 7,9 C 92 % 1013,4 hPa 0,0 l/m 2,3 km/h (1 Bft) O-NO 69 1 min 0,000 mm 0,5 UV-I 221 W/m 6,7 C 7,9 C 3,2 km/h (1 Bft) 100,00 %
30.03.2016 09:00 8,0 C 92 % 1013,4 hPa 0,0 l/m 1,6 km/h (1 Bft) O-NO 68 1 min 0,000 mm 0,5 UV-I 291 W/m 6,8 C 8,0 C 4,8 km/h (1 Bft) 100,00 %
30.03.2016 09:02 8,2 C 92 % 1013,4 hPa 0,0 l/m 3,4 km/h (1 Bft) O-NO 68 0 min 0,077 mm 0,5 UV-I 200 W/m 7,0 C 8,2 C 6,4 km/h (2 Bft) 100,00 %
30.03.2016 09:03 8,2 C 92 % 1013,5 hPa 0,0 l/m 2,3 km/h (1 Bft) O-NO 68 0 min 0,000 mm 0,5 UV-I 150 W/m 7,0 C 8,2 C 3,2 km/h (1 Bft) 96,30 %
30.03.2016 09:04 8,3 C 91 % 1013,5 hPa 0,0 l/m 3,8 km/h (1 Bft) O-NO 68 0 min 0,000 mm 0,5 UV-I 152 W/m 6,9 C 8,3 C 4,8 km/h (1 Bft) 100,00 %
30.03.2016 09:05 8,3 C 90 % 1013,5 hPa 0,0 l/m 3,4 km/h (1 Bft) O-NO 68 0 min 0,000 mm 0,5 UV-I 153 W/m 6,8 C 8,3 C 4,8 km/h (1 Bft) 100,00 %
30.03.2016 09:06 8,3 C 91 % 1013,6 hPa 0,0 l/m 2,5 km/h (1 Bft) O-NO 68 0 min 0,000 mm 0,5 UV-I 150 W/m 6,9 C 8,3 C 3,2 km/h (1 Bft) 100,00 %
30.03.2016 09:07 8,2 C 90 % 1013,5 hPa 0,0 l/m 2,5 km/h (1 Bft) O-NO 68 0 min 0,000 mm 0,5 UV-I 151 W/m 6,7 C 8,2 C 3,2 km/h (1 Bft) 100,00 %
30.03.2016 09:08 8,2 C 90 % 1013,6 hPa 0,0 l/m 1,2 km/h (1 Bft) O-NO 68 0 min 0,000 mm 0,6 UV-I 155 W/m 6,7 C 8,2 C 3,2 km/h (1 Bft) 100,00 %
30.03.2016 09:09 8,2 C 90 % 1013,6 hPa 0,0 l/m 2,8 km/h (1 Bft) O-NO 67 0 min 0,000 mm 0,6 UV-I 172 W/m 6,7 C 8,2 C 4,8 km/h (1 Bft) 100,00 %
30.03.2016 09:10 8,2 C 91 % 1013,5 hPa 0,0 l/m 3,2 km/h (1 Bft) O-NO 67 0 min 0,000 mm 0,7 UV-I 178 W/m 6,8 C 8,2 C 4,8 km/h (1 Bft) 96,15 %
30.03.2016 09:11 8,3 C 91 % 1013,5 hPa 0,0 l/m 4,0 km/h (1 Bft) O-NO 64 0 min 0,000 mm 0,7 UV-I 178 W/m 6,9 C 8,3 C 4,8 km/h (1 Bft) 100,00 %
30.03.2016 09:12 8,4 C 91 % 1013,5 hPa 0,0 l/m 2,5 km/h (1 Bft) O-NO 65 1 min 0,000 mm 0,8 UV-I 236 W/m 7,0 C 8,4 C 4,8 km/h (1 Bft) 100,00 %
30.03.2016 09:13 8,5 C 91 % 1013,4 hPa 0,0 l/m 2,6 km/h (1 Bft) O-NO 64 1 min 0,000 mm 0,7 UV-I 382 W/m 7,1 C 8,5 C 4,8 km/h (1 Bft) 100,00 %
30.03.2016 09:14 8,6 C 91 % 1013,4 hPa 0,0 l/m 3,2 km/h (1 Bft) O-NO 64 1 min 0,000 mm 0,7 UV-I 387 W/m 7,2 C 8,6 C 4,8 km/h (1 Bft) 100,00 %
30.03.2016 09:15 8,6 C 90 % 1013,4 hPa 0,0 l/m 2,9 km/h (1 Bft) O-NO 64 1 min 0,000 mm 0,7 UV-I 292 W/m 7,1 C 8,6 C 4,8 km/h (1 Bft) 100,00 %
30.03.2016 09:16 8,6 C 90 % 1013,5 hPa 0,0 l/m 3,9 km/h (1 Bft) O-NO 63 1 min 0,000 mm 0,8 UV-I 238 W/m 7,1 C 8,6 C 4,8 km/h (1 Bft) 100,00 %
30.03.2016 09:17 8,6 C 90 % 1013,4 hPa 0,0 l/m 3,7 km/h (1 Bft) O-NO 61 0 min 0,000 mm 0,7 UV-I 206 W/m 7,1 C 8,6 C 4,8 km/h (1 Bft) 100,00 %
30.03.2016 09:18 8,7 C 90 % 1013,5 hPa 0,0 l/m 3,3 km/h (1 Bft) NO 51 0 min 0,000 mm 0,8 UV-I 219 W/m 7,2 C 8,7 C 4,8 km/h (1 Bft) 100,00 %
30.03.2016 09:19 8,7 C 89 % 1013,3 hPa 0,0 l/m 3,7 km/h (1 Bft) O-NO 74 1 min 0,000 mm 0,8 UV-I 296 W/m 7,0 C 8,7 C 6,4 km/h (2 Bft) 100,00 %
30.03.2016 09:20 8,7 C 89 % 1013,3 hPa 0,0 l/m 3,7 km/h (1 Bft) O-NO 60 1 min 0,000 mm 0,8 UV-I 294 W/m 7,0 C 8,7 C 6,4 km/h (2 Bft) 100,00 %
30.03.2016 09:21 8,7 C 90 % 1013,4 hPa 0,0 l/m 3,6 km/h (1 Bft) O-NO 60 1 min 0,000 mm 0,8 UV-I 300 W/m 7,2 C 8,7 C 4,8 km/h (1 Bft) 100,00 %
30.03.2016 09:22 8,8 C 91 % 1013,5 hPa 0,0 l/m 0,5 km/h (0 Bft) O-NO 60 1 min 0,000 mm 0,8 UV-I 291 W/m 7,4 C 8,8 C 1,6 km/h (1 Bft) 100,00 %
30.03.2016 09:23 8,8 C 90 % 1013,5 hPa 0,0 l/m 2,1 km/h (1 Bft) O-NO 60 1 min 0,000 mm 0,8 UV-I 305 W/m 7,3 C 8,8 C 4,8 km/h (1 Bft) 100,00 %
30.03.2016 09:24 8,8 C 90 % 1013,5 hPa 0,0 l/m 5,6 km/h (1 Bft) O-NO 65 1 min 0,000 mm 0,8 UV-I 301 W/m 7,3 C 8,8 C 6,4 km/h (2 Bft) 100,00 %
30.03.2016 09:25 8,8 C 89 % 1013,4 hPa 0,0 l/m 5,3 km/h (1 Bft) O-NO 62 1 min 0,000 mm 0,8 UV-I 274 W/m 7,1 C 8,8 C 8,0 km/h (2 Bft) 100,00 %
30.03.2016 09:26 8,8 C 89 % 1013,4 hPa 0,0 l/m 5,7 km/h (1 Bft) O-NO 61 0 min 0,000 mm 0,8 UV-I 233 W/m 7,1 C 8,8 C 8,0 km/h (2 Bft) 100,00 %
30.03.2016 09:27 8,8 C 88 % 1013,3 hPa 0,0 l/m 6,1 km/h (2 Bft) O-NO 65 1 min 0,000 mm 0,8 UV-I 267 W/m 6,9 C 8,8 C 8,0 km/h (2 Bft) 96,15 %
30.03.2016 09:28 8,8 C 89 % 1013,3 hPa 0,0 l/m 6,8 km/h (2 Bft) O-NO 69 1 min 0,000 mm 0,9 UV-I 304 W/m 7,1 C 8,5 C 11,3 km/h (2 Bft) 100,00 %
30.03.2016 09:29 8,8 C 89 % 1013,4 hPa 0,0 l/m 4,1 km/h (1 Bft) O-NO 65 1 min 0,000 mm 0,9 UV-I 310 W/m 7,1 C 8,8 C 6,4 km/h (2 Bft) 100,00 %
30.03.2016 09:30 8,8 C 89 % 1013,4 hPa 0,0 l/m 5,6 km/h (1 Bft) NO 53 1 min 0,000 mm 0,9 UV-I 337 W/m 7,1 C 8,8 C 8,0 km/h (2 Bft) 100,00 %
30.03.2016 09:31 8,9 C 89 % 1013,3 hPa 0,0 l/m 5,3 km/h (1 Bft) NO 55 1 min 0,000 mm 1,0 UV-I 350 W/m 7,2 C 8,9 C 8,0 km/h (2 Bft) 100,00 %
30.03.2016 09:32 8,9 C 90 % 1013,3 hPa 0,0 l/m 5,6 km/h (1 Bft) O-NO 74 1 min 0,000 mm 1,0 UV-I 354 W/m 7,4 C 8,9 C 8,0 km/h (2 Bft) 100,00 %
30.03.2016 09:33 9,1 C 90 % 1013,2 hPa 0,0 l/m 5,4 km/h (1 Bft) O-NO 64 1 min 0,000 mm 1,0 UV-I 387 W/m 7,5 C 9,1 C 6,4 km/h (2 Bft) 100,00 %
30.03.2016 09:34 9,1 C 89 % 1013,2 hPa 0,0 l/m 7,7 km/h (2 Bft) O-NO 64 1 min 0,000 mm 1,0 UV-I 349 W/m 7,4 C 8,1 C 12,9 km/h (3 Bft) 100,00 %
30.03.2016 09:35 9,1 C 88 % 1013,2 hPa 0,0 l/m 10,8 km/h (2 Bft) O 83 1 min 0,000 mm 1,0 UV-I 394 W/m 7,2 C 6,1 C 14,5 km/h (3 Bft) 100,00 %
30.03.2016 09:36 9,2 C 88 % 1013,2 hPa 0,0 l/m 6,4 km/h (2 Bft) O-NO 75 1 min 0,000 mm 1,1 UV-I 394 W/m 7,3 C 9,2 C 9,7 km/h (2 Bft) 100,00 %
30.03.2016 09:37 9,2 C 89 % 1013,3 hPa 0,0 l/m 6,8 km/h (2 Bft) O-NO 61 1 min 0,000 mm 1,1 UV-I 383 W/m 7,5 C 8,9 C 8,0 km/h (2 Bft) 100,00 %
30.03.2016 09:38 9,2 C 89 % 1013,3 hPa 0,0 l/m 5,6 km/h (1 Bft) O 82 1 min 0,000 mm 1,1 UV-I 394 W/m 7,5 C 9,2 C 6,4 km/h (2 Bft) 100,00 %
30.03.2016 09:39 9,2 C 88 % 1013,3 hPa 0,0 l/m 5,6 km/h (1 Bft) NO 48 1 min 0,000 mm 1,0 UV-I 389 W/m 7,3 C 9,2 C 8,0 km/h (2 Bft) 100,00 %
30.03.2016 09:40 9,3 C 88 % 1013,3 hPa 0,0 l/m 4,6 km/h (1 Bft) NO 47 1 min 0,000 mm 1,0 UV-I 368 W/m 7,4 C 9,3 C 4,8 km/h (1 Bft) 100,00 %
30.03.2016 09:41 9,3 C 89 % 1013,4 hPa 0,0 l/m 5,1 km/h (1 Bft) NO 50 1 min 0,000 mm 1,0 UV-I 335 W/m 7,6 C 9,3 C 6,4 km/h (2 Bft) 100,00 %
30.03.2016 09:42 9,3 C 88 % 1013,4 hPa 0,0 l/m 4,3 km/h (1 Bft) NO 40 1 min 0,000 mm 0,9 UV-I 284 W/m 7,4 C 9,3 C 6,4 km/h (2 Bft) 100,00 %
30.03.2016 09:43 9,4 C 89 % 1013,4 hPa 0,0 l/m 3,8 km/h (1 Bft) NO 52 1 min 0,000 mm 0,9 UV-I 265 W/m 7,7 C 9,4 C 6,4 km/h (2 Bft) 100,00 %
30.03.2016 09:44 9,4 C 88 % 1013,4 hPa 0,0 l/m 5,8 km/h (2 Bft) O-NO 61 1 min 0,000 mm 1,0 UV-I 277 W/m 7,5 C 9,4 C 8,0 km/h (2 Bft) 100,00 %
30.03.2016 09:45 9,4 C 88 % 1013,4 hPa 0,0 l/m 4,0 km/h (1 Bft) NO 49 1 min 0,000 mm 1,0 UV-I 307 W/m 7,5 C 9,4 C 4,8 km/h (1 Bft) 100,00 %
30.03.2016 09:46 9,3 C 88 % 1013,4 hPa 0,0 l/m 5,9 km/h (2 Bft) NO 50 1 min 0,000 mm 1,0 UV-I 302 W/m 7,4 C 9,3 C 9,7 km/h (2 Bft) 100,00 %
30.03.2016 09:47 9,3 C 88 % 1013,3 hPa 0,0 l/m 6,7 km/h (2 Bft) O-NO 57 1 min 0,000 mm 1,0 UV-I 279 W/m 7,4 C 9,1 C 8,0 km/h (2 Bft) 100,00 %
30.03.2016 09:48 9,3 C 88 % 1013,4 hPa 0,0 l/m 6,6 km/h (2 Bft) NO 45 1 min 0,000 mm 1,1 UV-I 324 W/m 7,4 C 9,2 C 8,0 km/h (2 Bft) 100,00 %
30.03.2016 09:49 9,3 C 88 % 1013,4 hPa 0,0 l/m 4,8 km/h (1 Bft) NO 45 1 min 0,000 mm 1,0 UV-I 387 W/m 7,4 C 9,3 C 8,0 km/h (2 Bft) 100,00 %
30.03.2016 09:50 9,3 C 88 % 1013,4 hPa 0,0 l/m 3,8 km/h (1 Bft) NO 45 0 min 0,000 mm 0,9 UV-I 205 W/m 7,4 C 9,3 C 4,8 km/h (1 Bft) 100,00 %
30.03.2016 09:51 9,3 C 88 % 1013,4 hPa 0,0 l/m 4,0 km/h (1 Bft) NO 45 0 min 0,000 mm 1,0 UV-I 169 W/m 7,4 C 9,3 C 4,8 km/h (1 Bft) 100,00 %
30.03.2016 09:52 9,3 C 88 % 1013,4 hPa 0,0 l/m 2,4 km/h (1 Bft) NO 45 0 min 0,000 mm 1,1 UV-I 200 W/m 7,4 C 9,3 C 4,8 km/h (1 Bft) 100,00 %
30.03.2016 09:53 9,4 C 87 % 1013,5 hPa 0,0 l/m 4,4 km/h (1 Bft) NO 45 1 min 0,000 mm 1,2 UV-I 350 W/m 7,3 C 9,4 C 4,8 km/h (1 Bft) 100,00 %
30.03.2016 09:54 9,4 C 88 % 1013,4 hPa 0,0 l/m 3,5 km/h (1 Bft) NO 45 1 min 0,000 mm 1,2 UV-I 339 W/m 7,5 C 9,4 C 4,8 km/h (1 Bft) 95,65 %
30.03.2016 09:55 9,4 C 87 % 1013,4 hPa 0,0 l/m 2,7 km/h (1 Bft) NO 45 1 min 0,000 mm 1,2 UV-I 346 W/m 7,3 C 9,4 C 4,8 km/h (1 Bft) 95,83 %
30.03.2016 09:56 9,5 C 88 % 1013,4 hPa 0,0 l/m 2,8 km/h (1 Bft) NO 45 1 min 0,000 mm 1,1 UV-I 299 W/m 7,6 C 9,5 C 4,8 km/h (1 Bft) 95,83 %
30.03.2016 09:57 9,6 C 89 % 1013,4 hPa 0,0 l/m 5,3 km/h (1 Bft) O 82 1 min 0,000 mm 1,3 UV-I 281 W/m 7,9 C 9,6 C 6,4 km/h (2 Bft) 100,00 %
30.03.2016 09:58 9,7 C 88 % 1013,3 hPa 0,0 l/m 5,1 km/h (1 Bft) O-NO 67 1 min 0,000 mm 1,3 UV-I 434 W/m 7,8 C 9,7 C 6,4 km/h (2 Bft) 100,00 %
30.03.2016 09:59 9,7 C 87 % 1013,3 hPa 0,0 l/m 3,7 km/h (1 Bft) O-NO 71 1 min 0,000 mm 1,3 UV-I 430 W/m 7,6 C 9,7 C 6,4 km/h (2 Bft) 100,00 %
30.03.2016 10:00 9,7 C 87 % 1013,3 hPa 0,0 l/m 2,5 km/h (1 Bft) O-NO 66 1 min 0,000 mm 1,4 UV-I 448 W/m 7,6 C 9,7 C 3,2 km/h (1 Bft) 100,00 %
30.03.2016 10:02 9,7 C 87 % 1013,4 hPa 0,0 l/m 4,1 km/h (1 Bft) NO 51 2 min 0,127 mm 1,4 UV-I 442 W/m 7,6 C 9,7 C 6,4 km/h (2 Bft) 100,00 %
30.03.2016 10:03 9,7 C 86 % 1013,4 hPa 0,0 l/m 5,1 km/h (1 Bft) O-NO 63 1 min 0,000 mm 1,4 UV-I 400 W/m 7,5 C 9,7 C 6,4 km/h (2 Bft) 97,37 %
30.03.2016 10:04 9,7 C 87 % 1013,4 hPa 0,0 l/m 3,0 km/h (1 Bft) O-NO 57 1 min 0,000 mm 1,4 UV-I 451 W/m 7,6 C 9,7 C 3,2 km/h (1 Bft) 100,00 %
30.03.2016 10:05 9,7 C 86 % 1013,4 hPa 0,0 l/m 2,5 km/h (1 Bft) O-NO 68 1 min 0,000 mm 1,4 UV-I 433 W/m 7,5 C 9,7 C 3,2 km/h (1 Bft) 100,00 %
30.03.2016 10:06 9,7 C 86 % 1013,4 hPa 0,0 l/m 1,4 km/h (1 Bft) O-NO 68 1 min 0,000 mm 1,4 UV-I 397 W/m 7,5 C 9,7 C 3,2 km/h (1 Bft) 100,00 %
30.03.2016 10:07 9,8 C 87 % 1013,4 hPa 0,0 l/m 3,4 km/h (1 Bft) O-NO 58 1 min 0,000 mm 1,3 UV-I 380 W/m 7,7 C 9,8 C 4,8 km/h (1 Bft) 100,00 %
30.03.2016 10:08 9,8 C 87 % 1013,4 hPa 0,0 l/m 5,0 km/h (1 Bft) O-NO 78 1 min 0,000 mm 1,4 UV-I 386 W/m 7,7 C 9,8 C 6,4 km/h (2 Bft) 100,00 %
30.03.2016 10:09 9,9 C 87 % 1013,4 hPa 0,0 l/m 3,2 km/h (1 Bft) O 82 1 min 0,000 mm 1,4 UV-I 408 W/m 7,8 C 9,9 C 4,8 km/h (1 Bft) 100,00 %
30.03.2016 10:10 9,9 C 85 % 1013,5 hPa 0,0 l/m 2,4 km/h (1 Bft) O 82 1 min 0,000 mm 1,5 UV-I 446 W/m 7,5 C 9,9 C 3,2 km/h (1 Bft) 100,00 %
30.03.2016 10:11 9,9 C 86 % 1013,5 hPa 0,0 l/m 1,7 km/h (1 Bft) O 82 1 min 0,000 mm 1,5 UV-I 472 W/m 7,7 C 9,9 C 3,2 km/h (1 Bft) 100,00 %
30.03.2016 10:12 9,9 C 84 % 1013,5 hPa 0,0 l/m 0,4 km/h (0 Bft) O 82 1 min 0,000 mm 1,5 UV-I 486 W/m 7,3 C 9,9 C 1,6 km/h (1 Bft) 98,57 %
30.03.2016 10:13 9,8 C 84 % 1013,5 hPa 0,0 l/m 0,3 km/h (0 Bft) O 82 1 min 0,000 mm 1,5 UV-I 485 W/m 7,2 C 9,8 C 1,6 km/h (1 Bft) 97,73 %
30.03.2016 10:14 9,8 C 85 % 1013,5 hPa 0,0 l/m 0,3 km/h (0 Bft) O 82 1 min 0,000 mm 1,5 UV-I 419 W/m 7,4 C 9,8 C 1,6 km/h (1 Bft) 100,00 %
30.03.2016 10:15 9,8 C 85 % 1013,5 hPa 0,0 l/m 0,2 km/h (0 Bft) O 82 1 min 0,000 mm 1,4 UV-I 397 W/m 7,4 C 9,8 C 1,6 km/h (1 Bft) 93,33 %
30.03.2016 10:16 9,8 C 86 % 1013,5 hPa 0,0 l/m 0,9 km/h (0 Bft) NO 42 1 min 0,000 mm 1,5 UV-I 410 W/m 7,6 C 9,8 C 3,2 km/h (1 Bft) 100,00 %
30.03.2016 10:17 9,9 C 87 % 1013,5 hPa 0,0 l/m 0,5 km/h (0 Bft) NO 42 1 min 0,000 mm 1,5 UV-I 450 W/m 7,8 C 9,9 C 1,6 km/h (1 Bft) 95,83 %
30.03.2016 10:18 10,0 C 87 % 1013,6 hPa 0,0 l/m 0,9 km/h (0 Bft) NO 42 1 min 0,000 mm 1,6 UV-I 505 W/m 7,9 C 10,0 C 3,2 km/h (1 Bft) 100,00 %
30.03.2016 10:19 10,2 C 87 % 1013,6 hPa 0,0 l/m 1,1 km/h (1 Bft) NO 42 1 min 0,000 mm 1,6 UV-I 542 W/m 8,1 C 10,2 C 4,8 km/h (1 Bft) 95,83 %
30.03.2016 10:20 10,2 C 85 % 1013,6 hPa 0,0 l/m 1,7 km/h (1 Bft) NO 42 1 min 0,000 mm 1,6 UV-I 542 W/m 7,8 C 10,2 C 3,2 km/h (1 Bft) 96,15 %
30.03.2016 10:21 10,3 C 86 % 1013,6 hPa 0,0 l/m 0,6 km/h (0 Bft) NO 42 1 min 0,000 mm 1,6 UV-I 541 W/m 8,1 C 10,3 C 1,6 km/h (1 Bft) 100,00 %
30.03.2016 10:22 10,4 C 85 % 1013,6 hPa 0,0 l/m 3,6 km/h (1 Bft) NO 42 1 min 0,000 mm 1,4 UV-I 523 W/m 8,0 C 10,4 C 4,8 km/h (1 Bft) 96,55 %
30.03.2016 10:23 10,5 C 84 % 1013,6 hPa 0,0 l/m 3,1 km/h (1 Bft) O-NO 70 1 min 0,000 mm 1,4 UV-I 436 W/m 7,9 C 10,5 C 6,4 km/h (2 Bft) 100,00 %
30.03.2016 10:24 10,5 C 83 % 1013,5 hPa 0,0 l/m 4,1 km/h (1 Bft) O 93 1 min 0,000 mm 1,4 UV-I 376 W/m 7,7 C 10,5 C 4,8 km/h (1 Bft) 95,65 %
30.03.2016 10:25 10,4 C 83 % 1013,5 hPa 0,0 l/m 4,2 km/h (1 Bft) O 93 1 min 0,000 mm 1,3 UV-I 327 W/m 7,6 C 10,4 C 4,8 km/h (1 Bft) 100,00 %
30.03.2016 10:26 10,3 C 84 % 1013,5 hPa 0,0 l/m 1,2 km/h (1 Bft) O 93 1 min 0,000 mm 1,3 UV-I 309 W/m 7,7 C 10,3 C 1,6 km/h (1 Bft) 94,12 %
30.03.2016 10:27 10,2 C 85 % 1013,5 hPa 0,0 l/m 1,0 km/h (0 Bft) O 93 1 min 0,000 mm 1,5 UV-I 309 W/m 7,8 C 10,2 C 1,6 km/h (1 Bft) 100,00 %
30.03.2016 10:28 10,3 C 85 % 1013,5 hPa 0,0 l/m 0,9 km/h (0 Bft) O 93 1 min 0,000 mm 1,4 UV-I 350 W/m 7,9 C 10,3 C 3,2 km/h (1 Bft) 96,88 %
30.03.2016 10:30 10,4 C 85 % 1013,6 hPa 0,0 l/m 0,0 km/h (0 Bft) O 90 2 min 0,000 mm 1,5 UV-I 368 W/m 8,0 C 10,4 C 3,2 km/h (1 Bft) 100,00 %
30.03.2016 10:31 10,5 C 86 % 1013,6 hPa 0,0 l/m 2,7 km/h (1 Bft) W-NW 289 1 min 0,000 mm 1,5 UV-I 392 W/m 8,3 C 10,5 C 4,8 km/h (1 Bft) 96,43 %
30.03.2016 10:32 10,6 C 84 % 1013,6 hPa 0,0 l/m 1,5 km/h (1 Bft) W-NW 289 1 min 0,000 mm 1,5 UV-I 385 W/m 8,0 C 10,6 C 3,2 km/h (1 Bft) 100,00 %
30.03.2016 10:33 10,6 C 85 % 1013,6 hPa 0,0 l/m 1,6 km/h (1 Bft) W-NW 296 1 min 0,000 mm 1,8 UV-I 378 W/m 8,2 C 10,6 C 3,2 km/h (1 Bft) 96,15 %
30.03.2016 10:34 10,7 C 85 % 1013,6 hPa 0,0 l/m 1,4 km/h (1 Bft) W-NW 301 1 min 0,000 mm 1,7 UV-I 398 W/m 8,3 C 10,7 C 3,2 km/h (1 Bft) 95,83 %
30.03.2016 10:35 10,7 C 83 % 1013,6 hPa 0,0 l/m 0,2 km/h (0 Bft) W-NW 301 1 min 0,000 mm 1,8 UV-I 445 W/m 7,9 C 10,7 C 1,6 km/h (1 Bft) 96,15 %
30.03.2016 10:36 10,7 C 83 % 1013,6 hPa 0,0 l/m 0,3 km/h (0 Bft) W-NW 301 1 min 0,000 mm 2,0 UV-I 567 W/m 7,9 C 10,7 C 1,6 km/h (1 Bft) 95,83 %
30.03.2016 10:37 10,7 C 82 % 1013,6 hPa 0,0 l/m 1,8 km/h (1 Bft) W-NW 294 1 min 0,000 mm 2,1 UV-I 672 W/m 7,8 C 10,7 C 3,2 km/h (1 Bft) 100,00 %
30.03.2016 10:38 10,7 C 85 % 1013,6 hPa 0,0 l/m 4,0 km/h (1 Bft) W-NW 288 1 min 0,000 mm 1,8 UV-I 677 W/m 8,3 C 10,7 C 6,4 km/h (2 Bft) 93,33 %
30.03.2016 10:39 10,7 C 83 % 1013,7 hPa 0,0 l/m 2,1 km/h (1 Bft) W-NW 288 1 min 0,000 mm 1,6 UV-I 659 W/m 7,9 C 10,7 C 3,2 km/h (1 Bft) 100,00 %
30.03.2016 10:40 10,7 C 82 % 1013,7 hPa 0,0 l/m 0,4 km/h (0 Bft) W-NW 288 1 min 0,000 mm 1,6 UV-I 349 W/m 7,8 C 10,7 C 3,2 km/h (1 Bft) 96,55 %
30.03.2016 10:41 10,8 C 82 % 1013,7 hPa 0,0 l/m 2,1 km/h (1 Bft) NW 315 1 min 0,000 mm 1,6 UV-I 332 W/m 7,9 C 10,8 C 3,2 km/h (1 Bft) 100,00 %
30.03.2016 10:42 10,8 C 81 % 1013,7 hPa 0,0 l/m 1,7 km/h (1 Bft) NW 315 1 min 0,000 mm 1,8 UV-I 383 W/m 7,7 C 10,8 C 3,2 km/h (1 Bft) 96,88 %
30.03.2016 10:43 10,8 C 79 % 1013,6 hPa 0,0 l/m 0,1 km/h (0 Bft) NW 315 1 min 0,000 mm 2,0 UV-I 420 W/m 7,3 C 10,8 C 1,6 km/h (1 Bft) 100,00 %
30.03.2016 10:44 10,7 C 80 % 1013,6 hPa 0,0 l/m 0,6 km/h (0 Bft) NW 315 1 min 0,000 mm 2,0 UV-I 446 W/m 7,4 C 10,7 C 1,6 km/h (1 Bft) 100,00 %
30.03.2016 10:45 10,7 C 79 % 1013,6 hPa 0,0 l/m 1,6 km/h (1 Bft) NO 34 1 min 0,000 mm 1,8 UV-I 424 W/m 7,2 C 10,7 C 4,8 km/h (1 Bft) 100,00 %
30.03.2016 10:46 10,7 C 80 % 1013,6 hPa 0,0 l/m 3,9 km/h (1 Bft) NO 34 1 min 0,000 mm 2,0 UV-I 438 W/m 7,4 C 10,7 C 6,4 km/h (2 Bft) 95,65 %
30.03.2016 10:47 10,8 C 82 % 1013,6 hPa 0,0 l/m 2,4 km/h (1 Bft) NO 40 1 min 0,000 mm 2,2 UV-I 438 W/m 7,9 C 10,8 C 3,2 km/h (1 Bft) 100,00 %
30.03.2016 10:48 11,1 C 82 % 1013,6 hPa 0,0 l/m 3,1 km/h (1 Bft) NO 40 1 min 0,000 mm 2,3 UV-I 662 W/m 8,1 C 11,1 C 4,8 km/h (1 Bft) 100,00 %
30.03.2016 10:49 11,2 C 79 % 1013,6 hPa 0,0 l/m 1,5 km/h (1 Bft) NO 40 1 min 0,000 mm 2,3 UV-I 768 W/m 7,7 C 11,2 C 3,2 km/h (1 Bft) 100,00 %
30.03.2016 10:50 11,3 C 80 % 1013,7 hPa 0,0 l/m 3,1 km/h (1 Bft) NO 40 1 min 0,000 mm 2,1 UV-I 779 W/m 8,0 C 11,3 C 4,8 km/h (1 Bft) 96,15 %
30.03.2016 10:51 11,3 C 79 % 1013,6 hPa 0,0 l/m 1,5 km/h (1 Bft) N-NO 26 1 min 0,000 mm 2,1 UV-I 750 W/m 7,8 C 11,3 C 3,2 km/h (1 Bft) 96,30 %
30.03.2016 10:52 11,3 C 80 % 1013,6 hPa 0,0 l/m 3,3 km/h (1 Bft) N-NO 32 1 min 0,000 mm 2,1 UV-I 645 W/m 8,0 C 11,3 C 4,8 km/h (1 Bft) 100,00 %
30.03.2016 10:53 11,4 C 80 % 1013,6 hPa 0,0 l/m 4,6 km/h (1 Bft) NO 46 1 min 0,000 mm 2,2 UV-I 645 W/m 8,1 C 11,4 C 6,4 km/h (2 Bft) 100,00 %
30.03.2016 10:54 11,5 C 78 % 1013,6 hPa 0,0 l/m 5,9 km/h (2 Bft) O-NO 69 1 min 0,000 mm 2,4 UV-I 634 W/m 7,8 C 11,5 C 8,0 km/h (2 Bft) 100,00 %
30.03.2016 10:55 11,4 C 77 % 1013,6 hPa 0,0 l/m 2,6 km/h (1 Bft) NO 48 1 min 0,000 mm 2,3 UV-I 585 W/m 7,5 C 11,4 C 4,8 km/h (1 Bft) 100,00 %
30.03.2016 10:56 11,4 C 79 % 1013,6 hPa 0,0 l/m 4,8 km/h (1 Bft) NO 48 1 min 0,000 mm 2,4 UV-I 583 W/m 7,9 C 11,4 C 6,4 km/h (2 Bft) 100,00 %
30.03.2016 10:57 11,4 C 78 % 1013,5 hPa 0,0 l/m 3,2 km/h (1 Bft) NO 55 1 min 0,000 mm 2,5 UV-I 593 W/m 7,7 C 11,4 C 6,4 km/h (2 Bft) 100,00 %
30.03.2016 10:58 11,5 C 80 % 1013,5 hPa 0,0 l/m 1,8 km/h (1 Bft) NO 55 1 min 0,000 mm 2,4 UV-I 594 W/m 8,2 C 11,5 C 3,2 km/h (1 Bft) 100,00 %
30.03.2016 10:59 11,6 C 77 % 1013,5 hPa 0,0 l/m 0,7 km/h (0 Bft) NO 55 1 min 0,000 mm 2,4 UV-I 583 W/m 7,7 C 11,6 C 1,6 km/h (1 Bft) 100,00 %
30.03.2016 11:00 11,6 C 78 % 1013,5 hPa 0,0 l/m 1,4 km/h (1 Bft) NO 55 1 min 0,228 mm 2,2 UV-I 568 W/m 7,9 C 11,6 C 3,2 km/h (1 Bft) 100,00 %
30.03.2016 11:02 11,7 C 79 % 1013,5 hPa 0,0 l/m 2,9 km/h (1 Bft) O-NO 65 2 min 0,000 mm 2,4 UV-I 575 W/m 8,2 C 11,7 C 6,4 km/h (2 Bft) 98,39 %
30.03.2016 11:03 11,7 C 79 % 1013,4 hPa 0,0 l/m 5,7 km/h (1 Bft) N-NO 31 1 min 0,000 mm 2,5 UV-I 579 W/m 8,2 C 11,7 C 8,0 km/h (2 Bft) 92,86 %
30.03.2016 11:04 11,8 C 78 % 1013,5 hPa 0,0 l/m 5,2 km/h (1 Bft) NO 36 1 min 0,000 mm 2,5 UV-I 586 W/m 8,1 C 11,8 C 9,7 km/h (2 Bft) 100,00 %
30.03.2016 11:05 11,8 C 78 % 1013,5 hPa 0,0 l/m 3,3 km/h (1 Bft) NO 35 1 min 0,000 mm 2,5 UV-I 584 W/m 8,1 C 11,8 C 4,8 km/h (1 Bft) 100,00 %
30.03.2016 11:06 11,8 C 78 % 1013,5 hPa 0,0 l/m 0,6 km/h (0 Bft) NO 35 1 min 0,000 mm 2,5 UV-I 597 W/m 8,1 C 11,8 C 1,6 km/h (1 Bft) 95,83 %
30.03.2016 11:07 11,7 C 78 % 1013,5 hPa 0,0 l/m 2,5 km/h (1 Bft) NO 34 1 min 0,000 mm 2,5 UV-I 591 W/m 8,0 C 11,7 C 3,2 km/h (1 Bft) 95,65 %
30.03.2016 11:08 11,7 C 79 % 1013,5 hPa 0,0 l/m 0,2 km/h (0 Bft) NO 34 1 min 0,000 mm 2,5 UV-I 558 W/m 8,2 C 11,7 C 1,6 km/h (1 Bft) 100,00 %
30.03.2016 11:09 11,7 C 79 % 1013,4 hPa 0,0 l/m 1,0 km/h (0 Bft) NO 34 1 min 0,000 mm 2,4 UV-I 538 W/m 8,2 C 11,7 C 3,2 km/h (1 Bft) 100,00 %
30.03.2016 11:10 11,8 C 79 % 1013,5 hPa 0,0 l/m 7,2 km/h (2 Bft) O-NO 65 1 min 0,000 mm 2,5 UV-I 528 W/m 8,3 C 11,3 C 9,7 km/h (2 Bft) 100,00 %
30.03.2016 11:11 11,8 C 81 % 1013,5 hPa 0,0 l/m 7,7 km/h (2 Bft) NO 48 1 min 0,000 mm 2,5 UV-I 547 W/m 8,6 C 10,9 C 9,7 km/h (2 Bft) 100,00 %
30.03.2016 11:12 11,9 C 80 % 1013,5 hPa 0,0 l/m 7,0 km/h (2 Bft) O-NO 58 1 min 0,000 mm 2,4 UV-I 496 W/m 8,6 C 11,5 C 9,7 km/h (2 Bft) 100,00 %
30.03.2016 11:13 11,9 C 80 % 1013,5 hPa 0,0 l/m 6,1 km/h (2 Bft) NO 53 1 min 0,000 mm 2,5 UV-I 478 W/m 8,6 C 11,9 C 8,0 km/h (2 Bft) 100,00 %
30.03.2016 11:14 12,0 C 82 % 1013,5 hPa 0,0 l/m 5,4 km/h (1 Bft) NO 39 1 min 0,000 mm 2,6 UV-I 575 W/m 9,0 C 12,0 C 8,0 km/h (2 Bft) 100,00 %
30.03.2016 11:15 12,1 C 80 % 1013,5 hPa 0,0 l/m 5,8 km/h (2 Bft) O-NO 68 1 min 0,000 mm 2,5 UV-I 555 W/m 8,8 C 12,1 C 8,0 km/h (2 Bft) 100,00 %
30.03.2016 11:16 12,2 C 81 % 1013,5 hPa 0,0 l/m 6,1 km/h (2 Bft) O-NO 72 1 min 0,000 mm 2,6 UV-I 590 W/m 9,0 C 12,2 C 9,7 km/h (2 Bft) 100,00 %
30.03.2016 11:17 12,2 C 80 % 1013,5 hPa 0,0 l/m 6,0 km/h (2 Bft) NO 49 1 min 0,000 mm 2,6 UV-I 603 W/m 8,9 C 12,2 C 8,0 km/h (2 Bft) 100,00 %
30.03.2016 11:18 12,3 C 81 % 1013,5 hPa 0,0 l/m 4,8 km/h (1 Bft) NO 50 1 min 0,000 mm 2,7 UV-I 608 W/m 9,1 C 12,3 C 6,4 km/h (2 Bft) 100,00 %
30.03.2016 11:19 12,3 C 80 % 1013,5 hPa 0,0 l/m 8,0 km/h (2 Bft) O 81 1 min 0,000 mm 2,6 UV-I 588 W/m 8,9 C 11,3 C 12,9 km/h (3 Bft) 100,00 %
30.03.2016 11:20 12,3 C 78 % 1013,5 hPa 0,0 l/m 8,3 km/h (2 Bft) O-NO 78 1 min 0,000 mm 2,5 UV-I 546 W/m 8,6 C 11,1 C 11,3 km/h (2 Bft) 100,00 %
30.03.2016 11:21 12,3 C 78 % 1013,5 hPa 0,0 l/m 7,8 km/h (2 Bft) NO 50 1 min 0,000 mm 2,6 UV-I 580 W/m 8,6 C 11,4 C 12,9 km/h (3 Bft) 100,00 %
30.03.2016 11:22 12,3 C 80 % 1013,5 hPa 0,0 l/m 9,1 km/h (2 Bft) O-NO 71 1 min 0,000 mm 2,6 UV-I 600 W/m 8,9 C 10,6 C 12,9 km/h (3 Bft) 100,00 %
30.03.2016 11:23 12,4 C 78 % 1013,5 hPa 0,0 l/m 7,2 km/h (2 Bft) NO 39 1 min 0,000 mm 2,6 UV-I 589 W/m 8,7 C 11,9 C 8,0 km/h (2 Bft) 100,00 %
30.03.2016 11:24 12,4 C 77 % 1013,5 hPa 0,0 l/m 5,6 km/h (1 Bft) NO 51 1 min 0,000 mm 2,7 UV-I 603 W/m 8,5 C 12,4 C 8,0 km/h (2 Bft) 100,00 %
30.03.2016 11:25 12,4 C 77 % 1013,6 hPa 0,0 l/m 4,3 km/h (1 Bft) NO 51 1 min 0,000 mm 2,6 UV-I 582 W/m 8,5 C 12,4 C 6,4 km/h (2 Bft) 100,00 %
30.03.2016 11:26 12,4 C 77 % 1013,6 hPa 0,0 l/m 4,9 km/h (1 Bft) O 96 1 min 0,000 mm 2,6 UV-I 553 W/m 8,5 C 12,4 C 6,4 km/h (2 Bft) 100,00 %
30.03.2016 11:27 12,5 C 79 % 1013,6 hPa 0,0 l/m 4,9 km/h (1 Bft) NO 48 1 min 0,000 mm 2,6 UV-I 547 W/m 9,0 C 12,5 C 6,4 km/h (2 Bft) 100,00 %
30.03.2016 11:28 12,6 C 79 % 1013,5 hPa 0,0 l/m 4,5 km/h (1 Bft) NO 51 1 min 0,000 mm 2,6 UV-I 553 W/m 9,1 C 12,6 C 6,4 km/h (2 Bft) 100,00 %
30.03.2016 11:29 12,7 C 78 % 1013,6 hPa 0,0 l/m 6,5 km/h (2 Bft) NO 53 1 min 0,000 mm 2,7 UV-I 580 W/m 9,0 C 12,7 C 8,0 km/h (2 Bft) 100,00 %
30.03.2016 11:30 12,7 C 78 % 1013,6 hPa 0,0 l/m 7,7 km/h (2 Bft) O 88 1 min 0,000 mm 2,7 UV-I 585 W/m 9,0 C 11,9 C 11,3 km/h (2 Bft) 100,00 %
30.03.2016 11:31 12,8 C 77 % 1013,5 hPa 0,0 l/m 8,4 km/h (2 Bft) O-SO 118 1 min 0,000 mm 2,7 UV-I 585 W/m 8,9 C 11,6 C 12,9 km/h (3 Bft) 100,00 %
30.03.2016 11:32 12,8 C 78 % 1013,5 hPa 0,0 l/m 9,2 km/h (2 Bft) SO 126 1 min 0,000 mm 2,7 UV-I 585 W/m 9,1 C 11,1 C 12,9 km/h (3 Bft) 100,00 %
30.03.2016 11:33 12,7 C 76 % 1013,5 hPa 0,0 l/m 4,1 km/h (1 Bft) O-SO 102 1 min 0,000 mm 2,6 UV-I 556 W/m 8,6 C 12,7 C 6,4 km/h (2 Bft) 100,00 %
30.03.2016 11:34 12,7 C 77 % 1013,5 hPa 0,0 l/m 0,7 km/h (0 Bft) O-SO 114 1 min 0,000 mm 2,6 UV-I 515 W/m 8,8 C 12,7 C 3,2 km/h (1 Bft) 100,00 %
30.03.2016 11:35 12,6 C 75 % 1013,5 hPa 0,0 l/m 0,0 km/h (0 Bft) O-SO 115 1 min 0,000 mm 2,5 UV-I 515 W/m 8,3 C 12,6 C 0,0 km/h (0 Bft) 100,00 %
30.03.2016 11:36 12,6 C 77 % 1013,5 hPa 0,0 l/m 1,2 km/h (1 Bft) O-SO 114 1 min 0,000 mm 2,5 UV-I 494 W/m 8,7 C 12,6 C 1,6 km/h (1 Bft) 96,30 %
30.03.2016 11:37 12,5 C 76 % 1013,5 hPa 0,0 l/m 0,8 km/h (0 Bft) O-SO 114 1 min 0,000 mm 2,5 UV-I 505 W/m 8,4 C 12,5 C 1,6 km/h (1 Bft) 100,00 %
30.03.2016 11:38 12,6 C 77 % 1013,5 hPa 0,0 l/m 1,5 km/h (1 Bft) O-SO 114 1 min 0,000 mm 2,5 UV-I 478 W/m 8,7 C 12,6 C 1,6 km/h (1 Bft) 100,00 %
30.03.2016 11:39 12,7 C 78 % 1013,5 hPa 0,0 l/m 6,0 km/h (2 Bft) O 94 1 min 0,000 mm 2,6 UV-I 538 W/m 9,0 C 12,7 C 9,7 km/h (2 Bft) 100,00 %
30.03.2016 11:40 12,7 C 78 % 1013,6 hPa 0,0 l/m 3,2 km/h (1 Bft) S-SO 155 1 min 0,000 mm 2,6 UV-I 503 W/m 9,0 C 12,7 C 6,4 km/h (2 Bft) 100,00 %
30.03.2016 11:41 12,8 C 78 % 1013,5 hPa 0,0 l/m 7,7 km/h (2 Bft) O-SO 106 1 min 0,000 mm 2,5 UV-I 485 W/m 9,1 C 12,0 C 11,3 km/h (2 Bft) 100,00 %
30.03.2016 11:42 12,8 C 78 % 1013,5 hPa 0,0 l/m 7,3 km/h (2 Bft) O 96 1 min 0,000 mm 2,5 UV-I 502 W/m 9,1 C 12,2 C 9,7 km/h (2 Bft) 100,00 %
30.03.2016 11:43 12,9 C 77 % 1013,5 hPa 0,0 l/m 3,4 km/h (1 Bft) O-SO 109 1 min 0,000 mm 2,5 UV-I 488 W/m 9,0 C 12,9 C 4,8 km/h (1 Bft) 98,61 %
30.03.2016 11:44 12,8 C 77 % 1013,5 hPa 0,0 l/m 4,2 km/h (1 Bft) O-SO 113 1 min 0,000 mm 2,5 UV-I 473 W/m 8,9 C 12,8 C 6,4 km/h (2 Bft) 100,00 %
30.03.2016 11:45 12,8 C 78 % 1013,5 hPa 0,0 l/m 8,2 km/h (2 Bft) O-SO 102 1 min 0,000 mm 2,6 UV-I 538 W/m 9,1 C 11,7 C 11,3 km/h (2 Bft) 100,00 %
30.03.2016 11:46 12,8 C 78 % 1013,5 hPa 0,0 l/m 5,6 km/h (1 Bft) O 93 1 min 0,000 mm 2,8 UV-I 606 W/m 9,1 C 12,8 C 9,7 km/h (2 Bft) 96,30 %
30.03.2016 11:47 12,9 C 78 % 1013,6 hPa 0,0 l/m 5,6 km/h (1 Bft) O-SO 111 1 min 0,000 mm 2,9 UV-I 628 W/m 9,2 C 12,9 C 11,3 km/h (2 Bft) 100,00 %
30.03.2016 11:48 12,9 C 79 % 1013,5 hPa 0,0 l/m 9,2 km/h (2 Bft) O-SO 117 1 min 0,000 mm 2,9 UV-I 644 W/m 9,3 C 11,2 C 12,9 km/h (3 Bft) 100,00 %
30.03.2016 11:49 13,0 C 79 % 1013,6 hPa 0,0 l/m 8,2 km/h (2 Bft) O-SO 113 1 min 0,000 mm 2,8 UV-I 609 W/m 9,4 C 11,9 C 11,3 km/h (2 Bft) 96,15 %
30.03.2016 11:50 12,9 C 78 % 1013,6 hPa 0,0 l/m 4,1 km/h (1 Bft) O 92 1 min 0,000 mm 2,8 UV-I 580 W/m 9,2 C 12,9 C 6,4 km/h (2 Bft) 100,00 %
30.03.2016 11:51 12,9 C 79 % 1013,6 hPa 0,0 l/m 3,4 km/h (1 Bft) SO 146 1 min 0,000 mm 2,7 UV-I 552 W/m 9,3 C 12,9 C 4,8 km/h (1 Bft) 100,00 %
30.03.2016 11:52 13,0 C 80 % 1013,6 hPa 0,0 l/m 2,8 km/h (1 Bft) S-SO 162 1 min 0,000 mm 2,6 UV-I 536 W/m 9,6 C 13,0 C 6,4 km/h (2 Bft) 100,00 %
30.03.2016 11:53 13,1 C 77 % 1013,6 hPa 0,0 l/m 4,6 km/h (1 Bft) O-SO 121 1 min 0,000 mm 2,6 UV-I 502 W/m 9,2 C 13,1 C 6,4 km/h (2 Bft) 100,00 %
30.03.2016 11:54 13,2 C 80 % 1013,6 hPa 0,0 l/m 4,0 km/h (1 Bft) S-SO 161 1 min 0,000 mm 2,5 UV-I 508 W/m 9,8 C 13,2 C 8,0 km/h (2 Bft) 100,00 %
30.03.2016 11:55 13,3 C 78 % 1013,6 hPa 0,0 l/m 5,3 km/h (1 Bft) S-SO 151 1 min 0,000 mm 2,5 UV-I 465 W/m 9,5 C 13,3 C 8,0 km/h (2 Bft) 100,00 %
30.03.2016 11:56 13,3 C 75 % 1013,6 hPa 0,0 l/m 1,9 km/h (1 Bft) S-SO 160 1 min 0,000 mm 2,4 UV-I 440 W/m 9,0 C 13,3 C 6,4 km/h (2 Bft) 96,67 %
30.03.2016 11:57 13,3 C 76 % 1013,6 hPa 0,0 l/m 4,5 km/h (1 Bft) S-SW 198 1 min 0,000 mm 2,4 UV-I 445 W/m 9,2 C 13,3 C 6,4 km/h (2 Bft) 100,00 %
30.03.2016 11:58 13,2 C 78 % 1013,6 hPa 0,0 l/m 1,5 km/h (1 Bft) SO 137 1 min 0,000 mm 2,5 UV-I 444 W/m 9,4 C 13,2 C 3,2 km/h (1 Bft) 100,00 %
30.03.2016 11:59 13,2 C 78 % 1013,6 hPa 0,0 l/m 6,5 km/h (2 Bft) O 83 1 min 0,000 mm 2,5 UV-I 434 W/m 9,4 C 13,2 C 9,7 km/h (2 Bft) 100,00 %
30.03.2016 12:00 13,3 C 78 % 1013,6 hPa 0,0 l/m 4,3 km/h (1 Bft) O 90 1 min 0,000 mm 2,4 UV-I 431 W/m 9,5 C 13,3 C 6,4 km/h (2 Bft) 100,00 %
30.03.2016 12:02 13,2 C 77 % 1013,6 hPa 0,0 l/m 6,6 km/h (2 Bft) O-SO 105 2 min 0,280 mm 2,5 UV-I 452 W/m 9,3 C 13,1 C 9,7 km/h (2 Bft) 97,73 %
30.03.2016 12:03 13,3 C 80 % 1013,6 hPa 0,0 l/m 4,8 km/h (1 Bft) SO 124 1 min 0,000 mm 2,6 UV-I 490 W/m 9,9 C 13,3 C 8,0 km/h (2 Bft) 100,00 %
30.03.2016 12:04 13,4 C 78 % 1013,6 hPa 0,0 l/m 4,2 km/h (1 Bft) O-SO 111 1 min 0,000 mm 2,8 UV-I 506 W/m 9,6 C 13,4 C 8,0 km/h (2 Bft) 95,65 %
30.03.2016 12:05 13,4 C 77 % 1013,6 hPa 0,0 l/m 4,8 km/h (1 Bft) S 171 1 min 0,000 mm 2,8 UV-I 539 W/m 9,5 C 13,4 C 6,4 km/h (2 Bft) 100,00 %
30.03.2016 12:06 13,5 C 76 % 1013,5 hPa 0,0 l/m 1,6 km/h (1 Bft) S 169 1 min 0,000 mm 2,6 UV-I 513 W/m 9,4 C 13,5 C 3,2 km/h (1 Bft) 94,74 %
30.03.2016 12:07 13,6 C 76 % 1013,5 hPa 0,0 l/m 3,7 km/h (1 Bft) S 178 1 min 0,000 mm 2,6 UV-I 485 W/m 9,4 C 13,6 C 4,8 km/h (1 Bft) 100,00 %
30.03.2016 12:08 13,6 C 77 % 1013,5 hPa 0,0 l/m 6,0 km/h (2 Bft) O 92 1 min 0,000 mm 2,5 UV-I 472 W/m 9,6 C 13,6 C 9,7 km/h (2 Bft) 92,86 %
30.03.2016 12:09 13,6 C 75 % 1013,5 hPa 0,0 l/m 3,5 km/h (1 Bft) O 94 1 min 0,000 mm 2,5 UV-I 470 W/m 9,3 C 13,6 C 4,8 km/h (1 Bft) 100,00 %
30.03.2016 12:10 13,4 C 75 % 1013,5 hPa 0,0 l/m 3,4 km/h (1 Bft) O 87 1 min 0,000 mm 2,6 UV-I 464 W/m 9,1 C 13,4 C 8,0 km/h (2 Bft) 95,65 %
30.03.2016 12:11 13,4 C 76 % 1013,5 hPa 0,0 l/m 4,6 km/h (1 Bft) O-SO 111 1 min 0,000 mm 2,7 UV-I 465 W/m 9,3 C 13,4 C 8,0 km/h (2 Bft) 95,83 %
30.03.2016 12:12 13,6 C 77 % 1013,5 hPa 0,0 l/m 5,1 km/h (1 Bft) SO 127 1 min 0,000 mm 2,8 UV-I 472 W/m 9,6 C 13,6 C 8,0 km/h (2 Bft) 100,00 %
30.03.2016 12:13 13,7 C 76 % 1013,5 hPa 0,0 l/m 5,1 km/h (1 Bft) S-SO 162 1 min 0,000 mm 2,8 UV-I 530 W/m 9,5 C 13,7 C 9,7 km/h (2 Bft) 95,83 %
30.03.2016 12:14 13,8 C 75 % 1013,5 hPa 0,0 l/m 5,7 km/h (1 Bft) O-SO 123 1 min 0,000 mm 2,7 UV-I 528 W/m 9,4 C 13,8 C 9,7 km/h (2 Bft) 100,00 %
30.03.2016 12:15 13,8 C 72 % 1013,5 hPa 0,0 l/m 1,5 km/h (1 Bft) O-SO 119 1 min 0,000 mm 2,7 UV-I 536 W/m 8,8 C 13,8 C 6,4 km/h (2 Bft) 93,33 %
30.03.2016 12:16 13,8 C 72 % 1013,5 hPa 0,0 l/m 2,2 km/h (1 Bft) O-SO 117 1 min 0,000 mm 2,7 UV-I 501 W/m 8,8 C 13,8 C 3,2 km/h (1 Bft) 100,00 %
30.03.2016 12:17 13,8 C 73 % 1013,5 hPa 0,0 l/m 0,6 km/h (0 Bft) O-SO 117 1 min 0,000 mm 2,7 UV-I 523 W/m 9,0 C 13,8 C 1,6 km/h (1 Bft) 96,15 %
30.03.2016 12:18 13,9 C 71 % 1013,5 hPa 0,0 l/m 3,2 km/h (1 Bft) O-SO 121 1 min 0,000 mm 2,8 UV-I 514 W/m 8,7 C 13,9 C 4,8 km/h (1 Bft) 100,00 %
30.03.2016 12:19 13,9 C 72 % 1013,5 hPa 0,0 l/m 3,4 km/h (1 Bft) O-SO 121 1 min 0,000 mm 2,6 UV-I 482 W/m 8,9 C 13,9 C 4,8 km/h (1 Bft) 91,30 %
30.03.2016 12:20 14,0 C 75 % 1013,5 hPa 0,0 l/m 3,6 km/h (1 Bft) O-NO 68 1 min 0,000 mm 2,7 UV-I 491 W/m 9,6 C 14,0 C 4,8 km/h (1 Bft) 95,83 %
30.03.2016 12:21 14,1 C 78 % 1013,4 hPa 0,0 l/m 1,1 km/h (1 Bft) O-NO 68 1 min 0,000 mm 2,6 UV-I 455 W/m 10,3 C 14,1 C 1,6 km/h (1 Bft) 100,00 %
30.03.2016 12:22 14,2 C 73 % 1013,4 hPa 0,0 l/m 1,4 km/h (1 Bft) O-NO 68 1 min 0,000 mm 2,6 UV-I 455 W/m 9,4 C 14,2 C 3,2 km/h (1 Bft) 96,30 %
30.03.2016 12:23 14,2 C 72 % 1013,4 hPa 0,0 l/m 2,1 km/h (1 Bft) O 94 1 min 0,000 mm 2,7 UV-I 455 W/m 9,2 C 14,2 C 4,8 km/h (1 Bft) 100,00 %
30.03.2016 12:24 14,2 C 70 % 1013,4 hPa 0,0 l/m 2,3 km/h (1 Bft) S 184 1 min 0,000 mm 2,6 UV-I 486 W/m 8,8 C 14,2 C 3,2 km/h (1 Bft) 96,67 %
30.03.2016 12:25 14,2 C 70 % 1013,4 hPa 0,0 l/m 0,8 km/h (0 Bft) S 184 1 min 0,000 mm 2,7 UV-I 505 W/m 8,8 C 14,2 C 1,6 km/h (1 Bft) 100,00 %
30.03.2016 12:26 14,2 C 71 % 1013,5 hPa 0,0 l/m 1,0 km/h (0 Bft) S 191 1 min 0,000 mm 2,8 UV-I 510 W/m 9,0 C 14,2 C 1,6 km/h (1 Bft) 96,67 %
30.03.2016 12:27 14,2 C 73 % 1013,4 hPa 0,0 l/m 3,3 km/h (1 Bft) O-NO 69 1 min 0,000 mm 2,7 UV-I 494 W/m 9,4 C 14,2 C 6,4 km/h (2 Bft) 96,15 %
30.03.2016 12:28 14,3 C 73 % 1013,4 hPa 0,0 l/m 2,3 km/h (1 Bft) O-NO 67 1 min 0,000 mm 2,8 UV-I 497 W/m 9,5 C 14,3 C 3,2 km/h (1 Bft) 100,00 %
30.03.2016 12:29 14,3 C 73 % 1013,4 hPa 0,0 l/m 2,7 km/h (1 Bft) O-NO 61 1 min 0,000 mm 2,8 UV-I 511 W/m 9,5 C 14,3 C 4,8 km/h (1 Bft) 95,65 %
30.03.2016 12:30 14,4 C 77 % 1013,3 hPa 0,0 l/m 4,6 km/h (1 Bft) O-NO 58 1 min 0,000 mm 2,8 UV-I 506 W/m 10,4 C 14,4 C 6,4 km/h (2 Bft) 100,00 %
30.03.2016 12:31 14,6 C 74 % 1013,3 hPa 0,0 l/m 5,0 km/h (1 Bft) NO 43 1 min 0,000 mm 2,8 UV-I 517 W/m 10,0 C 14,6 C 6,4 km/h (2 Bft) 91,30 %
30.03.2016 12:32 14,6 C 75 % 1013,3 hPa 0,0 l/m 3,8 km/h (1 Bft) NO 42 1 min 0,000 mm 2,8 UV-I 505 W/m 10,2 C 14,6 C 6,4 km/h (2 Bft) 100,00 %
30.03.2016 12:33 14,6 C 72 % 1013,3 hPa 0,0 l/m 1,4 km/h (1 Bft) N-NO 32 1 min 0,000 mm 2,7 UV-I 489 W/m 9,6 C 14,6 C 3,2 km/h (1 Bft) 91,67 %
30.03.2016 12:34 14,6 C 73 % 1013,3 hPa 0,0 l/m 0,6 km/h (0 Bft) N-NO 28 1 min 0,000 mm 2,7 UV-I 490 W/m 9,8 C 14,6 C 1,6 km/h (1 Bft) 96,55 %
30.03.2016 12:35 14,6 C 72 % 1013,3 hPa 0,0 l/m 1,1 km/h (1 Bft) N-NO 28 1 min 0,000 mm 2,8 UV-I 508 W/m 9,6 C 14,6 C 1,6 km/h (1 Bft) 95,65 %
30.03.2016 12:36 14,6 C 71 % 1013,3 hPa 0,0 l/m 0,8 km/h (0 Bft) N-NO 28 1 min 0,000 mm 2,8 UV-I 496 W/m 9,4 C 14,6 C 1,6 km/h (1 Bft) 96,30 %
30.03.2016 12:37 14,5 C 71 % 1013,2 hPa 0,0 l/m 0,3 km/h (0 Bft) N-NO 28 1 min 0,000 mm 2,8 UV-I 499 W/m 9,3 C 14,5 C 1,6 km/h (1 Bft) 100,00 %
30.03.2016 12:38 14,4 C 68 % 1013,2 hPa 0,0 l/m 1,8 km/h (1 Bft) S-SO 167 1 min 0,000 mm 2,8 UV-I 507 W/m 8,6 C 14,4 C 4,8 km/h (1 Bft) 100,00 %
30.03.2016 12:39 14,4 C 68 % 1013,2 hPa 0,0 l/m 1,3 km/h (1 Bft) S-SO 162 1 min 0,000 mm 2,8 UV-I 516 W/m 8,6 C 14,4 C 1,6 km/h (1 Bft) 96,30 %
30.03.2016 12:40 14,5 C 70 % 1013,2 hPa 0,0 l/m 0,8 km/h (0 Bft) S-SO 162 1 min 0,000 mm 2,9 UV-I 520 W/m 9,1 C 14,5 C 1,6 km/h (1 Bft) 100,00 %
30.03.2016 12:41 14,6 C 69 % 1013,2 hPa 0,0 l/m 2,0 km/h (1 Bft) S-SO 148 1 min 0,000 mm 2,8 UV-I 509 W/m 9,0 C 14,6 C 3,2 km/h (1 Bft) 100,00 %
30.03.2016 12:42 14,7 C 68 % 1013,2 hPa 0,0 l/m 1,4 km/h (1 Bft) S-SO 148 1 min 0,000 mm 2,9 UV-I 490 W/m 8,9 C 14,7 C 1,6 km/h (1 Bft) 100,00 %
30.03.2016 12:43 14,7 C 67 % 1013,2 hPa 0,0 l/m 1,7 km/h (1 Bft) S-SO 148 1 min 0,000 mm 2,9 UV-I 520 W/m 8,6 C 14,7 C 3,2 km/h (1 Bft) 100,00 %
30.03.2016 12:44 14,8 C 69 % 1013,1 hPa 0,0 l/m 3,9 km/h (1 Bft) O-NO 78 1 min 0,000 mm 2,9 UV-I 510 W/m 9,2 C 14,8 C 6,4 km/h (2 Bft) 100,00 %
30.03.2016 12:45 14,8 C 68 % 1013,2 hPa 0,0 l/m 5,5 km/h (1 Bft) O-NO 69 1 min 0,000 mm 2,9 UV-I 508 W/m 9,0 C 14,8 C 8,0 km/h (2 Bft) 95,83 %
30.03.2016 12:46 14,7 C 69 % 1013,2 hPa 0,0 l/m 3,6 km/h (1 Bft) O-NO 69 1 min 0,000 mm 2,9 UV-I 512 W/m 9,1 C 14,7 C 6,4 km/h (2 Bft) 100,00 %
30.03.2016 12:47 14,8 C 72 % 1013,1 hPa 0,0 l/m 1,9 km/h (1 Bft) O-NO 69 1 min 0,000 mm 2,9 UV-I 517 W/m 9,8 C 14,8 C 3,2 km/h (1 Bft) 100,00 %
30.03.2016 12:48 14,8 C 70 % 1013,2 hPa 0,0 l/m 0,2 km/h (0 Bft) O-NO 69 1 min 0,000 mm 2,9 UV-I 519 W/m 9,4 C 14,8 C 1,6 km/h (1 Bft) 96,15 %
30.03.2016 12:49 14,9 C 72 % 1013,1 hPa 0,0 l/m 4,5 km/h (1 Bft) NO 45 1 min 0,000 mm 2,9 UV-I 516 W/m 9,9 C 14,9 C 6,4 km/h (2 Bft) 100,00 %
30.03.2016 12:50 14,9 C 71 % 1013,1 hPa 0,0 l/m 2,8 km/h (1 Bft) NO 48 1 min 0,000 mm 2,9 UV-I 512 W/m 9,7 C 14,9 C 4,8 km/h (1 Bft) 100,00 %
30.03.2016 12:51 14,9 C 69 % 1013,1 hPa 0,0 l/m 0,3 km/h (0 Bft) NO 48 1 min 0,000 mm 2,9 UV-I 497 W/m 9,3 C 14,9 C 1,6 km/h (1 Bft) 100,00 %
30.03.2016 12:52 14,8 C 69 % 1013,1 hPa 0,0 l/m 0,9 km/h (0 Bft) NO 48 1 min 0,000 mm 2,9 UV-I 502 W/m 9,2 C 14,8 C 1,6 km/h (1 Bft) 95,65 %
30.03.2016 12:53 14,9 C 73 % 1013,1 hPa 0,0 l/m 0,5 km/h (0 Bft) NO 48 1 min 0,000 mm 3,0 UV-I 525 W/m 10,1 C 14,9 C 3,2 km/h (1 Bft) 100,00 %
30.03.2016 12:54 14,9 C 68 % 1013,1 hPa 0,0 l/m 1,5 km/h (1 Bft) O 88 1 min 0,000 mm 3,0 UV-I 528 W/m 9,0 C 14,9 C 4,8 km/h (1 Bft) 100,00 %
30.03.2016 12:55 14,9 C 69 % 1013,1 hPa 0,0 l/m 2,9 km/h (1 Bft) O 85 1 min 0,000 mm 3,0 UV-I 539 W/m 9,3 C 14,9 C 4,8 km/h (1 Bft) 95,65 %
30.03.2016 12:56 14,9 C 68 % 1013,0 hPa 0,0 l/m 0,7 km/h (0 Bft) O 85 1 min 0,000 mm 3,1 UV-I 570 W/m 9,0 C 14,9 C 1,6 km/h (1 Bft) 100,00 %
30.03.2016 12:57 14,9 C 68 % 1013,1 hPa 0,0 l/m 1,3 km/h (1 Bft) O-NO 74 1 min 0,000 mm 3,1 UV-I 587 W/m 9,0 C 14,9 C 3,2 km/h (1 Bft) 100,00 %
30.03.2016 12:58 14,9 C 68 % 1013,0 hPa 0,0 l/m 2,0 km/h (1 Bft) O-NO 60 1 min 0,000 mm 3,1 UV-I 589 W/m 9,0 C 14,9 C 3,2 km/h (1 Bft) 97,44 %
30.03.2016 12:59 14,9 C 68 % 1013,0 hPa 0,0 l/m 4,8 km/h (1 Bft) NO 35 1 min 0,000 mm 3,0 UV-I 506 W/m 9,0 C 14,9 C 8,0 km/h (2 Bft) 100,00 %
30.03.2016 13:00 15,1 C 72 % 1013,0 hPa 0,0 l/m 3,4 km/h (1 Bft) NO 34 1 min 0,000 mm 3,0 UV-I 498 W/m 10,1 C 15,1 C 4,8 km/h (1 Bft) 100,00 %
30.03.2016 13:02 15,2 C 71 % 1013,0 hPa 0,0 l/m 3,3 km/h (1 Bft) NO 54 2 min 0,279 mm 3,0 UV-I 536 W/m 10,0 C 15,2 C 6,4 km/h (2 Bft) 100,00 %
30.03.2016 13:03 15,2 C 71 % 1013,0 hPa 0,0 l/m 1,2 km/h (1 Bft) N 355 1 min 0,000 mm 3,0 UV-I 542 W/m 10,0 C 15,2 C 1,6 km/h (1 Bft) 100,00 %
30.03.2016 13:04 15,4 C 73 % 1013,0 hPa 0,0 l/m 2,8 km/h (1 Bft) N-NO 17 1 min 0,000 mm 3,0 UV-I 526 W/m 10,6 C 15,4 C 4,8 km/h (1 Bft) 100,00 %
30.03.2016 13:05 15,5 C 69 % 1013,0 hPa 0,0 l/m 4,7 km/h (1 Bft) O-NO 67 1 min 0,000 mm 3,1 UV-I 551 W/m 9,8 C 15,5 C 8,0 km/h (2 Bft) 100,00 %
30.03.2016 13:06 15,5 C 67 % 1013,0 hPa 0,0 l/m 4,4 km/h (1 Bft) O 90 1 min 0,000 mm 3,1 UV-I 573 W/m 9,4 C 15,5 C 6,4 km/h (2 Bft) 100,00 %
30.03.2016 13:07 15,4 C 65 % 1013,0 hPa 0,0 l/m 3,0 km/h (1 Bft) O 82 1 min 0,000 mm 3,3 UV-I 615 W/m 8,9 C 15,4 C 4,8 km/h (1 Bft) 100,00 %
30.03.2016 13:08 15,3 C 66 % 1013,0 hPa 0,0 l/m 1,0 km/h (0 Bft) O 82 1 min 0,000 mm 3,2 UV-I 622 W/m 9,0 C 15,3 C 1,6 km/h (1 Bft) 100,00 %
30.03.2016 13:09 15,3 C 68 % 1013,0 hPa 0,0 l/m 1,1 km/h (1 Bft) O 82 1 min 0,000 mm 3,3 UV-I 635 W/m 9,4 C 15,3 C 1,6 km/h (1 Bft) 100,00 %
30.03.2016 13:10 15,3 C 66 % 1013,0 hPa 0,0 l/m 1,0 km/h (0 Bft) S-SW 209 1 min 0,000 mm 3,2 UV-I 630 W/m 9,0 C 15,3 C 3,2 km/h (1 Bft) 100,00 %
30.03.2016 13:11 15,3 C 68 % 1012,9 hPa 0,0 l/m 5,4 km/h (1 Bft) SW 229 1 min 0,000 mm 3,1 UV-I 578 W/m 9,4 C 15,3 C 9,7 km/h (2 Bft) 96,30 %
30.03.2016 13:12 15,3 C 63 % 1013,0 hPa 0,0 l/m 5,5 km/h (1 Bft) W 270 1 min 0,000 mm 2,9 UV-I 506 W/m 8,3 C 15,3 C 6,4 km/h (2 Bft) 100,00 %
30.03.2016 13:13 15,4 C 63 % 1012,9 hPa 0,0 l/m 4,9 km/h (1 Bft) W 276 1 min 0,000 mm 2,8 UV-I 475 W/m 8,4 C 15,4 C 6,4 km/h (2 Bft) 100,00 %
30.03.2016 13:14 15,4 C 62 % 1013,0 hPa 0,0 l/m 4,6 km/h (1 Bft) W 275 1 min 0,000 mm 2,8 UV-I 461 W/m 8,2 C 15,4 C 6,4 km/h (2 Bft) 100,00 %
30.03.2016 13:15 15,4 C 64 % 1012,9 hPa 0,0 l/m 4,9 km/h (1 Bft) W 271 1 min 0,000 mm 2,6 UV-I 440 W/m 8,6 C 15,4 C 6,4 km/h (2 Bft) 100,00 %
30.03.2016 13:16 15,4 C 62 % 1012,9 hPa 0,0 l/m 3,6 km/h (1 Bft) W 277 1 min 0,000 mm 2,6 UV-I 426 W/m 8,2 C 15,4 C 4,8 km/h (1 Bft) 100,00 %
30.03.2016 13:17 15,4 C 62 % 1012,9 hPa 0,0 l/m 2,6 km/h (1 Bft) W-NW 294 1 min 0,000 mm 2,7 UV-I 443 W/m 8,2 C 15,4 C 3,2 km/h (1 Bft) 100,00 %
30.03.2016 13:18 15,4 C 65 % 1012,8 hPa 0,0 l/m 1,2 km/h (1 Bft) W-NW 294 1 min 0,000 mm 2,6 UV-I 430 W/m 8,9 C 15,4 C 3,2 km/h (1 Bft) 100,00 %
30.03.2016 13:19 15,4 C 64 % 1012,8 hPa 0,0 l/m 0,5 km/h (0 Bft) W-NW 294 1 min 0,000 mm 2,6 UV-I 428 W/m 8,6 C 15,4 C 1,6 km/h (1 Bft) 100,00 %
30.03.2016 13:20 15,4 C 63 % 1012,9 hPa 0,0 l/m 1,1 km/h (1 Bft) W-NW 293 1 min 0,000 mm 2,7 UV-I 445 W/m 8,4 C 15,4 C 1,6 km/h (1 Bft) 100,00 %
30.03.2016 13:21 15,4 C 66 % 1012,8 hPa 0,0 l/m 1,3 km/h (1 Bft) S 173 1 min 0,000 mm 2,8 UV-I 468 W/m 9,1 C 15,4 C 3,2 km/h (1 Bft) 95,83 %
30.03.2016 13:22 15,4 C 63 % 1012,8 hPa 0,0 l/m 3,7 km/h (1 Bft) SO 132 1 min 0,000 mm 2,8 UV-I 478 W/m 8,4 C 15,4 C 6,4 km/h (2 Bft) 100,00 %
30.03.2016 13:23 15,5 C 67 % 1012,8 hPa 0,0 l/m 4,0 km/h (1 Bft) O-SO 115 1 min 0,000 mm 3,0 UV-I 540 W/m 9,4 C 15,5 C 6,4 km/h (2 Bft) 100,00 %
30.03.2016 13:24 15,5 C 65 % 1012,9 hPa 0,0 l/m 3,7 km/h (1 Bft) O-SO 102 1 min 0,000 mm 3,2 UV-I 596 W/m 8,9 C 15,5 C 6,4 km/h (2 Bft) 100,00 %
30.03.2016 13:25 15,6 C 65 % 1012,9 hPa 0,0 l/m 3,1 km/h (1 Bft) O-SO 102 1 min 0,000 mm 3,3 UV-I 614 W/m 9,0 C 15,6 C 4,8 km/h (1 Bft) 100,00 %
30.03.2016 13:26 15,7 C 64 % 1012,9 hPa 0,0 l/m 1,5 km/h (1 Bft) SO 145 1 min 0,000 mm 3,3 UV-I 624 W/m 8,9 C 15,7 C 3,2 km/h (1 Bft) 96,15 %
30.03.2016 13:27 15,7 C 62 % 1012,9 hPa 0,0 l/m 3,5 km/h (1 Bft) O-SO 119 1 min 0,000 mm 3,2 UV-I 598 W/m 8,4 C 15,7 C 6,4 km/h (2 Bft) 100,00 %
30.03.2016 13:28 15,7 C 63 % 1012,8 hPa 0,0 l/m 2,7 km/h (1 Bft) O-SO 119 1 min 0,000 mm 3,1 UV-I 558 W/m 8,7 C 15,7 C 4,8 km/h (1 Bft) 100,00 %
30.03.2016 13:29 15,8 C 64 % 1012,8 hPa 0,0 l/m 0,8 km/h (0 Bft) O-SO 119 1 min 0,000 mm 3,1 UV-I 554 W/m 9,0 C 15,8 C 1,6 km/h (1 Bft) 96,55 %
30.03.2016 13:30 15,8 C 63 % 1012,8 hPa 0,0 l/m 1,3 km/h (1 Bft) O-SO 109 1 min 0,000 mm 3,1 UV-I 553 W/m 8,8 C 15,8 C 3,2 km/h (1 Bft) 100,00 %
30.03.2016 13:31 15,9 C 65 % 1012,8 hPa 0,0 l/m 0,6 km/h (0 Bft) O-NO 74 1 min 0,000 mm 3,2 UV-I 591 W/m 9,3 C 15,9 C 1,6 km/h (1 Bft) 96,30 %
30.03.2016 13:32 16,0 C 69 % 1012,8 hPa 0,0 l/m 2,3 km/h (1 Bft) N 360 1 min 0,000 mm 3,3 UV-I 612 W/m 10,3 C 16,0 C 4,8 km/h (1 Bft) 100,00 %
30.03.2016 13:33 16,1 C 65 % 1012,7 hPa 0,0 l/m 1,4 km/h (1 Bft) N 360 1 min 0,000 mm 3,2 UV-I 602 W/m 9,5 C 16,1 C 3,2 km/h (1 Bft) 100,00 %
30.03.2016 13:34 16,1 C 62 % 1012,7 hPa 0,0 l/m 1,2 km/h (1 Bft) N-NW 342 1 min 0,000 mm 3,2 UV-I 573 W/m 8,8 C 16,1 C 3,2 km/h (1 Bft) 100,00 %
30.03.2016 13:35 15,9 C 61 % 1012,7 hPa 0,0 l/m 1,4 km/h (1 Bft) N-NW 342 1 min 0,000 mm 3,2 UV-I 571 W/m 8,4 C 15,9 C 3,2 km/h (1 Bft) 100,00 %
30.03.2016 13:36 15,9 C 64 % 1012,7 hPa 0,0 l/m 4,4 km/h (1 Bft) NO 34 1 min 0,000 mm 3,1 UV-I 552 W/m 9,1 C 15,9 C 8,0 km/h (2 Bft) 100,00 %
30.03.2016 13:37 16,0 C 65 % 1012,6 hPa 0,0 l/m 7,5 km/h (2 Bft) NO 43 1 min 0,000 mm 3,0 UV-I 526 W/m 9,4 C 15,4 C 9,7 km/h (2 Bft) 100,00 %
30.03.2016 13:38 16,1 C 63 % 1012,6 hPa 0,0 l/m 5,4 km/h (1 Bft) NO 55 1 min 0,000 mm 3,0 UV-I 502 W/m 9,1 C 16,1 C 8,0 km/h (2 Bft) 95,83 %
30.03.2016 13:39 16,1 C 64 % 1012,6 hPa 0,0 l/m 9,8 km/h (2 Bft) NO 41 1 min 0,000 mm 2,9 UV-I 501 W/m 9,3 C 14,4 C 14,5 km/h (3 Bft) 100,00 %
30.03.2016 13:40 16,1 C 64 % 1012,6 hPa 0,0 l/m 6,5 km/h (2 Bft) NO 53 1 min 0,000 mm 3,0 UV-I 522 W/m 9,3 C 16,1 C 11,3 km/h (2 Bft) 100,00 %
30.03.2016 13:41 16,1 C 67 % 1012,6 hPa 0,0 l/m 8,9 km/h (2 Bft) N-NO 30 1 min 0,000 mm 3,0 UV-I 536 W/m 10,0 C 14,8 C 12,9 km/h (3 Bft) 100,00 %
30.03.2016 13:42 16,2 C 67 % 1012,5 hPa 0,0 l/m 10,0 km/h (2 Bft) N-NO 23 1 min 0,000 mm 3,1 UV-I 556 W/m 10,1 C 14,4 C 14,5 km/h (3 Bft) 100,00 %
30.03.2016 13:43 16,2 C 64 % 1012,5 hPa 0,0 l/m 2,4 km/h (1 Bft) N-NO 15 1 min 0,000 mm 3,3 UV-I 604 W/m 9,4 C 16,2 C 8,0 km/h (2 Bft) 100,00 %
30.03.2016 13:44 16,3 C 68 % 1012,5 hPa 0,0 l/m 0,9 km/h (0 Bft) N-NO 17 1 min 0,000 mm 3,4 UV-I 673 W/m 10,4 C 16,3 C 1,6 km/h (1 Bft) 100,00 %
30.03.2016 13:45 16,3 C 60 % 1012,5 hPa 0,0 l/m 3,2 km/h (1 Bft) O-SO 111 1 min 0,000 mm 3,3 UV-I 608 W/m 8,5 C 16,3 C 6,4 km/h (2 Bft) 100,00 %
30.03.2016 13:46 16,2 C 60 % 1012,6 hPa 0,0 l/m 3,3 km/h (1 Bft) O-SO 111 1 min 0,000 mm 3,4 UV-I 599 W/m 8,4 C 16,2 C 4,8 km/h (1 Bft) 100,00 %
30.03.2016 13:47 16,2 C 65 % 1012,6 hPa 0,0 l/m 3,4 km/h (1 Bft) NO 40 1 min 0,000 mm 3,4 UV-I 665 W/m 9,6 C 16,2 C 4,8 km/h (1 Bft) 100,00 %
30.03.2016 13:48 16,3 C 65 % 1012,5 hPa 0,0 l/m 4,6 km/h (1 Bft) NO 36 1 min 0,000 mm 3,4 UV-I 667 W/m 9,7 C 16,3 C 6,4 km/h (2 Bft) 100,00 %
30.03.2016 13:49 16,3 C 64 % 1012,5 hPa 0,0 l/m 6,2 km/h (2 Bft) N-NO 28 1 min 0,000 mm 3,4 UV-I 635 W/m 9,5 C 16,3 C 8,0 km/h (2 Bft) 92,31 %
30.03.2016 13:50 16,3 C 61 % 1012,5 hPa 0,0 l/m 2,4 km/h (1 Bft) N-NO 20 1 min 0,000 mm 3,2 UV-I 584 W/m 8,8 C 16,3 C 8,0 km/h (2 Bft) 100,00 %
30.03.2016 13:51 16,2 C 65 % 1012,5 hPa 0,0 l/m 2,7 km/h (1 Bft) N-NO 19 1 min 0,000 mm 2,8 UV-I 566 W/m 9,6 C 16,2 C 11,3 km/h (2 Bft) 100,00 %
30.03.2016 13:52 16,2 C 66 % 1012,5 hPa 0,0 l/m 6,4 km/h (2 Bft) O-NO 57 0 min 0,000 mm 2,6 UV-I 292 W/m 9,8 C 16,2 C 11,3 km/h (2 Bft) 100,00 %
30.03.2016 13:53 16,3 C 65 % 1012,5 hPa 0,0 l/m 6,4 km/h (2 Bft) NO 53 0 min 0,000 mm 2,7 UV-I 292 W/m 9,7 C 16,3 C 11,3 km/h (2 Bft) 100,00 %
30.03.2016 13:54 16,3 C 62 % 1012,4 hPa 0,0 l/m 4,0 km/h (1 Bft) NO 55 1 min 0,000 mm 3,5 UV-I 468 W/m 9,0 C 16,3 C 8,0 km/h (2 Bft) 100,00 %
30.03.2016 13:55 16,3 C 59 % 1012,4 hPa 0,0 l/m 6,2 km/h (2 Bft) NO 34 1 min 0,000 mm 3,5 UV-I 722 W/m 8,3 C 16,3 C 9,7 km/h (2 Bft) 100,00 %
30.03.2016 13:56 16,5 C 69 % 1012,4 hPa 0,0 l/m 5,2 km/h (1 Bft) N-NO 22 1 min 0,000 mm 3,4 UV-I 670 W/m 10,8 C 16,5 C 12,9 km/h (3 Bft) 100,00 %
30.03.2016 13:57 16,6 C 63 % 1012,3 hPa 0,0 l/m 7,5 km/h (2 Bft) N-NO 21 1 min 0,000 mm 3,3 UV-I 666 W/m 9,5 C 16,0 C 11,3 km/h (2 Bft) 100,00 %
30.03.2016 13:58 16,6 C 64 % 1012,4 hPa 0,0 l/m 3,0 km/h (1 Bft) N 11 1 min 0,000 mm 3,3 UV-I 649 W/m 9,8 C 16,6 C 6,4 km/h (2 Bft) 100,00 %
30.03.2016 13:59 16,7 C 67 % 1012,3 hPa 0,0 l/m 5,6 km/h (1 Bft) N-NO 14 1 min 0,000 mm 3,2 UV-I 639 W/m 10,5 C 16,7 C 9,7 km/h (2 Bft) 100,00 %
30.03.2016 14:00 16,6 C 63 % 1012,3 hPa 0,0 l/m 5,4 km/h (1 Bft) NO 34 1 min 0,305 mm 2,7 UV-I 605 W/m 9,5 C 16,6 C 8,0 km/h (2 Bft) 100,00 %
30.03.2016 14:02 16,4 C 65 % 1012,3 hPa 0,0 l/m 6,2 km/h (2 Bft) NO 34 2 min 0,000 mm 2,9 UV-I 605 W/m 9,8 C 16,4 C 12,9 km/h (3 Bft) 100,00 %
30.03.2016 14:03 16,4 C 65 % 1012,3 hPa 0,0 l/m 5,8 km/h (2 Bft) NO 40 1 min 0,000 mm 3,1 UV-I 609 W/m 9,8 C 16,4 C 9,7 km/h (2 Bft) 100,00 %
30.03.2016 14:04 16,6 C 68 % 1012,3 hPa 0,0 l/m 9,3 km/h (2 Bft) N-NO 17 1 min 0,000 mm 3,2 UV-I 599 W/m 10,7 C 15,2 C 11,3 km/h (2 Bft) 92,31 %
30.03.2016 14:05 16,7 C 66 % 1012,2 hPa 0,0 l/m 9,1 km/h (2 Bft) N 11 1 min 0,000 mm 3,4 UV-I 639 W/m 10,3 C 15,4 C 12,9 km/h (3 Bft) 98,64 %
30.03.2016 14:06 16,8 C 66 % 1012,2 hPa 0,0 l/m 7,9 km/h (2 Bft) NO 41 1 min 0,000 mm 3,4 UV-I 728 W/m 10,4 C 16,0 C 9,7 km/h (2 Bft) 97,56 %
30.03.2016 14:07 16,8 C 62 % 1012,2 hPa 0,0 l/m 9,0 km/h (2 Bft) NO 41 1 min 0,000 mm 2,9 UV-I 719 W/m 9,5 C 15,5 C 11,3 km/h (2 Bft) 96,30 %
30.03.2016 14:08 16,8 C 62 % 1012,2 hPa 0,0 l/m 8,8 km/h (2 Bft) NO 51 1 min 0,000 mm 2,3 UV-I 696 W/m 9,5 C 15,6 C 12,9 km/h (3 Bft) 91,30 %
30.03.2016 14:09 16,8 C 62 % 1012,1 hPa 0,0 l/m 9,3 km/h (2 Bft) NO 37 1 min 0,000 mm 2,7 UV-I 696 W/m 9,5 C 15,4 C 14,5 km/h (3 Bft) 95,83 %
30.03.2016 14:10 16,8 C 60 % 1012,1 hPa 0,0 l/m 5,5 km/h (1 Bft) N-NO 12 1 min 0,000 mm 3,0 UV-I 696 W/m 9,0 C 16,8 C 8,0 km/h (2 Bft) 96,15 %
30.03.2016 14:11 16,7 C 59 % 1012,1 hPa 0,0 l/m 4,7 km/h (1 Bft) N-NO 27 1 min 0,000 mm 3,4 UV-I 690 W/m 8,6 C 16,7 C 6,4 km/h (2 Bft) 91,67 %
30.03.2016 14:12 16,7 C 64 % 1012,2 hPa 0,0 l/m 0,2 km/h (0 Bft) N-NO 27 1 min 0,000 mm 3,3 UV-I 639 W/m 9,9 C 16,7 C 1,6 km/h (1 Bft) 100,00 %
30.03.2016 14:13 16,7 C 61 % 1012,1 hPa 0,0 l/m 1,0 km/h (0 Bft) N-NO 27 1 min 0,000 mm 3,1 UV-I 532 W/m 9,1 C 16,7 C 3,2 km/h (1 Bft) 93,10 %
30.03.2016 14:14 16,7 C 59 % 1012,1 hPa 0,0 l/m 1,7 km/h (1 Bft) N-NO 26 1 min 0,000 mm 3,1 UV-I 570 W/m 8,6 C 16,7 C 4,8 km/h (1 Bft) 100,00 %
30.03.2016 14:15 16,6 C 58 % 1012,1 hPa 0,0 l/m 3,2 km/h (1 Bft) NO 36 1 min 0,000 mm 3,2 UV-I 584 W/m 8,3 C 16,6 C 6,4 km/h (2 Bft) 95,65 %
30.03.2016 14:16 16,6 C 59 % 1012,1 hPa 0,0 l/m 1,3 km/h (1 Bft) N-NO 29 1 min 0,000 mm 3,0 UV-I 599 W/m 8,6 C 16,6 C 3,2 km/h (1 Bft) 100,00 %
30.03.2016 14:17 16,6 C 59 % 1012,1 hPa 0,0 l/m 1,5 km/h (1 Bft) N-NO 29 1 min 0,000 mm 3,1 UV-I 594 W/m 8,6 C 16,6 C 3,2 km/h (1 Bft) 96,15 %
30.03.2016 14:18 16,6 C 62 % 1012,1 hPa 0,0 l/m 1,1 km/h (1 Bft) N 10 1 min 0,000 mm 3,1 UV-I 628 W/m 9,3 C 16,6 C 3,2 km/h (1 Bft) 100,00 %
30.03.2016 14:19 16,6 C 58 % 1012,1 hPa 0,0 l/m 3,3 km/h (1 Bft) N-NO 25 1 min 0,000 mm 3,0 UV-I 613 W/m 8,3 C 16,6 C 4,8 km/h (1 Bft) 88,46 %
30.03.2016 14:20 16,6 C 61 % 1012,1 hPa 0,0 l/m 1,8 km/h (1 Bft) N-NO 27 1 min 0,000 mm 3,1 UV-I 587 W/m 9,0 C 16,6 C 3,2 km/h (1 Bft) 100,00 %
30.03.2016 14:21 16,6 C 60 % 1012,1 hPa 0,0 l/m 3,2 km/h (1 Bft) N-NO 28 1 min 0,000 mm 3,1 UV-I 647 W/m 8,8 C 16,6 C 6,4 km/h (2 Bft) 95,65 %
30.03.2016 14:22 16,8 C 60 % 1012,1 hPa 0,0 l/m 5,4 km/h (1 Bft) N-NO 22 1 min 0,000 mm 2,9 UV-I 580 W/m 9,0 C 16,8 C 8,0 km/h (2 Bft) 95,83 %
30.03.2016 14:23 16,9 C 66 % 1012,1 hPa 0,0 l/m 6,4 km/h (2 Bft) N-NO 17 1 min 0,000 mm 2,7 UV-I 486 W/m 10,5 C 16,9 C 9,7 km/h (2 Bft) 100,00 %
30.03.2016 14:24 17,0 C 68 % 1012,1 hPa 0,0 l/m 6,6 km/h (2 Bft) N-NO 28 1 min 0,000 mm 2,6 UV-I 447 W/m 11,0 C 16,9 C 8,0 km/h (2 Bft) 91,67 %
30.03.2016 14:25 17,0 C 63 % 1012,1 hPa 0,0 l/m 3,8 km/h (1 Bft) N-NO 24 1 min 0,000 mm 2,4 UV-I 430 W/m 9,9 C 17,0 C 8,0 km/h (2 Bft) 100,00 %
30.03.2016 14:26 16,9 C 63 % 1012,1 hPa 0,0 l/m 1,9 km/h (1 Bft) N 5 1 min 0,000 mm 2,5 UV-I 420 W/m 9,8 C 16,9 C 3,2 km/h (1 Bft) 95,83 %
30.03.2016 14:27 16,9 C 66 % 1012,1 hPa 0,0 l/m 1,8 km/h (1 Bft) N-NO 20 1 min 0,000 mm 2,7 UV-I 482 W/m 10,5 C 16,9 C 6,4 km/h (2 Bft) 91,67 %
30.03.2016 14:28 16,9 C 64 % 1012,1 hPa 0,0 l/m 2,1 km/h (1 Bft) NW 311 1 min 0,000 mm 2,4 UV-I 459 W/m 10,0 C 16,9 C 3,2 km/h (1 Bft) 96,15 %
30.03.2016 14:29 16,8 C 62 % 1012,1 hPa 0,0 l/m 0,7 km/h (0 Bft) N-NW 343 0 min 0,000 mm 2,3 UV-I 367 W/m 9,5 C 16,8 C 3,2 km/h (1 Bft) 100,00 %
30.03.2016 14:30 16,8 C 64 % 1012,1 hPa 0,0 l/m 2,0 km/h (1 Bft) NW 315 1 min 0,000 mm 2,4 UV-I 396 W/m 10,0 C 16,8 C 4,8 km/h (1 Bft) 96,15 %
30.03.2016 14:31 16,7 C 61 % 1012,1 hPa 0,0 l/m 2,4 km/h (1 Bft) NW 313 1 min 0,000 mm 2,5 UV-I 452 W/m 9,1 C 16,7 C 3,2 km/h (1 Bft) 96,15 %
30.03.2016 14:32 16,7 C 62 % 1012,1 hPa 0,0 l/m 1,9 km/h (1 Bft) NW 306 1 min 0,000 mm 2,5 UV-I 449 W/m 9,4 C 16,7 C 3,2 km/h (1 Bft) 100,00 %
30.03.2016 14:33 16,7 C 63 % 1012,1 hPa 0,0 l/m 1,8 km/h (1 Bft) W 279 1 min 0,000 mm 2,4 UV-I 392 W/m 9,6 C 16,7 C 4,8 km/h (1 Bft) 100,00 %
30.03.2016 14:34 16,7 C 59 % 1012,0 hPa 0,0 l/m 5,6 km/h (1 Bft) W 268 1 min 0,000 mm 2,6 UV-I 438 W/m 8,6 C 16,7 C 9,7 km/h (2 Bft) 97,56 %
30.03.2016 14:35 16,7 C 58 % 1012,0 hPa 0,0 l/m 4,0 km/h (1 Bft) W 261 1 min 0,000 mm 2,6 UV-I 522 W/m 8,4 C 16,7 C 4,8 km/h (1 Bft) 95,83 %
30.03.2016 14:36 16,7 C 61 % 1012,0 hPa 0,0 l/m 2,4 km/h (1 Bft) W 261 1 min 0,000 mm 2,6 UV-I 482 W/m 9,1 C 16,7 C 3,2 km/h (1 Bft) 100,00 %
30.03.2016 14:37 16,8 C 61 % 1012,0 hPa 0,0 l/m 1,1 km/h (1 Bft) NW 318 1 min 0,000 mm 2,5 UV-I 459 W/m 9,2 C 16,8 C 1,6 km/h (1 Bft) 100,00 %
30.03.2016 14:38 16,8 C 63 % 1011,9 hPa 0,0 l/m 0,7 km/h (0 Bft) N-NW 333 1 min 0,000 mm 2,2 UV-I 376 W/m 9,7 C 16,8 C 1,6 km/h (1 Bft) 100,00 %
30.03.2016 14:39 16,8 C 65 % 1011,9 hPa 0,0 l/m 2,7 km/h (1 Bft) NW 320 1 min 0,000 mm 2,6 UV-I 454 W/m 10,2 C 16,8 C 4,8 km/h (1 Bft) 100,00 %
30.03.2016 14:40 16,9 C 60 % 1011,9 hPa 0,0 l/m 1,5 km/h (1 Bft) NW 315 1 min 0,000 mm 2,7 UV-I 485 W/m 9,1 C 16,9 C 3,2 km/h (1 Bft) 100,00 %
30.03.2016 14:41 16,9 C 62 % 1011,9 hPa 0,0 l/m 2,7 km/h (1 Bft) NW 321 1 min 0,000 mm 2,7 UV-I 554 W/m 9,6 C 16,9 C 4,8 km/h (1 Bft) 100,00 %
30.03.2016 14:42 17,0 C 62 % 1011,8 hPa 0,0 l/m 2,3 km/h (1 Bft) N-NW 337 1 min 0,000 mm 2,6 UV-I 552 W/m 9,7 C 17,0 C 3,2 km/h (1 Bft) 95,65 %
30.03.2016 14:43 16,9 C 58 % 1011,9 hPa 0,0 l/m 1,5 km/h (1 Bft) NW 314 1 min 0,000 mm 2,5 UV-I 522 W/m 8,6 C 16,9 C 3,2 km/h (1 Bft) 100,00 %
30.03.2016 14:44 16,9 C 58 % 1011,8 hPa 0,0 l/m 0,3 km/h (0 Bft) NW 314 1 min 0,000 mm 2,2 UV-I 512 W/m 8,6 C 16,9 C 1,6 km/h (1 Bft) 92,86 %
30.03.2016 14:45 16,8 C 61 % 1011,8 hPa 0,0 l/m 1,7 km/h (1 Bft) NO 37 1 min 0,000 mm 2,3 UV-I 512 W/m 9,2 C 16,8 C 4,8 km/h (1 Bft) 100,00 %
30.03.2016 14:46 16,8 C 61 % 1011,8 hPa 0,0 l/m 4,3 km/h (1 Bft) N-NO 31 1 min 0,000 mm 2,5 UV-I 475 W/m 9,2 C 16,8 C 8,0 km/h (2 Bft) 96,15 %
30.03.2016 14:47 16,8 C 58 % 1011,8 hPa 0,0 l/m 5,3 km/h (1 Bft) W 269 1 min 0,000 mm 2,3 UV-I 452 W/m 8,5 C 16,8 C 11,3 km/h (2 Bft) 100,00 %
30.03.2016 14:48 16,8 C 59 % 1011,8 hPa 0,0 l/m 4,1 km/h (1 Bft) NW 316 1 min 0,000 mm 2,4 UV-I 512 W/m 8,7 C 16,8 C 8,0 km/h (2 Bft) 100,00 %
30.03.2016 14:49 16,8 C 60 % 1011,9 hPa 0,0 l/m 2,7 km/h (1 Bft) N-NW 339 1 min 0,000 mm 2,4 UV-I 476 W/m 9,0 C 16,8 C 4,8 km/h (1 Bft) 96,55 %
30.03.2016 14:50 16,9 C 61 % 1011,8 hPa 0,0 l/m 2,7 km/h (1 Bft) W-NW 300 1 min 0,000 mm 2,6 UV-I 531 W/m 9,3 C 16,9 C 4,8 km/h (1 Bft) 100,00 %
30.03.2016 14:51 16,9 C 61 % 1011,9 hPa 0,0 l/m 4,2 km/h (1 Bft) N 350 1 min 0,000 mm 2,5 UV-I 547 W/m 9,3 C 16,9 C 6,4 km/h (2 Bft) 100,00 %
30.03.2016 14:52 17,0 C 62 % 1011,9 hPa 0,0 l/m 1,6 km/h (1 Bft) NW 315 1 min 0,000 mm 2,3 UV-I 521 W/m 9,7 C 17,0 C 3,2 km/h (1 Bft) 100,00 %
30.03.2016 14:53 16,9 C 59 % 1011,9 hPa 0,0 l/m 3,0 km/h (1 Bft) NW 315 1 min 0,000 mm 2,4 UV-I 491 W/m 8,8 C 16,9 C 4,8 km/h (1 Bft) 100,00 %
30.03.2016 14:54 17,0 C 60 % 1011,9 hPa 0,0 l/m 3,8 km/h (1 Bft) NW 315 1 min 0,000 mm 2,3 UV-I 453 W/m 9,2 C 17,0 C 6,4 km/h (2 Bft) 100,00 %
30.03.2016 14:55 16,9 C 58 % 1011,9 hPa 0,0 l/m 3,6 km/h (1 Bft) W-NW 297 1 min 0,000 mm 2,4 UV-I 497 W/m 8,6 C 16,9 C 6,4 km/h (2 Bft) 100,00 %
30.03.2016 14:56 16,9 C 59 % 1012,0 hPa 0,0 l/m 4,0 km/h (1 Bft) W-NW 286 1 min 0,000 mm 2,5 UV-I 491 W/m 8,8 C 16,9 C 4,8 km/h (1 Bft) 100,00 %
30.03.2016 14:57 16,9 C 58 % 1011,9 hPa 0,0 l/m 2,6 km/h (1 Bft) N-NW 329 1 min 0,000 mm 2,6 UV-I 491 W/m 8,6 C 16,9 C 4,8 km/h (1 Bft) 100,00 %
30.03.2016 14:58 17,0 C 61 % 1011,9 hPa 0,0 l/m 2,1 km/h (1 Bft) N-NW 329 1 min 0,000 mm 2,6 UV-I 562 W/m 9,4 C 17,0 C 3,2 km/h (1 Bft) 100,00 %
30.03.2016 14:59 17,0 C 59 % 1011,9 hPa 0,0 l/m 3,2 km/h (1 Bft) NW 307 1 min 0,000 mm 2,7 UV-I 576 W/m 8,9 C 17,0 C 4,8 km/h (1 Bft) 100,00 %
30.03.2016 15:00 17,1 C 59 % 1011,9 hPa 0,0 l/m 1,9 km/h (1 Bft) NW 308 1 min 0,000 mm 2,6 UV-I 578 W/m 9,0 C 17,1 C 3,2 km/h (1 Bft) 100,00 %
30.03.2016 15:02 17,2 C 61 % 1011,8 hPa 0,0 l/m 2,6 km/h (1 Bft) W-SW 248 2 min 0,305 mm 2,7 UV-I 596 W/m 9,6 C 17,2 C 6,4 km/h (2 Bft) 100,00 %
30.03.2016 15:03 17,2 C 59 % 1011,8 hPa 0,0 l/m 6,1 km/h (2 Bft) W-SW 258 1 min 0,000 mm 2,7 UV-I 597 W/m 9,1 C 17,2 C 11,3 km/h (2 Bft) 100,00 %
30.03.2016 15:04 17,3 C 59 % 1011,7 hPa 0,0 l/m 6,5 km/h (2 Bft) W 272 1 min 0,000 mm 2,6 UV-I 557 W/m 9,2 C 17,3 C 11,3 km/h (2 Bft) 100,00 %
30.03.2016 15:05 17,2 C 56 % 1011,6 hPa 0,0 l/m 2,4 km/h (1 Bft) W 272 1 min 0,000 mm 2,4 UV-I 499 W/m 8,3 C 17,2 C 4,8 km/h (1 Bft) 91,30 %
30.03.2016 15:06 17,2 C 58 % 1011,6 hPa 0,0 l/m 2,6 km/h (1 Bft) W-SW 251 1 min 0,000 mm 2,5 UV-I 526 W/m 8,9 C 17,2 C 8,0 km/h (2 Bft) 100,00 %
30.03.2016 15:07 17,2 C 57 % 1011,6 hPa 0,0 l/m 6,7 km/h (2 Bft) SW 236 1 min 0,000 mm 2,6 UV-I 544 W/m 8,6 C 17,1 C 11,3 km/h (2 Bft) 100,00 %
30.03.2016 15:08 17,2 C 59 % 1011,5 hPa 0,0 l/m 3,8 km/h (1 Bft) NW 323 1 min 0,000 mm 2,6 UV-I 573 W/m 9,1 C 17,2 C 6,4 km/h (2 Bft) 100,00 %
30.03.2016 15:09 17,2 C 57 % 1011,6 hPa 0,0 l/m 2,5 km/h (1 Bft) NW 322 1 min 0,000 mm 2,6 UV-I 592 W/m 8,6 C 17,2 C 4,8 km/h (1 Bft) 100,00 %
30.03.2016 15:10 17,2 C 57 % 1011,6 hPa 0,0 l/m 2,0 km/h (1 Bft) W-SW 245 1 min 0,000 mm 2,3 UV-I 549 W/m 8,6 C 17,2 C 4,8 km/h (1 Bft) 100,00 %
30.03.2016 15:11 17,2 C 57 % 1011,6 hPa 0,0 l/m 3,6 km/h (1 Bft) SW 224 1 min 0,000 mm 2,3 UV-I 476 W/m 8,6 C 17,2 C 4,8 km/h (1 Bft) 95,65 %
30.03.2016 15:12 17,2 C 58 % 1011,6 hPa 0,0 l/m 2,1 km/h (1 Bft) S-SW 204 1 min 0,000 mm 2,3 UV-I 434 W/m 8,9 C 17,2 C 4,8 km/h (1 Bft) 100,00 %
30.03.2016 15:13 17,1 C 54 % 1011,6 hPa 0,0 l/m 0,5 km/h (0 Bft) S-SW 204 1 min 0,000 mm 2,5 UV-I 417 W/m 7,7 C 17,1 C 1,6 km/h (1 Bft) 100,00 %
30.03.2016 15:14 16,9 C 56 % 1011,6 hPa 0,0 l/m 0,4 km/h (0 Bft) S-SW 204 1 min 0,000 mm 2,4 UV-I 546 W/m 8,1 C 16,9 C 1,6 km/h (1 Bft) 100,00 %
30.03.2016 15:15 17,0 C 59 % 1011,7 hPa 0,0 l/m 5,6 km/h (1 Bft) W-NW 290 1 min 0,000 mm 2,5 UV-I 584 W/m 8,9 C 17,0 C 9,7 km/h (2 Bft) 100,00 %
30.03.2016 15:16 17,0 C 59 % 1011,7 hPa 0,0 l/m 4,1 km/h (1 Bft) W-SW 254 1 min 0,000 mm 2,2 UV-I 492 W/m 8,9 C 17,0 C 6,4 km/h (2 Bft) 100,00 %
30.03.2016 15:17 17,1 C 58 % 1011,7 hPa 0,0 l/m 8,8 km/h (2 Bft) W 259 1 min 0,000 mm 2,2 UV-I 473 W/m 8,8 C 15,9 C 12,9 km/h (3 Bft) 100,00 %
30.03.2016 15:18 17,1 C 60 % 1011,6 hPa 0,0 l/m 4,0 km/h (1 Bft) W-NW 293 1 min 0,000 mm 2,4 UV-I 496 W/m 9,3 C 17,1 C 6,4 km/h (2 Bft) 95,65 %
30.03.2016 15:19 17,1 C 59 % 1011,7 hPa 0,0 l/m 2,2 km/h (1 Bft) N 5 1 min 0,000 mm 2,3 UV-I 499 W/m 9,0 C 17,1 C 4,8 km/h (1 Bft) 100,00 %
30.03.2016 15:20 17,2 C 60 % 1011,7 hPa 0,0 l/m 4,5 km/h (1 Bft) NW 323 1 min 0,000 mm 2,4 UV-I 567 W/m 9,4 C 17,2 C 12,9 km/h (3 Bft) 100,00 %
30.03.2016 15:21 17,2 C 58 % 1011,6 hPa 0,0 l/m 6,0 km/h (2 Bft) W-NW 295 1 min 0,000 mm 2,5 UV-I 605 W/m 8,9 C 17,2 C 11,3 km/h (2 Bft) 100,00 %
30.03.2016 15:22 17,2 C 58 % 1011,6 hPa 0,0 l/m 4,5 km/h (1 Bft) N 350 1 min 0,000 mm 2,6 UV-I 641 W/m 8,9 C 17,2 C 8,0 km/h (2 Bft) 100,00 %
30.03.2016 15:23 17,2 C 58 % 1011,6 hPa 0,0 l/m 4,7 km/h (1 Bft) N-NW 340 1 min 0,000 mm 2,7 UV-I 674 W/m 8,9 C 17,2 C 6,4 km/h (2 Bft) 100,00 %
30.03.2016 15:24 17,3 C 60 % 1011,6 hPa 0,0 l/m 4,3 km/h (1 Bft) NW 306 1 min 0,000 mm 2,6 UV-I 662 W/m 9,5 C 17,3 C 6,4 km/h (2 Bft) 100,00 %
30.03.2016 15:25 17,3 C 59 % 1011,6 hPa 0,0 l/m 3,2 km/h (1 Bft) NW 325 1 min 0,000 mm 2,5 UV-I 611 W/m 9,2 C 17,3 C 4,8 km/h (1 Bft) 100,00 %
30.03.2016 15:26 17,3 C 57 % 1011,6 hPa 0,0 l/m 3,9 km/h (1 Bft) W-NW 290 1 min 0,000 mm 2,6 UV-I 640 W/m 8,7 C 17,3 C 6,4 km/h (2 Bft) 100,00 %
30.03.2016 15:27 17,3 C 59 % 1011,6 hPa 0,0 l/m 4,6 km/h (1 Bft) NW 305 1 min 0,000 mm 2,5 UV-I 643 W/m 9,2 C 17,3 C 6,4 km/h (2 Bft) 96,15 %
30.03.2016 15:28 17,3 C 56 % 1011,5 hPa 0,0 l/m 5,0 km/h (1 Bft) W 281 1 min 0,000 mm 2,4 UV-I 601 W/m 8,4 C 17,3 C 8,0 km/h (2 Bft) 100,00 %
30.03.2016 15:29 17,3 C 55 % 1011,5 hPa 0,0 l/m 5,0 km/h (1 Bft) NW 304 1 min 0,000 mm 2,2 UV-I 491 W/m 8,2 C 17,3 C 8,0 km/h (2 Bft) 100,00 %
30.03.2016 15:30 17,2 C 57 % 1011,5 hPa 0,0 l/m 1,1 km/h (1 Bft) NW 313 1 min 0,000 mm 2,2 UV-I 462 W/m 8,6 C 17,2 C 3,2 km/h (1 Bft) 100,00 %
30.03.2016 15:31 17,2 C 59 % 1011,5 hPa 0,0 l/m 2,9 km/h (1 Bft) NW 325 1 min 0,000 mm 2,2 UV-I 446 W/m 9,1 C 17,2 C 6,4 km/h (2 Bft) 91,67 %
30.03.2016 15:32 17,2 C 56 % 1011,5 hPa 0,0 l/m 2,1 km/h (1 Bft) N-NW 340 1 min 0,000 mm 2,5 UV-I 494 W/m 8,3 C 17,2 C 3,2 km/h (1 Bft) 100,00 %
30.03.2016 15:33 17,2 C 57 % 1011,5 hPa 0,0 l/m 1,2 km/h (1 Bft) N 11 1 min 0,000 mm 2,5 UV-I 629 W/m 8,6 C 17,2 C 3,2 km/h (1 Bft) 100,00 %
30.03.2016 15:34 17,3 C 61 % 1011,5 hPa 0,0 l/m 2,7 km/h (1 Bft) N 5 1 min 0,000 mm 2,4 UV-I 621 W/m 9,7 C 17,3 C 4,8 km/h (1 Bft) 100,00 %
30.03.2016 15:35 17,4 C 56 % 1011,4 hPa 0,0 l/m 3,5 km/h (1 Bft) N 5 1 min 0,000 mm 2,4 UV-I 625 W/m 8,5 C 17,4 C 6,4 km/h (2 Bft) 100,00 %
30.03.2016 15:36 17,4 C 55 % 1011,4 hPa 0,0 l/m 1,7 km/h (1 Bft) N 11 1 min 0,000 mm 2,4 UV-I 625 W/m 8,3 C 17,4 C 3,2 km/h (1 Bft) 100,00 %
30.03.2016 15:37 17,5 C 61 % 1011,4 hPa 0,0 l/m 6,0 km/h (2 Bft) W-NW 299 1 min 0,000 mm 2,4 UV-I 609 W/m 9,9 C 17,5 C 8,0 km/h (2 Bft) 100,00 %
30.03.2016 15:38 17,5 C 57 % 1011,4 hPa 0,0 l/m 3,5 km/h (1 Bft) N-NW 346 1 min 0,000 mm 2,3 UV-I 617 W/m 8,9 C 17,5 C 6,4 km/h (2 Bft) 100,00 %
30.03.2016 15:39 17,6 C 57 % 1011,4 hPa 0,0 l/m 2,4 km/h (1 Bft) W 277 1 min 0,000 mm 2,3 UV-I 610 W/m 9,0 C 17,6 C 6,4 km/h (2 Bft) 96,88 %
30.03.2016 15:40 17,7 C 60 % 1011,3 hPa 0,0 l/m 2,7 km/h (1 Bft) NW 321 1 min 0,000 mm 2,2 UV-I 622 W/m 9,8 C 17,7 C 4,8 km/h (1 Bft) 100,00 %
30.03.2016 15:41 17,7 C 61 % 1011,3 hPa 0,0 l/m 1,8 km/h (1 Bft) W-NW 290 1 min 0,000 mm 2,2 UV-I 622 W/m 10,1 C 17,7 C 3,2 km/h (1 Bft) 100,00 %
30.03.2016 15:42 17,7 C 58 % 1011,3 hPa 0,0 l/m 2,7 km/h (1 Bft) W-NW 298 1 min 0,000 mm 1,8 UV-I 622 W/m 9,3 C 17,7 C 6,4 km/h (2 Bft) 96,30 %
30.03.2016 15:43 17,7 C 60 % 1011,3 hPa 0,0 l/m 2,4 km/h (1 Bft) NW 323 1 min 0,000 mm 1,5 UV-I 584 W/m 9,8 C 17,7 C 4,8 km/h (1 Bft) 100,00 %
30.03.2016 15:44 17,6 C 59 % 1011,3 hPa 0,0 l/m 3,9 km/h (1 Bft) NW 319 0 min 0,000 mm 1,6 UV-I 262 W/m 9,5 C 17,6 C 4,8 km/h (1 Bft) 100,00 %
30.03.2016 15:45 17,5 C 56 % 1011,3 hPa 0,0 l/m 3,3 km/h (1 Bft) NW 313 0 min 0,000 mm 1,8 UV-I 311 W/m 8,6 C 17,5 C 6,4 km/h (2 Bft) 96,15 %
30.03.2016 15:46 17,3 C 57 % 1011,3 hPa 0,0 l/m 1,9 km/h (1 Bft) N-NW 327 0 min 0,000 mm 1,8 UV-I 311 W/m 8,7 C 17,3 C 3,2 km/h (1 Bft) 100,00 %
30.03.2016 15:47 17,3 C 58 % 1011,3 hPa 0,0 l/m 1,3 km/h (1 Bft) N-NW 327 0 min 0,000 mm 1,9 UV-I 311 W/m 9,0 C 17,3 C 3,2 km/h (1 Bft) 100,00 %
30.03.2016 15:48 17,3 C 60 % 1011,3 hPa 0,0 l/m 4,6 km/h (1 Bft) W 279 1 min 0,000 mm 2,0 UV-I 311 W/m 9,5 C 17,3 C 9,7 km/h (2 Bft) 100,00 %
30.03.2016 15:49 17,3 C 57 % 1011,2 hPa 0,0 l/m 4,3 km/h (1 Bft) W-NW 298 1 min 0,000 mm 2,0 UV-I 489 W/m 8,7 C 17,3 C 6,4 km/h (2 Bft) 100,00 %
30.03.2016 15:50 17,3 C 60 % 1011,3 hPa 0,0 l/m 1,6 km/h (1 Bft) NW 304 1 min 0,000 mm 2,2 UV-I 492 W/m 9,5 C 17,3 C 3,2 km/h (1 Bft) 96,15 %
30.03.2016 15:51 17,4 C 60 % 1011,3 hPa 0,0 l/m 3,8 km/h (1 Bft) NW 312 1 min 0,000 mm 1,9 UV-I 466 W/m 9,6 C 17,4 C 8,0 km/h (2 Bft) 100,00 %
30.03.2016 15:52 17,4 C 59 % 1011,3 hPa 0,0 l/m 4,0 km/h (1 Bft) NW 313 1 min 0,000 mm 1,9 UV-I 447 W/m 9,3 C 17,4 C 6,4 km/h (2 Bft) 100,00 %
30.03.2016 15:53 17,4 C 57 % 1011,2 hPa 0,0 l/m 3,0 km/h (1 Bft) NW 321 1 min 0,000 mm 1,8 UV-I 402 W/m 8,8 C 17,4 C 6,4 km/h (2 Bft) 100,00 %
30.03.2016 15:54 17,4 C 58 % 1011,3 hPa 0,0 l/m 5,0 km/h (1 Bft) N-NW 340 1 min 0,000 mm 1,9 UV-I 376 W/m 9,1 C 17,4 C 6,4 km/h (2 Bft) 100,00 %
30.03.2016 15:55 17,3 C 59 % 1011,2 hPa 0,0 l/m 1,6 km/h (1 Bft) N-NW 340 1 min 0,000 mm 2,0 UV-I 574 W/m 9,2 C 17,3 C 3,2 km/h (1 Bft) 95,83 %
30.03.2016 15:56 17,4 C 60 % 1011,3 hPa 0,0 l/m 1,7 km/h (1 Bft) NW 325 1 min 0,000 mm 2,0 UV-I 567 W/m 9,6 C 17,4 C 3,2 km/h (1 Bft) 100,00 %
30.03.2016 15:57 17,5 C 60 % 1011,2 hPa 0,0 l/m 2,1 km/h (1 Bft) W-SW 248 1 min 0,000 mm 2,0 UV-I 568 W/m 9,6 C 17,5 C 4,8 km/h (1 Bft) 100,00 %
30.03.2016 15:58 17,5 C 59 % 1011,3 hPa 0,0 l/m 0,4 km/h (0 Bft) W-SW 249 1 min 0,000 mm 1,9 UV-I 550 W/m 9,4 C 17,5 C 1,6 km/h (1 Bft) 100,00 %
30.03.2016 15:59 17,6 C 63 % 1011,2 hPa 0,0 l/m 2,8 km/h (1 Bft) N-NO 32 1 min 0,000 mm 2,0 UV-I 555 W/m 10,5 C 17,6 C 4,8 km/h (1 Bft) 100,00 %
30.03.2016 16:00 17,7 C 64 % 1011,3 hPa 0,0 l/m 4,1 km/h (1 Bft) N-NW 335 1 min 0,000 mm 1,9 UV-I 555 W/m 10,8 C 17,7 C 6,4 km/h (2 Bft) 100,00 %
30.03.2016 16:02 17,7 C 58 % 1011,3 hPa 0,0 l/m 1,3 km/h (1 Bft) N-NW 342 2 min 0,304 mm 1,9 UV-I 552 W/m 9,3 C 17,7 C 3,2 km/h (1 Bft) 97,73 %
30.03.2016 16:03 17,7 C 58 % 1011,3 hPa 0,0 l/m 2,6 km/h (1 Bft) N-NW 328 1 min 0,000 mm 1,9 UV-I 546 W/m 9,3 C 17,7 C 3,2 km/h (1 Bft) 95,83 %
30.03.2016 16:04 17,6 C 56 % 1011,3 hPa 0,0 l/m 2,9 km/h (1 Bft) N-NW 331 1 min 0,000 mm 1,8 UV-I 548 W/m 8,7 C 17,6 C 4,8 km/h (1 Bft) 96,15 %
30.03.2016 16:05 17,6 C 57 % 1011,3 hPa 0,0 l/m 4,0 km/h (1 Bft) NW 319 1 min 0,000 mm 1,8 UV-I 457 W/m 9,0 C 17,6 C 6,4 km/h (2 Bft) 100,00 %
30.03.2016 16:06 17,6 C 57 % 1011,3 hPa 0,0 l/m 6,6 km/h (2 Bft) W-NW 300 1 min 0,000 mm 1,8 UV-I 431 W/m 9,0 C 17,5 C 9,7 km/h (2 Bft) 96,15 %
30.03.2016 16:07 17,6 C 57 % 1011,4 hPa 0,0 l/m 6,1 km/h (2 Bft) NO 51 1 min 0,000 mm 1,9 UV-I 432 W/m 9,0 C 17,6 C 8,0 km/h (2 Bft) 100,00 %
30.03.2016 16:08 17,5 C 57 % 1011,4 hPa 0,0 l/m 6,2 km/h (2 Bft) NW 309 1 min 0,000 mm 1,6 UV-I 432 W/m 8,9 C 17,5 C 12,9 km/h (3 Bft) 93,33 %
30.03.2016 16:09 17,5 C 58 % 1011,4 hPa 0,0 l/m 5,2 km/h (1 Bft) NW 321 1 min 0,000 mm 1,9 UV-I 527 W/m 9,1 C 17,5 C 8,0 km/h (2 Bft) 100,00 %
30.03.2016 16:10 17,6 C 59 % 1011,4 hPa 0,0 l/m 3,1 km/h (1 Bft) N-NW 336 1 min 0,000 mm 1,8 UV-I 607 W/m 9,5 C 17,6 C 8,0 km/h (2 Bft) 91,67 %
30.03.2016 16:11 17,5 C 59 % 1011,3 hPa 0,0 l/m 6,2 km/h (2 Bft) W-NW 302 1 min 0,000 mm 1,7 UV-I 545 W/m 9,4 C 17,5 C 11,3 km/h (2 Bft) 100,00 %
30.03.2016 16:12 17,5 C 58 % 1011,3 hPa 0,0 l/m 3,6 km/h (1 Bft) NW 307 1 min 0,000 mm 1,7 UV-I 494 W/m 9,1 C 17,5 C 6,4 km/h (2 Bft) 96,30 %
30.03.2016 16:13 17,5 C 58 % 1011,3 hPa 0,0 l/m 5,2 km/h (1 Bft) W-NW 302 1 min 0,000 mm 1,7 UV-I 482 W/m 9,1 C 17,5 C 8,0 km/h (2 Bft) 96,15 %
30.03.2016 16:14 17,5 C 60 % 1011,2 hPa 0,0 l/m 3,6 km/h (1 Bft) NW 324 1 min 0,000 mm 1,7 UV-I 490 W/m 9,6 C 17,5 C 6,4 km/h (2 Bft) 100,00 %
30.03.2016 16:15 17,6 C 61 % 1011,3 hPa 0,0 l/m 3,1 km/h (1 Bft) N 355 1 min 0,000 mm 1,6 UV-I 452 W/m 10,0 C 17,6 C 4,8 km/h (1 Bft) 100,00 %
30.03.2016 16:16 17,6 C 59 % 1011,2 hPa 0,0 l/m 3,1 km/h (1 Bft) N-NW 341 1 min 0,000 mm 1,6 UV-I 476 W/m 9,5 C 17,6 C 4,8 km/h (1 Bft) 96,30 %
30.03.2016 16:17 17,6 C 58 % 1011,2 hPa 0,0 l/m 2,1 km/h (1 Bft) N-NW 344 1 min 0,000 mm 1,6 UV-I 500 W/m 9,2 C 17,6 C 3,2 km/h (1 Bft) 95,65 %
30.03.2016 16:18 17,6 C 61 % 1011,2 hPa 0,0 l/m 3,6 km/h (1 Bft) NW 307 1 min 0,000 mm 1,6 UV-I 499 W/m 10,0 C 17,6 C 8,0 km/h (2 Bft) 100,00 %
30.03.2016 16:19 17,6 C 58 % 1011,2 hPa 0,0 l/m 6,0 km/h (2 Bft) NW 309 1 min 0,000 mm 1,6 UV-I 496 W/m 9,2 C 17,6 C 11,3 km/h (2 Bft) 95,65 %
30.03.2016 16:20 17,7 C 58 % 1011,2 hPa 0,0 l/m 3,9 km/h (1 Bft) W-NW 300 1 min 0,000 mm 1,6 UV-I 493 W/m 9,3 C 17,7 C 6,4 km/h (2 Bft) 95,83 %
30.03.2016 16:21 17,7 C 58 % 1011,2 hPa 0,0 l/m 2,3 km/h (1 Bft) NW 317 1 min 0,000 mm 1,6 UV-I 463 W/m 9,3 C 17,7 C 4,8 km/h (1 Bft) 95,65 %
30.03.2016 16:22 17,7 C 59 % 1011,2 hPa 0,0 l/m 1,4 km/h (1 Bft) NW 305 1 min 0,000 mm 1,5 UV-I 470 W/m 9,6 C 17,7 C 3,2 km/h (1 Bft) 96,30 %
30.03.2016 16:23 17,7 C 58 % 1011,2 hPa 0,0 l/m 3,0 km/h (1 Bft) W 265 1 min 0,000 mm 1,5 UV-I 492 W/m 9,3 C 17,7 C 4,8 km/h (1 Bft) 100,00 %
30.03.2016 16:24 17,6 C 59 % 1011,2 hPa 0,0 l/m 2,0 km/h (1 Bft) W-NW 282 1 min 0,000 mm 1,5 UV-I 492 W/m 9,5 C 17,6 C 3,2 km/h (1 Bft) 95,83 %
30.03.2016 16:25 17,6 C 58 % 1011,2 hPa 0,0 l/m 0,9 km/h (0 Bft) N-NW 327 1 min 0,000 mm 1,5 UV-I 491 W/m 9,2 C 17,6 C 3,2 km/h (1 Bft) 100,00 %
30.03.2016 16:26 17,7 C 62 % 1011,2 hPa 0,0 l/m 2,0 km/h (1 Bft) NW 322 1 min 0,000 mm 1,5 UV-I 487 W/m 10,3 C 17,7 C 3,2 km/h (1 Bft) 96,30 %
30.03.2016 16:27 17,7 C 61 % 1011,2 hPa 0,0 l/m 3,2 km/h (1 Bft) W-NW 286 1 min 0,000 mm 1,5 UV-I 482 W/m 10,1 C 17,7 C 4,8 km/h (1 Bft) 100,00 %
30.03.2016 16:28 17,7 C 60 % 1011,2 hPa 0,0 l/m 2,3 km/h (1 Bft) W-NW 297 1 min 0,000 mm 1,5 UV-I 468 W/m 9,8 C 17,7 C 3,2 km/h (1 Bft) 93,10 %
30.03.2016 16:29 17,7 C 58 % 1011,2 hPa 0,0 l/m 4,1 km/h (1 Bft) N-NO 21 1 min 0,000 mm 1,4 UV-I 426 W/m 9,3 C 17,7 C 6,4 km/h (2 Bft) 100,00 %
30.03.2016 16:30 17,7 C 61 % 1011,3 hPa 0,0 l/m 3,2 km/h (1 Bft) W-NW 296 1 min 0,000 mm 1,4 UV-I 459 W/m 10,1 C 17,7 C 8,0 km/h (2 Bft) 96,30 %
30.03.2016 16:31 17,7 C 57 % 1011,2 hPa 0,0 l/m 4,5 km/h (1 Bft) N-NW 328 1 min 0,000 mm 1,4 UV-I 458 W/m 9,1 C 17,7 C 6,4 km/h (2 Bft) 95,65 %
30.03.2016 16:32 17,7 C 57 % 1011,3 hPa 0,0 l/m 3,9 km/h (1 Bft) NW 313 1 min 0,000 mm 1,4 UV-I 472 W/m 9,1 C 17,7 C 9,7 km/h (2 Bft) 100,00 %
30.03.2016 16:33 17,7 C 58 % 1011,3 hPa 0,0 l/m 3,8 km/h (1 Bft) W-NW 296 1 min 0,000 mm 1,4 UV-I 469 W/m 9,3 C 17,7 C 6,4 km/h (2 Bft) 91,67 %
30.03.2016 16:34 17,7 C 60 % 1011,3 hPa 0,0 l/m 7,4 km/h (2 Bft) NW 323 1 min 0,000 mm 1,3 UV-I 465 W/m 9,8 C 17,2 C 11,3 km/h (2 Bft) 100,00 %
30.03.2016 16:35 17,7 C 61 % 1011,3 hPa 0,0 l/m 1,7 km/h (1 Bft) NW 305 1 min 0,000 mm 1,3 UV-I 455 W/m 10,1 C 17,7 C 4,8 km/h (1 Bft) 95,83 %
30.03.2016 16:36 17,8 C 58 % 1011,4 hPa 0,0 l/m 5,8 km/h (2 Bft) W-SW 244 1 min 0,000 mm 1,3 UV-I 450 W/m 9,4 C 17,8 C 11,3 km/h (2 Bft) 100,00 %
30.03.2016 16:37 17,7 C 58 % 1011,3 hPa 0,0 l/m 4,9 km/h (1 Bft) N 355 1 min 0,000 mm 1,3 UV-I 440 W/m 9,3 C 17,7 C 6,4 km/h (2 Bft) 100,00 %
30.03.2016 16:38 17,7 C 61 % 1011,4 hPa 0,0 l/m 6,6 km/h (2 Bft) NW 315 1 min 0,000 mm 1,2 UV-I 490 W/m 10,1 C 17,6 C 12,9 km/h (3 Bft) 95,65 %
30.03.2016 16:39 17,7 C 60 % 1011,4 hPa 0,0 l/m 4,5 km/h (1 Bft) NW 320 1 min 0,000 mm 1,2 UV-I 488 W/m 9,8 C 17,7 C 8,0 km/h (2 Bft) 100,00 %
30.03.2016 16:40 17,7 C 57 % 1011,4 hPa 0,0 l/m 4,0 km/h (1 Bft) W-NW 302 1 min 0,000 mm 1,3 UV-I 536 W/m 9,1 C 17,7 C 6,4 km/h (2 Bft) 100,00 %
30.03.2016 16:41 17,6 C 57 % 1011,4 hPa 0,0 l/m 2,8 km/h (1 Bft) N-NW 334 1 min 0,000 mm 1,1 UV-I 544 W/m 9,0 C 17,6 C 8,0 km/h (2 Bft) 96,30 %
30.03.2016 16:42 17,5 C 61 % 1011,4 hPa 0,0 l/m 1,1 km/h (1 Bft) NW 323 0 min 0,000 mm 1,0 UV-I 198 W/m 9,9 C 17,5 C 3,2 km/h (1 Bft) 100,00 %
30.03.2016 16:43 17,4 C 61 % 1011,4 hPa 0,0 l/m 3,6 km/h (1 Bft) W-NW 294 1 min 0,000 mm 1,2 UV-I 251 W/m 9,8 C 17,4 C 6,4 km/h (2 Bft) 100,00 %
30.03.2016 16:44 17,3 C 60 % 1011,4 hPa 0,0 l/m 2,0 km/h (1 Bft) N-NO 17 1 min 0,000 mm 1,1 UV-I 251 W/m 9,5 C 17,3 C 4,8 km/h (1 Bft) 100,00 %
30.03.2016 16:45 17,3 C 59 % 1011,4 hPa 0,0 l/m 2,5 km/h (1 Bft) N-NW 336 1 min 0,000 mm 1,0 UV-I 251 W/m 9,2 C 17,3 C 4,8 km/h (1 Bft) 96,30 %
30.03.2016 16:46 17,3 C 59 % 1011,4 hPa 0,0 l/m 2,5 km/h (1 Bft) N-NW 346 1 min 0,000 mm 1,1 UV-I 318 W/m 9,2 C 17,3 C 4,8 km/h (1 Bft) 100,00 %
30.03.2016 16:47 17,3 C 63 % 1011,4 hPa 0,0 l/m 4,1 km/h (1 Bft) W-SW 238 1 min 0,000 mm 1,0 UV-I 341 W/m 10,2 C 17,3 C 6,4 km/h (2 Bft) 100,00 %
30.03.2016 16:48 17,3 C 61 % 1011,4 hPa 0,0 l/m 5,0 km/h (1 Bft) W-NW 294 1 min 0,000 mm 1,0 UV-I 341 W/m 9,7 C 17,3 C 8,0 km/h (2 Bft) 100,00 %
30.03.2016 16:49 17,4 C 62 % 1011,4 hPa 0,0 l/m 4,9 km/h (1 Bft) W-NW 302 1 min 0,000 mm 0,9 UV-I 304 W/m 10,0 C 17,4 C 8,0 km/h (2 Bft) 100,00 %
30.03.2016 16:50 17,4 C 60 % 1011,4 hPa 0,0 l/m 4,4 km/h (1 Bft) W 279 1 min 0,000 mm 0,9 UV-I 283 W/m 9,6 C 17,4 C 9,7 km/h (2 Bft) 100,00 %
30.03.2016 16:51 17,4 C 59 % 1011,4 hPa 0,0 l/m 6,4 km/h (2 Bft) NW 306 1 min 0,000 mm 0,8 UV-I 250 W/m 9,3 C 17,4 C 9,7 km/h (2 Bft) 100,00 %
30.03.2016 16:52 17,4 C 59 % 1011,5 hPa 0,0 l/m 2,7 km/h (1 Bft) NW 315 0 min 0,000 mm 0,8 UV-I 221 W/m 9,3 C 17,4 C 6,4 km/h (2 Bft) 100,00 %
30.03.2016 16:53 17,4 C 59 % 1011,5 hPa 0,0 l/m 4,1 km/h (1 Bft) NW 326 0 min 0,000 mm 0,8 UV-I 224 W/m 9,3 C 17,4 C 9,7 km/h (2 Bft) 100,00 %
30.03.2016 16:54 17,4 C 60 % 1011,5 hPa 0,0 l/m 1,8 km/h (1 Bft) NW 306 1 min 0,000 mm 0,8 UV-I 250 W/m 9,6 C 17,4 C 3,2 km/h (1 Bft) 100,00 %
30.03.2016 16:55 17,3 C 60 % 1011,5 hPa 0,0 l/m 3,1 km/h (1 Bft) W 272 1 min 0,000 mm 0,8 UV-I 250 W/m 9,5 C 17,3 C 6,4 km/h (2 Bft) 100,00 %
30.03.2016 16:56 17,3 C 61 % 1011,5 hPa 0,0 l/m 2,4 km/h (1 Bft) NW 322 1 min 0,000 mm 0,8 UV-I 254 W/m 9,7 C 17,3 C 3,2 km/h (1 Bft) 100,00 %
30.03.2016 16:57 17,3 C 60 % 1011,5 hPa 0,0 l/m 2,4 km/h (1 Bft) W 271 1 min 0,000 mm 0,9 UV-I 289 W/m 9,5 C 17,3 C 4,8 km/h (1 Bft) 96,15 %
30.03.2016 16:58 17,3 C 61 % 1011,5 hPa 0,0 l/m 5,9 km/h (2 Bft) W-NW 285 1 min 0,000 mm 0,8 UV-I 300 W/m 9,7 C 17,3 C 11,3 km/h (2 Bft) 93,33 %
30.03.2016 16:59 17,3 C 60 % 1011,5 hPa 0,0 l/m 8,2 km/h (2 Bft) W-NW 295 1 min 0,000 mm 0,8 UV-I 371 W/m 9,5 C 16,4 C 16,1 km/h (3 Bft) 100,00 %
30.03.2016 17:00 17,4 C 59 % 1011,5 hPa 0,0 l/m 2,6 km/h (1 Bft) W 274 1 min 0,000 mm 0,9 UV-I 486 W/m 9,3 C 17,4 C 4,8 km/h (1 Bft) 100,00 %
30.03.2016 17:02 17,7 C 63 % 1011,5 hPa 0,0 l/m 2,0 km/h (1 Bft) W-NW 291 2 min 0,254 mm 1,0 UV-I 546 W/m 10,6 C 17,7 C 6,4 km/h (2 Bft) 100,00 %
30.03.2016 17:03 17,8 C 63 % 1011,5 hPa 0,0 l/m 3,0 km/h (1 Bft) NW 309 1 min 0,000 mm 1,0 UV-I 513 W/m 10,7 C 17,8 C 6,4 km/h (2 Bft) 100,00 %
30.03.2016 17:04 17,9 C 61 % 1011,4 hPa 0,0 l/m 2,3 km/h (1 Bft) NW 309 1 min 0,000 mm 1,0 UV-I 476 W/m 10,3 C 17,9 C 4,8 km/h (1 Bft) 100,00 %
30.03.2016 17:05 17,9 C 58 % 1011,4 hPa 0,0 l/m 3,8 km/h (1 Bft) W 261 1 min 0,000 mm 1,0 UV-I 433 W/m 9,5 C 17,9 C 6,4 km/h (2 Bft) 100,00 %
30.03.2016 17:06 18,0 C 58 % 1011,4 hPa 0,0 l/m 6,4 km/h (2 Bft) NW 317 1 min 0,000 mm 0,9 UV-I 399 W/m 9,6 C 18,0 C 12,9 km/h (3 Bft) 100,00 %
30.03.2016 17:07 18,0 C 58 % 1011,4 hPa 0,0 l/m 4,0 km/h (1 Bft) W-NW 289 1 min 0,000 mm 0,9 UV-I 377 W/m 9,6 C 18,0 C 6,4 km/h (2 Bft) 100,00 %
30.03.2016 17:08 17,9 C 55 % 1011,4 hPa 0,0 l/m 4,6 km/h (1 Bft) NW 313 1 min 0,000 mm 0,9 UV-I 363 W/m 8,7 C 17,9 C 8,0 km/h (2 Bft) 100,00 %
30.03.2016 17:09 17,8 C 58 % 1011,3 hPa 0,0 l/m 3,1 km/h (1 Bft) W-SW 252 1 min 0,000 mm 0,9 UV-I 354 W/m 9,4 C 17,8 C 4,8 km/h (1 Bft) 100,00 %
30.03.2016 17:10 17,8 C 55 % 1011,3 hPa 0,0 l/m 2,9 km/h (1 Bft) W-NW 292 1 min 0,000 mm 0,8 UV-I 346 W/m 8,6 C 17,8 C 4,8 km/h (1 Bft) 100,00 %
30.03.2016 17:11 17,8 C 58 % 1011,3 hPa 0,0 l/m 6,1 km/h (2 Bft) W 281 1 min 0,000 mm 0,8 UV-I 338 W/m 9,4 C 17,8 C 9,7 km/h (2 Bft) 100,00 %
30.03.2016 17:12 17,8 C 56 % 1011,3 hPa 0,0 l/m 3,0 km/h (1 Bft) NW 304 1 min 0,000 mm 0,8 UV-I 335 W/m 8,9 C 17,8 C 4,8 km/h (1 Bft) 100,00 %
30.03.2016 17:13 17,7 C 58 % 1011,3 hPa 0,0 l/m 3,5 km/h (1 Bft) N-NW 327 1 min 0,000 mm 0,8 UV-I 329 W/m 9,3 C 17,7 C 4,8 km/h (1 Bft) 100,00 %
30.03.2016 17:14 17,7 C 59 % 1011,3 hPa 0,0 l/m 6,4 km/h (2 Bft) NW 325 1 min 0,000 mm 0,8 UV-I 326 W/m 9,6 C 17,7 C 11,3 km/h (2 Bft) 100,00 %
30.03.2016 17:15 17,7 C 59 % 1011,3 hPa 0,0 l/m 4,6 km/h (1 Bft) NW 317 1 min 0,000 mm 0,8 UV-I 322 W/m 9,6 C 17,7 C 9,7 km/h (2 Bft) 100,00 %
30.03.2016 17:16 17,7 C 59 % 1011,3 hPa 0,0 l/m 5,2 km/h (1 Bft) W-NW 300 1 min 0,000 mm 0,8 UV-I 318 W/m 9,6 C 17,7 C 8,0 km/h (2 Bft) 100,00 %
30.03.2016 17:17 17,6 C 60 % 1011,3 hPa 0,0 l/m 2,5 km/h (1 Bft) NW 305 1 min 0,000 mm 0,7 UV-I 316 W/m 9,7 C 17,6 C 4,8 km/h (1 Bft) 100,00 %
30.03.2016 17:18 17,6 C 60 % 1011,3 hPa 0,0 l/m 3,6 km/h (1 Bft) W 275 1 min 0,000 mm 0,7 UV-I 318 W/m 9,7 C 17,6 C 6,4 km/h (2 Bft) 100,00 %
30.03.2016 17:19 17,6 C 58 % 1011,3 hPa 0,0 l/m 4,1 km/h (1 Bft) W-NW 288 1 min 0,000 mm 0,7 UV-I 318 W/m 9,2 C 17,6 C 6,4 km/h (2 Bft) 100,00 %
30.03.2016 17:20 17,6 C 60 % 1011,3 hPa 0,0 l/m 3,8 km/h (1 Bft) W 281 1 min 0,000 mm 0,7 UV-I 310 W/m 9,7 C 17,6 C 9,7 km/h (2 Bft) 100,00 %
30.03.2016 17:21 17,6 C 61 % 1011,3 hPa 0,0 l/m 3,1 km/h (1 Bft) W-SW 238 1 min 0,000 mm 0,7 UV-I 296 W/m 10,0 C 17,6 C 6,4 km/h (2 Bft) 100,00 %
30.03.2016 17:22 17,6 C 61 % 1011,3 hPa 0,0 l/m 1,4 km/h (1 Bft) N-NW 341 1 min 0,000 mm 0,7 UV-I 314 W/m 10,0 C 17,6 C 3,2 km/h (1 Bft) 92,86 %
30.03.2016 17:23 17,6 C 61 % 1011,3 hPa 0,0 l/m 2,6 km/h (1 Bft) NW 323 1 min 0,000 mm 0,6 UV-I 270 W/m 10,0 C 17,6 C 4,8 km/h (1 Bft) 100,00 %
30.03.2016 17:24 17,5 C 57 % 1011,3 hPa 0,0 l/m 1,3 km/h (1 Bft) N-NW 333 1 min 0,000 mm 0,6 UV-I 297 W/m 8,9 C 17,5 C 3,2 km/h (1 Bft) 96,15 %
30.03.2016 17:25 17,4 C 58 % 1011,3 hPa 0,0 l/m 1,5 km/h (1 Bft) NW 326 1 min 0,000 mm 0,6 UV-I 362 W/m 9,1 C 17,4 C 3,2 km/h (1 Bft) 100,00 %
30.03.2016 17:26 17,3 C 60 % 1011,4 hPa 0,0 l/m 5,2 km/h (1 Bft) W 265 1 min 0,000 mm 0,6 UV-I 296 W/m 9,5 C 17,3 C 8,0 km/h (2 Bft) 100,00 %
30.03.2016 17:27 17,4 C 60 % 1011,4 hPa 0,0 l/m 3,8 km/h (1 Bft) W-NW 303 1 min 0,000 mm 0,6 UV-I 274 W/m 9,6 C 17,4 C 6,4 km/h (2 Bft) 100,00 %
30.03.2016 17:28 17,4 C 58 % 1011,4 hPa 0,0 l/m 4,0 km/h (1 Bft) W-NW 301 1 min 0,000 mm 0,6 UV-I 385 W/m 9,1 C 17,4 C 4,8 km/h (1 Bft) 96,67 %
30.03.2016 17:29 17,4 C 59 % 1011,5 hPa 0,0 l/m 4,8 km/h (1 Bft) N-NW 335 1 min 0,000 mm 0,6 UV-I 381 W/m 9,3 C 17,4 C 9,7 km/h (2 Bft) 100,00 %
30.03.2016 17:30 17,4 C 62 % 1011,5 hPa 0,0 l/m 3,9 km/h (1 Bft) W-NW 292 1 min 0,000 mm 0,6 UV-I 372 W/m 10,0 C 17,4 C 6,4 km/h (2 Bft) 100,00 %
30.03.2016 17:31 17,5 C 61 % 1011,5 hPa 0,0 l/m 4,1 km/h (1 Bft) W-SW 248 1 min 0,000 mm 0,6 UV-I 364 W/m 9,9 C 17,5 C 6,4 km/h (2 Bft) 100,00 %
30.03.2016 17:32 17,6 C 62 % 1011,5 hPa 0,0 l/m 4,2 km/h (1 Bft) N-NW 345 1 min 0,000 mm 0,6 UV-I 348 W/m 10,2 C 17,6 C 6,4 km/h (2 Bft) 100,00 %
30.03.2016 17:33 17,6 C 60 % 1011,5 hPa 0,0 l/m 5,8 km/h (2 Bft) W-NW 292 1 min 0,000 mm 0,6 UV-I 324 W/m 9,7 C 17,6 C 9,7 km/h (2 Bft) 95,65 %
30.03.2016 17:34 17,6 C 60 % 1011,5 hPa 0,0 l/m 3,8 km/h (1 Bft) N-NW 338 1 min 0,000 mm 0,6 UV-I 302 W/m 9,7 C 17,6 C 6,4 km/h (2 Bft) 100,00 %
30.03.2016 17:35 17,5 C 60 % 1011,5 hPa 0,0 l/m 2,8 km/h (1 Bft) NW 304 1 min 0,000 mm 0,5 UV-I 285 W/m 9,6 C 17,5 C 4,8 km/h (1 Bft) 100,00 %
30.03.2016 17:36 17,5 C 61 % 1011,5 hPa 0,0 l/m 3,1 km/h (1 Bft) NW 325 1 min 0,000 mm 0,5 UV-I 277 W/m 9,9 C 17,5 C 4,8 km/h (1 Bft) 95,83 %
30.03.2016 17:37 17,4 C 63 % 1011,5 hPa 0,0 l/m 3,9 km/h (1 Bft) W-NW 302 1 min 0,000 mm 0,5 UV-I 272 W/m 10,3 C 17,4 C 6,4 km/h (2 Bft) 100,00 %
30.03.2016 17:38 17,4 C 60 % 1011,5 hPa 0,0 l/m 4,8 km/h (1 Bft) W-NW 292 1 min 0,000 mm 0,5 UV-I 268 W/m 9,6 C 17,4 C 9,7 km/h (2 Bft) 100,00 %
30.03.2016 17:39 17,3 C 60 % 1011,5 hPa 0,0 l/m 3,5 km/h (1 Bft) NW 309 1 min 0,000 mm 0,5 UV-I 263 W/m 9,5 C 17,3 C 6,4 km/h (2 Bft) 100,00 %
30.03.2016 17:40 17,3 C 62 % 1011,5 hPa 0,0 l/m 3,1 km/h (1 Bft) W 272 1 min 0,000 mm 0,5 UV-I 258 W/m 9,9 C 17,3 C 4,8 km/h (1 Bft) 100,00 %
30.03.2016 17:41 17,3 C 62 % 1011,5 hPa 0,0 l/m 1,7 km/h (1 Bft) W-NW 284 1 min 0,000 mm 0,5 UV-I 254 W/m 9,9 C 17,3 C 4,8 km/h (1 Bft) 100,00 %
30.03.2016 17:42 17,3 C 63 % 1011,5 hPa 0,0 l/m 4,1 km/h (1 Bft) NW 321 1 min 0,000 mm 0,5 UV-I 251 W/m 10,2 C 17,3 C 6,4 km/h (2 Bft) 100,00 %
30.03.2016 17:43 17,2 C 62 % 1011,5 hPa 0,0 l/m 3,4 km/h (1 Bft) NW 312 1 min 0,000 mm 0,5 UV-I 248 W/m 9,9 C 17,2 C 8,0 km/h (2 Bft) 98,62 %
30.03.2016 17:44 17,2 C 62 % 1011,5 hPa 0,0 l/m 4,3 km/h (1 Bft) NW 308 1 min 0,000 mm 0,5 UV-I 242 W/m 9,9 C 17,2 C 8,0 km/h (2 Bft) 100,00 %
30.03.2016 17:45 17,2 C 60 % 1011,6 hPa 0,0 l/m 5,4 km/h (1 Bft) NW 319 1 min 0,000 mm 0,5 UV-I 239 W/m 9,4 C 17,2 C 8,0 km/h (2 Bft) 95,65 %
30.03.2016 17:46 17,2 C 59 % 1011,6 hPa 0,0 l/m 4,5 km/h (1 Bft) NW 315 1 min 0,000 mm 0,1 UV-I 243 W/m 9,1 C 17,2 C 8,0 km/h (2 Bft) 100,00 %
30.03.2016 17:47 17,2 C 59 % 1011,7 hPa 0,0 l/m 3,7 km/h (1 Bft) NW 315 1 min 0,000 mm 0,0 UV-I 243 W/m 9,1 C 17,2 C 6,4 km/h (2 Bft) 100,00 %
30.03.2016 17:48 17,2 C 59 % 1011,7 hPa 0,0 l/m 2,1 km/h (1 Bft) N-NW 348 1 min 0,000 mm 0,0 UV-I 242 W/m 9,1 C 17,2 C 3,2 km/h (1 Bft) 100,00 %
30.03.2016 17:49 17,2 C 59 % 1011,7 hPa 0,0 l/m 1,6 km/h (1 Bft) N-NW 331 1 min 0,000 mm 0,0 UV-I 245 W/m 9,1 C 17,2 C 3,2 km/h (1 Bft) 100,00 %
30.03.2016 17:50 17,2 C 61 % 1011,7 hPa 0,0 l/m 1,7 km/h (1 Bft) N-NW 329 1 min 0,000 mm 0,0 UV-I 249 W/m 9,6 C 17,2 C 3,2 km/h (1 Bft) 100,00 %
30.03.2016 17:51 17,2 C 60 % 1011,7 hPa 0,0 l/m 4,2 km/h (1 Bft) NW 306 1 min 0,000 mm 0,0 UV-I 254 W/m 9,4 C 17,2 C 6,4 km/h (2 Bft) 100,00 %
30.03.2016 17:52 17,2 C 60 % 1011,7 hPa 0,0 l/m 3,6 km/h (1 Bft) W-NW 297 1 min 0,000 mm 0,0 UV-I 252 W/m 9,4 C 17,2 C 8,0 km/h (2 Bft) 100,00 %
30.03.2016 17:53 17,2 C 59 % 1011,7 hPa 0,0 l/m 5,4 km/h (1 Bft) N-NW 346 1 min 0,000 mm 0,0 UV-I 242 W/m 9,1 C 17,2 C 8,0 km/h (2 Bft) 100,00 %
30.03.2016 17:54 17,2 C 61 % 1011,7 hPa 0,0 l/m 3,9 km/h (1 Bft) W-NW 291 1 min 0,000 mm 0,0 UV-I 233 W/m 9,6 C 17,2 C 6,4 km/h (2 Bft) 100,00 %
30.03.2016 17:55 17,2 C 60 % 1011,6 hPa 0,0 l/m 3,7 km/h (1 Bft) NW 316 1 min 0,000 mm 0,0 UV-I 222 W/m 9,4 C 17,2 C 6,4 km/h (2 Bft) 100,00 %
30.03.2016 17:56 17,2 C 60 % 1011,7 hPa 0,0 l/m 3,4 km/h (1 Bft) NW 313 1 min 0,000 mm 0,0 UV-I 218 W/m 9,4 C 17,2 C 6,4 km/h (2 Bft) 100,00 %
30.03.2016 17:57 17,1 C 60 % 1011,6 hPa 0,0 l/m 1,4 km/h (1 Bft) NW 313 0 min 0,000 mm 0,0 UV-I 67 W/m 9,3 C 17,1 C 1,6 km/h (1 Bft) 93,33 %
30.03.2016 17:58 17,1 C 59 % 1011,7 hPa 0,0 l/m 3,2 km/h (1 Bft) W-NW 294 0 min 0,000 mm 0,0 UV-I 62 W/m 9,0 C 17,1 C 6,4 km/h (2 Bft) 100,00 %
30.03.2016 17:59 17,0 C 60 % 1011,7 hPa 0,0 l/m 5,3 km/h (1 Bft) W-NW 289 0 min 0,000 mm 0,0 UV-I 67 W/m 9,2 C 17,0 C 9,7 km/h (2 Bft) 96,67 %
30.03.2016 18:00 16,9 C 59 % 1011,6 hPa 0,0 l/m 2,1 km/h (1 Bft) W-NW 290 0 min 0,000 mm 0,0 UV-I 71 W/m 8,8 C 16,9 C 4,8 km/h (1 Bft) 100,00 %
30.03.2016 18:02 16,8 C 62 % 1011,6 hPa 0,0 l/m 2,3 km/h (1 Bft) NW 304 0 min 0,178 mm 0,0 UV-I 64 W/m 9,5 C 16,8 C 3,2 km/h (1 Bft) 97,73 %
30.03.2016 18:03 16,8 C 60 % 1011,6 hPa 0,0 l/m 3,9 km/h (1 Bft) W 269 0 min 0,000 mm 0,0 UV-I 70 W/m 9,0 C 16,8 C 6,4 km/h (2 Bft) 95,83 %
30.03.2016 18:04 16,7 C 63 % 1011,6 hPa 0,0 l/m 2,4 km/h (1 Bft) W 269 0 min 0,000 mm 0,0 UV-I 83 W/m 9,6 C 16,7 C 3,2 km/h (1 Bft) 100,00 %
30.03.2016 18:05 16,7 C 62 % 1011,6 hPa 0,0 l/m 4,8 km/h (1 Bft) NW 313 0 min 0,000 mm 0,0 UV-I 83 W/m 9,4 C 16,7 C 6,4 km/h (2 Bft) 95,83 %
30.03.2016 18:06 16,6 C 61 % 1011,6 hPa 0,0 l/m 3,9 km/h (1 Bft) W-SW 252 0 min 0,000 mm 0,0 UV-I 78 W/m 9,0 C 16,6 C 6,4 km/h (2 Bft) 96,15 %
30.03.2016 18:07 16,6 C 62 % 1011,6 hPa 0,0 l/m 1,9 km/h (1 Bft) W-SW 252 0 min 0,000 mm 0,0 UV-I 74 W/m 9,3 C 16,6 C 3,2 km/h (1 Bft) 95,83 %
30.03.2016 18:08 16,6 C 61 % 1011,5 hPa 0,0 l/m 4,0 km/h (1 Bft) W-SW 256 0 min 0,000 mm 0,0 UV-I 74 W/m 9,0 C 16,6 C 6,4 km/h (2 Bft) 100,00 %
30.03.2016 18:09 16,6 C 62 % 1011,6 hPa 0,0 l/m 1,4 km/h (1 Bft) W-SW 256 0 min 0,000 mm 0,0 UV-I 81 W/m 9,3 C 16,6 C 3,2 km/h (1 Bft) 93,10 %
30.03.2016 18:10 16,6 C 62 % 1011,6 hPa 0,0 l/m 1,0 km/h (0 Bft) W-SW 256 0 min 0,000 mm 0,0 UV-I 105 W/m 9,3 C 16,6 C 1,6 km/h (1 Bft) 96,30 %
30.03.2016 18:11 16,6 C 63 % 1011,6 hPa 0,0 l/m 1,0 km/h (0 Bft) W-SW 256 1 min 0,000 mm 0,0 UV-I 166 W/m 9,5 C 16,6 C 1,6 km/h (1 Bft) 100,00 %
30.03.2016 18:12 16,6 C 62 % 1011,7 hPa 0,0 l/m 1,3 km/h (1 Bft) W-SW 256 1 min 0,000 mm 0,0 UV-I 197 W/m 9,3 C 16,6 C 1,6 km/h (1 Bft) 95,83 %
30.03.2016 18:13 16,6 C 62 % 1011,7 hPa 0,0 l/m 2,3 km/h (1 Bft) W-SW 257 1 min 0,000 mm 0,0 UV-I 201 W/m 9,3 C 16,6 C 4,8 km/h (1 Bft) 95,65 %
30.03.2016 18:14 16,7 C 62 % 1011,6 hPa 0,0 l/m 2,8 km/h (1 Bft) W-SW 257 1 min 0,000 mm 0,0 UV-I 195 W/m 9,4 C 16,7 C 4,8 km/h (1 Bft) 98,61 %
30.03.2016 18:15 16,7 C 62 % 1011,7 hPa 0,0 l/m 1,1 km/h (1 Bft) W-SW 257 1 min 0,000 mm 0,0 UV-I 117 W/m 9,4 C 16,7 C 1,6 km/h (1 Bft) 92,68 %
30.03.2016 18:16 16,8 C 62 % 1011,7 hPa 0,0 l/m 3,1 km/h (1 Bft) W 280 0 min 0,000 mm 0,0 UV-I 102 W/m 9,5 C 16,8 C 6,4 km/h (2 Bft) 100,00 %
30.03.2016 18:17 16,8 C 62 % 1011,6 hPa 0,0 l/m 3,1 km/h (1 Bft) W 267 0 min 0,000 mm 0,0 UV-I 85 W/m 9,5 C 16,8 C 6,4 km/h (2 Bft) 96,15 %
30.03.2016 18:18 16,8 C 61 % 1011,6 hPa 0,0 l/m 0,8 km/h (0 Bft) W 267 0 min 0,000 mm 0,0 UV-I 68 W/m 9,2 C 16,8 C 3,2 km/h (1 Bft) 92,59 %
30.03.2016 18:19 16,7 C 63 % 1011,6 hPa 0,0 l/m 0,6 km/h (0 Bft) W 267 0 min 0,000 mm 0,0 UV-I 56 W/m 9,6 C 16,7 C 1,6 km/h (1 Bft) 92,86 %
30.03.2016 18:20 16,7 C 62 % 1011,6 hPa 0,0 l/m 0,7 km/h (0 Bft) W 267 0 min 0,000 mm 0,0 UV-I 44 W/m 9,4 C 16,7 C 3,2 km/h (1 Bft) 100,00 %
30.03.2016 18:21 16,7 C 62 % 1011,5 hPa 0,0 l/m 2,0 km/h (1 Bft) W 267 0 min 0,000 mm 0,0 UV-I 43 W/m 9,4 C 16,7 C 3,2 km/h (1 Bft) 96,15 %
30.03.2016 18:22 16,6 C 61 % 1011,6 hPa 0,0 l/m 0,3 km/h (0 Bft) W 267 0 min 0,000 mm 0,0 UV-I 32 W/m 9,0 C 16,6 C 1,6 km/h (1 Bft) 95,83 %
30.03.2016 18:23 16,6 C 62 % 1011,5 hPa 0,0 l/m 0,5 km/h (0 Bft) W 267 0 min 0,000 mm 0,0 UV-I 28 W/m 9,3 C 16,6 C 1,6 km/h (1 Bft) 100,00 %
30.03.2016 18:24 16,6 C 63 % 1011,5 hPa 0,0 l/m 0,1 km/h (0 Bft) W 267 0 min 0,000 mm 0,0 UV-I 26 W/m 9,5 C 16,6 C 1,6 km/h (1 Bft) 95,83 %
30.03.2016 18:25 16,5 C 61 % 1011,5 hPa 0,0 l/m 0,0 km/h (0 Bft) W 267 0 min 0,000 mm 0,0 UV-I 26 W/m 9,0 C 16,5 C 0,0 km/h (0 Bft) 100,00 %
30.03.2016 18:26 16,5 C 61 % 1011,5 hPa 0,0 l/m 0,1 km/h (0 Bft) W 267 0 min 0,000 mm 0,0 UV-I 26 W/m 9,0 C 16,5 C 1,6 km/h (1 Bft) 95,65 %
30.03.2016 18:27 16,5 C 62 % 1011,5 hPa 0,0 l/m 0,0 km/h (0 Bft) W 267 0 min 0,000 mm 0,0 UV-I 28 W/m 9,2 C 16,5 C 0,0 km/h (0 Bft) 100,00 %
30.03.2016 18:28 16,5 C 62 % 1011,5 hPa 0,0 l/m 0,1 km/h (0 Bft) W 267 0 min 0,000 mm 0,0 UV-I 31 W/m 9,2 C 16,5 C 1,6 km/h (1 Bft) 95,65 %
30.03.2016 18:29 16,4 C 61 % 1011,5 hPa 0,0 l/m 0,3 km/h (0 Bft) W 267 0 min 0,000 mm 0,0 UV-I 35 W/m 8,9 C 16,4 C 1,6 km/h (1 Bft) 96,30 %
30.03.2016 18:30 16,4 C 61 % 1011,5 hPa 0,0 l/m 0,1 km/h (0 Bft) W 267 0 min 0,000 mm 0,0 UV-I 39 W/m 8,9 C 16,4 C 1,6 km/h (1 Bft) 91,30 %
30.03.2016 18:31 16,3 C 62 % 1011,5 hPa 0,0 l/m 2,4 km/h (1 Bft) W 274 0 min 0,000 mm 0,0 UV-I 43 W/m 9,0 C 16,3 C 4,8 km/h (1 Bft) 100,00 %
30.03.2016 18:32 16,3 C 64 % 1011,6 hPa 0,0 l/m 2,9 km/h (1 Bft) W 274 0 min 0,000 mm 0,0 UV-I 47 W/m 9,5 C 16,3 C 4,8 km/h (1 Bft) 95,65 %
30.03.2016 18:33 16,2 C 64 % 1011,6 hPa 0,0 l/m 2,3 km/h (1 Bft) W 274 0 min 0,000 mm 0,0 UV-I 49 W/m 9,4 C 16,2 C 3,2 km/h (1 Bft) 100,00 %
30.03.2016 18:34 16,2 C 64 % 1011,7 hPa 0,0 l/m 5,1 km/h (1 Bft) W-NW 286 0 min 0,000 mm 0,0 UV-I 51 W/m 9,4 C 16,2 C 9,7 km/h (2 Bft) 100,00 %
30.03.2016 18:35 16,1 C 64 % 1011,7 hPa 0,0 l/m 3,1 km/h (1 Bft) W 259 0 min 0,000 mm 0,0 UV-I 52 W/m 9,3 C 16,1 C 4,8 km/h (1 Bft) 100,00 %
30.03.2016 18:36 16,0 C 66 % 1011,7 hPa 0,0 l/m 2,0 km/h (1 Bft) W 259 0 min 0,000 mm 0,0 UV-I 53 W/m 9,7 C 16,0 C 3,2 km/h (1 Bft) 81,82 %
30.03.2016 18:37 15,9 C 67 % 1011,8 hPa 0,0 l/m 2,3 km/h (1 Bft) N 9 0 min 0,000 mm 0,0 UV-I 55 W/m 9,8 C 15,9 C 6,4 km/h (2 Bft) 92,59 %
30.03.2016 18:38 15,8 C 68 % 1011,8 hPa 0,0 l/m 1,1 km/h (1 Bft) N-NW 342 0 min 0,000 mm 0,0 UV-I 56 W/m 9,9 C 15,8 C 3,2 km/h (1 Bft) 100,00 %
30.03.2016 18:39 15,7 C 68 % 1011,7 hPa 0,0 l/m 1,1 km/h (1 Bft) NW 322 0 min 0,000 mm 0,0 UV-I 58 W/m 9,8 C 15,7 C 3,2 km/h (1 Bft) 100,00 %
30.03.2016 18:40 15,7 C 68 % 1011,8 hPa 0,0 l/m 3,3 km/h (1 Bft) NW 304 0 min 0,000 mm 0,0 UV-I 59 W/m 9,8 C 15,7 C 4,8 km/h (1 Bft) 100,00 %
30.03.2016 18:41 15,6 C 68 % 1011,8 hPa 0,0 l/m 1,5 km/h (1 Bft) NW 317 0 min 0,000 mm 0,0 UV-I 64 W/m 9,7 C 15,6 C 3,2 km/h (1 Bft) 100,00 %
30.03.2016 18:42 15,6 C 68 % 1011,7 hPa 0,0 l/m 1,0 km/h (0 Bft) NW 311 0 min 0,000 mm 0,0 UV-I 68 W/m 9,7 C 15,6 C 1,6 km/h (1 Bft) 96,15 %
30.03.2016 18:43 15,6 C 68 % 1011,7 hPa 0,0 l/m 0,5 km/h (0 Bft) NW 311 1 min 0,000 mm 0,0 UV-I 71 W/m 9,7 C 15,6 C 1,6 km/h (1 Bft) 100,00 %
30.03.2016 18:44 15,6 C 69 % 1011,8 hPa 0,0 l/m 2,4 km/h (1 Bft) W-NW 293 1 min 0,000 mm 0,0 UV-I 70 W/m 9,9 C 15,6 C 4,8 km/h (1 Bft) 100,00 %
30.03.2016 18:45 15,6 C 67 % 1011,7 hPa 0,0 l/m 1,9 km/h (1 Bft) W-NW 293 0 min 0,000 mm 0,0 UV-I 66 W/m 9,5 C 15,6 C 3,2 km/h (1 Bft) 100,00 %
30.03.2016 18:46 15,6 C 68 % 1011,7 hPa 0,0 l/m 0,9 km/h (0 Bft) W-NW 293 0 min 0,000 mm 0,0 UV-I 62 W/m 9,7 C 15,6 C 3,2 km/h (1 Bft) 95,65 %
30.03.2016 18:47 15,6 C 68 % 1011,8 hPa 0,0 l/m 0,5 km/h (0 Bft) W-NW 293 0 min 0,000 mm 0,0 UV-I 58 W/m 9,7 C 15,6 C 1,6 km/h (1 Bft) 100,00 %
30.03.2016 18:48 15,6 C 68 % 1011,8 hPa 0,0 l/m 1,0 km/h (0 Bft) W-NW 293 0 min 0,000 mm 0,0 UV-I 54 W/m 9,7 C 15,6 C 3,2 km/h (1 Bft) 100,00 %
30.03.2016 18:49 15,6 C 68 % 1011,8 hPa 0,0 l/m 0,8 km/h (0 Bft) W-NW 293 0 min 0,000 mm 0,0 UV-I 52 W/m 9,7 C 15,6 C 3,2 km/h (1 Bft) 100,00 %
30.03.2016 18:50 15,6 C 67 % 1011,8 hPa 0,0 l/m 1,8 km/h (1 Bft) W-NW 290 0 min 0,000 mm 0,0 UV-I 47 W/m 9,5 C 15,6 C 6,4 km/h (2 Bft) 100,00 %
30.03.2016 18:51 15,6 C 66 % 1011,8 hPa 0,0 l/m 2,3 km/h (1 Bft) W-NW 294 0 min 0,000 mm 0,0 UV-I 46 W/m 9,3 C 15,6 C 3,2 km/h (1 Bft) 95,65 %
30.03.2016 18:52 15,6 C 67 % 1011,8 hPa 0,0 l/m 2,3 km/h (1 Bft) W-NW 294 0 min 0,000 mm 0,0 UV-I 42 W/m 9,5 C 15,6 C 4,8 km/h (1 Bft) 100,00 %
30.03.2016 18:53 15,6 C 66 % 1011,7 hPa 0,0 l/m 0,3 km/h (0 Bft) W-NW 294 0 min 0,000 mm 0,0 UV-I 39 W/m 9,3 C 15,6 C 1,6 km/h (1 Bft) 100,00 %
30.03.2016 18:54 15,7 C 65 % 1011,8 hPa 0,0 l/m 0,9 km/h (0 Bft) W-NW 294 0 min 0,000 mm 0,0 UV-I 34 W/m 9,1 C 15,7 C 1,6 km/h (1 Bft) 100,00 %
30.03.2016 18:55 15,7 C 65 % 1011,8 hPa 0,0 l/m 0,2 km/h (0 Bft) W-NW 294 0 min 0,000 mm 0,0 UV-I 31 W/m 9,1 C 15,7 C 1,6 km/h (1 Bft) 100,00 %
30.03.2016 18:56 15,7 C 65 % 1011,8 hPa 0,0 l/m 0,1 km/h (0 Bft) W-NW 294 0 min 0,000 mm 0,0 UV-I 26 W/m 9,1 C 15,7 C 1,6 km/h (1 Bft) 100,00 %
30.03.2016 18:57 15,7 C 66 % 1011,8 hPa 0,0 l/m 0,0 km/h (0 Bft) W-NW 294 0 min 0,000 mm 0,0 UV-I 24 W/m 9,4 C 15,7 C 0,0 km/h (0 Bft) 100,00 %
30.03.2016 18:58 15,7 C 66 % 1011,8 hPa 0,0 l/m 1,2 km/h (1 Bft) W-NW 294 0 min 0,000 mm 0,0 UV-I 22 W/m 9,4 C 15,7 C 1,6 km/h (1 Bft) 100,00 %
30.03.2016 18:59 15,7 C 67 % 1011,8 hPa 0,0 l/m 1,2 km/h (1 Bft) W-NW 294 0 min 0,000 mm 0,0 UV-I 21 W/m 9,6 C 15,7 C 1,6 km/h (1 Bft) 95,65 %
30.03.2016 19:00 15,6 C 67 % 1011,8 hPa 0,0 l/m 1,0 km/h (0 Bft) W-NW 294 0 min 0,000 mm 0,0 UV-I 21 W/m 9,5 C 15,6 C 1,6 km/h (1 Bft) 100,00 %
30.03.2016 19:02 15,6 C 67 % 1011,9 hPa 0,0 l/m 1,4 km/h (1 Bft) W-NW 294 0 min 0,051 mm 0,0 UV-I 22 W/m 9,5 C 15,6 C 3,2 km/h (1 Bft) 100,00 %
30.03.2016 19:03 15,5 C 67 % 1011,9 hPa 0,0 l/m 1,5 km/h (1 Bft) W-NW 294 0 min 0,000 mm 0,0 UV-I 23 W/m 9,4 C 15,5 C 3,2 km/h (1 Bft) 100,00 %
30.03.2016 19:04 15,5 C 67 % 1011,9 hPa 0,0 l/m 1,8 km/h (1 Bft) W-NW 294 0 min 0,000 mm 0,0 UV-I 22 W/m 9,4 C 15,5 C 3,2 km/h (1 Bft) 100,00 %
30.03.2016 19:05 15,5 C 67 % 1011,9 hPa 0,0 l/m 1,7 km/h (1 Bft) W-NW 294 0 min 0,000 mm 0,0 UV-I 21 W/m 9,4 C 15,5 C 3,2 km/h (1 Bft) 95,65 %
30.03.2016 19:06 15,4 C 68 % 1011,9 hPa 0,0 l/m 1,9 km/h (1 Bft) W-NW 294 0 min 0,000 mm 0,0 UV-I 21 W/m 9,5 C 15,4 C 3,2 km/h (1 Bft) 95,83 %
30.03.2016 19:07 15,4 C 69 % 1011,9 hPa 0,0 l/m 1,6 km/h (1 Bft) W-NW 294 0 min 0,000 mm 0,0 UV-I 21 W/m 9,7 C 15,4 C 3,2 km/h (1 Bft) 100,00 %
30.03.2016 19:08 15,4 C 67 % 1011,9 hPa 0,0 l/m 0,5 km/h (0 Bft) W-NW 294 0 min 0,000 mm 0,0 UV-I 19 W/m 9,3 C 15,4 C 1,6 km/h (1 Bft) 100,00 %
30.03.2016 19:09 15,4 C 68 % 1011,9 hPa 0,0 l/m 1,7 km/h (1 Bft) W-NW 294 0 min 0,000 mm 0,0 UV-I 18 W/m 9,5 C 15,4 C 3,2 km/h (1 Bft) 100,00 %
30.03.2016 19:10 15,4 C 67 % 1011,9 hPa 0,0 l/m 2,3 km/h (1 Bft) W-NW 294 0 min 0,000 mm 0,0 UV-I 18 W/m 9,3 C 15,4 C 3,2 km/h (1 Bft) 93,10 %
30.03.2016 19:11 15,4 C 66 % 1011,9 hPa 0,0 l/m 2,7 km/h (1 Bft) W-NW 294 0 min 0,000 mm 0,0 UV-I 16 W/m 9,1 C 15,4 C 3,2 km/h (1 Bft) 100,00 %
30.03.2016 19:12 15,4 C 67 % 1011,9 hPa 0,0 l/m 2,8 km/h (1 Bft) W-NW 294 0 min 0,000 mm 0,0 UV-I 16 W/m 9,3 C 15,4 C 3,2 km/h (1 Bft) 100,00 %
30.03.2016 19:13 15,4 C 68 % 1011,9 hPa 0,0 l/m 1,7 km/h (1 Bft) W-NW 294 0 min 0,000 mm 0,0 UV-I 14 W/m 9,5 C 15,4 C 3,2 km/h (1 Bft) 100,00 %
30.03.2016 19:14 15,4 C 67 % 1011,9 hPa 0,0 l/m 2,3 km/h (1 Bft) W-NW 294 0 min 0,000 mm 0,0 UV-I 14 W/m 9,3 C 15,4 C 3,2 km/h (1 Bft) 100,00 %
30.03.2016 19:15 15,5 C 66 % 1011,9 hPa 0,0 l/m 3,0 km/h (1 Bft) W-NW 290 0 min 0,000 mm 0,0 UV-I 12 W/m 9,2 C 15,5 C 4,8 km/h (1 Bft) 100,00 %
30.03.2016 19:16 15,5 C 66 % 1011,9 hPa 0,0 l/m 3,2 km/h (1 Bft) W-NW 290 0 min 0,000 mm 0,0 UV-I 12 W/m 9,2 C 15,5 C 4,8 km/h (1 Bft) 100,00 %
30.03.2016 19:17 15,5 C 67 % 1011,9 hPa 0,0 l/m 3,1 km/h (1 Bft) W-NW 290 0 min 0,000 mm 0,0 UV-I 11 W/m 9,4 C 15,5 C 4,8 km/h (1 Bft) 100,00 %
30.03.2016 19:18 15,5 C 67 % 1011,9 hPa 0,0 l/m 2,2 km/h (1 Bft) W-NW 290 0 min 0,000 mm 0,0 UV-I 11 W/m 9,4 C 15,5 C 3,2 km/h (1 Bft) 100,00 %
30.03.2016 19:19 15,5 C 66 % 1011,9 hPa 0,0 l/m 1,9 km/h (1 Bft) W-NW 290 0 min 0,000 mm 0,0 UV-I 11 W/m 9,2 C 15,5 C 3,2 km/h (1 Bft) 100,00 %
30.03.2016 19:20 15,5 C 66 % 1011,9 hPa 0,0 l/m 1,7 km/h (1 Bft) W-NW 290 1 min 0,000 mm 0,0 UV-I 11 W/m 9,2 C 15,5 C 3,2 km/h (1 Bft) 93,33 %
30.03.2016 19:21 15,4 C 66 % 1011,9 hPa 0,0 l/m 2,7 km/h (1 Bft) W-NW 290 1 min 0,000 mm 0,0 UV-I 9 W/m 9,1 C 15,4 C 3,2 km/h (1 Bft) 100,00 %
30.03.2016 19:22 15,4 C 66 % 1011,9 hPa 0,0 l/m 4,2 km/h (1 Bft) W-SW 246 0 min 0,000 mm 0,0 UV-I 9 W/m 9,1 C 15,4 C 6,4 km/h (2 Bft) 100,00 %
30.03.2016 19:23 15,5 C 65 % 1011,9 hPa 0,0 l/m 6,8 km/h (2 Bft) W 279 0 min 0,000 mm 0,0 UV-I 8 W/m 8,9 C 15,3 C 9,7 km/h (2 Bft) 100,00 %
30.03.2016 19:24 15,5 C 65 % 1011,9 hPa 0,0 l/m 5,4 km/h (1 Bft) W 265 0 min 0,000 mm 0,0 UV-I 7 W/m 8,9 C 15,5 C 9,7 km/h (2 Bft) 96,15 %
30.03.2016 19:25 15,5 C 66 % 1011,9 hPa 0,0 l/m 3,6 km/h (1 Bft) W 267 0 min 0,000 mm 0,0 UV-I 7 W/m 9,2 C 15,5 C 4,8 km/h (1 Bft) 100,00 %
30.03.2016 19:26 15,5 C 66 % 1011,9 hPa 0,0 l/m 3,1 km/h (1 Bft) W 267 0 min 0,000 mm 0,0 UV-I 7 W/m 9,2 C 15,5 C 4,8 km/h (1 Bft) 100,00 %
30.03.2016 19:27 15,4 C 66 % 1012,0 hPa 0,0 l/m 3,8 km/h (1 Bft) W 265 0 min 0,000 mm 0,0 UV-I 5 W/m 9,1 C 15,4 C 4,8 km/h (1 Bft) 100,00 %
30.03.2016 19:28 15,4 C 66 % 1012,0 hPa 0,0 l/m 2,7 km/h (1 Bft) W 265 0 min 0,000 mm 0,0 UV-I 5 W/m 9,1 C 15,4 C 4,8 km/h (1 Bft) 100,00 %
30.03.2016 19:29 15,3 C 67 % 1012,0 hPa 0,0 l/m 1,7 km/h (1 Bft) W 265 0 min 0,000 mm 0,0 UV-I 5 W/m 9,2 C 15,3 C 3,2 km/h (1 Bft) 100,00 %
30.03.2016 19:30 15,3 C 67 % 1012,0 hPa 0,0 l/m 2,6 km/h (1 Bft) W 265 0 min 0,000 mm 0,0 UV-I 5 W/m 9,2 C 15,3 C 3,2 km/h (1 Bft) 100,00 %
30.03.2016 19:31 15,2 C 68 % 1012,0 hPa 0,0 l/m 2,0 km/h (1 Bft) W 265 0 min 0,000 mm 0,0 UV-I 5 W/m 9,3 C 15,2 C 3,2 km/h (1 Bft) 100,00 %
30.03.2016 19:32 15,2 C 68 % 1012,0 hPa 0,0 l/m 2,3 km/h (1 Bft) W 265 0 min 0,000 mm 0,0 UV-I 4 W/m 9,3 C 15,2 C 4,8 km/h (1 Bft) 100,00 %
30.03.2016 19:33 15,1 C 68 % 1012,0 hPa 0,0 l/m 2,0 km/h (1 Bft) W 265 0 min 0,000 mm 0,0 UV-I 0 W/m 9,2 C 15,1 C 3,2 km/h (1 Bft) 100,00 %
30.03.2016 19:34 15,1 C 68 % 1012,0 hPa 0,0 l/m 1,1 km/h (1 Bft) W 265 0 min 0,000 mm 0,0 UV-I 0 W/m 9,2 C 15,1 C 1,6 km/h (1 Bft) 100,00 %
30.03.2016 19:35 15,1 C 69 % 1012,0 hPa 0,0 l/m 0,5 km/h (0 Bft) W 265 0 min 0,000 mm 0,0 UV-I 0 W/m 9,5 C 15,1 C 1,6 km/h (1 Bft) 91,30 %
30.03.2016 19:36 15,0 C 69 % 1012,0 hPa 0,0 l/m 0,5 km/h (0 Bft) W 265 0 min 0,000 mm 0,0 UV-I 0 W/m 9,4 C 15,0 C 1,6 km/h (1 Bft) 100,00 %
30.03.2016 19:37 14,9 C 69 % 1012,0 hPa 0,0 l/m 2,2 km/h (1 Bft) W 265 0 min 0,000 mm 0,0 UV-I 0 W/m 9,3 C 14,9 C 3,2 km/h (1 Bft) 100,00 %
30.03.2016 19:38 14,9 C 70 % 1012,0 hPa 0,0 l/m 2,8 km/h (1 Bft) W 261 0 min 0,000 mm 0,0 UV-I 0 W/m 9,5 C 14,9 C 4,8 km/h (1 Bft) 100,00 %
30.03.2016 19:39 14,9 C 70 % 1012,1 hPa 0,0 l/m 4,2 km/h (1 Bft) SW 221 0 min 0,000 mm 0,0 UV-I 0 W/m 9,5 C 14,9 C 6,4 km/h (2 Bft) 100,00 %
30.03.2016 19:40 14,9 C 70 % 1012,1 hPa 0,0 l/m 2,6 km/h (1 Bft) SW 221 0 min 0,000 mm 0,0 UV-I 0 W/m 9,5 C 14,9 C 3,2 km/h (1 Bft) 100,00 %
30.03.2016 19:41 14,9 C 69 % 1012,0 hPa 0,0 l/m 3,1 km/h (1 Bft) SW 221 0 min 0,000 mm 0,0 UV-I 0 W/m 9,3 C 14,9 C 4,8 km/h (1 Bft) 100,00 %
30.03.2016 19:42 14,8 C 69 % 1012,0 hPa 0,0 l/m 3,5 km/h (1 Bft) SW 222 0 min 0,000 mm 0,0 UV-I 0 W/m 9,2 C 14,8 C 4,8 km/h (1 Bft) 100,00 %
30.03.2016 19:43 14,8 C 70 % 1012,1 hPa 0,0 l/m 3,5 km/h (1 Bft) SW 222 0 min 0,000 mm 0,0 UV-I 0 W/m 9,4 C 14,8 C 4,8 km/h (1 Bft) 100,00 %
30.03.2016 19:44 14,8 C 70 % 1012,1 hPa 0,0 l/m 3,9 km/h (1 Bft) SW 222 0 min 0,000 mm 0,0 UV-I 0 W/m 9,4 C 14,8 C 4,8 km/h (1 Bft) 100,00 %
30.03.2016 19:45 14,8 C 70 % 1012,1 hPa 0,0 l/m 3,6 km/h (1 Bft) SW 222 0 min 0,000 mm 0,0 UV-I 0 W/m 9,4 C 14,8 C 4,8 km/h (1 Bft) 100,00 %
30.03.2016 19:46 14,7 C 71 % 1012,1 hPa 0,0 l/m 2,8 km/h (1 Bft) SW 222 0 min 0,000 mm 0,0 UV-I 0 W/m 9,5 C 14,7 C 3,2 km/h (1 Bft) 100,00 %
30.03.2016 19:47 14,7 C 70 % 1012,2 hPa 0,0 l/m 2,9 km/h (1 Bft) SW 222 0 min 0,000 mm 0,0 UV-I 0 W/m 9,3 C 14,7 C 3,2 km/h (1 Bft) 100,00 %
30.03.2016 19:48 14,7 C 70 % 1012,1 hPa 0,0 l/m 3,3 km/h (1 Bft) SW 222 0 min 0,000 mm 0,0 UV-I 0 W/m 9,3 C 14,7 C 4,8 km/h (1 Bft) 96,15 %
30.03.2016 19:49 14,7 C 70 % 1012,2 hPa 0,0 l/m 2,7 km/h (1 Bft) SW 222 0 min 0,000 mm 0,0 UV-I 0 W/m 9,3 C 14,7 C 3,2 km/h (1 Bft) 100,00 %
30.03.2016 19:50 14,6 C 71 % 1012,2 hPa 0,0 l/m 2,3 km/h (1 Bft) SW 222 0 min 0,000 mm 0,0 UV-I 0 W/m 9,4 C 14,6 C 3,2 km/h (1 Bft) 100,00 %
30.03.2016 19:51 14,5 C 72 % 1012,2 hPa 0,0 l/m 2,5 km/h (1 Bft) SW 222 0 min 0,000 mm 0,0 UV-I 0 W/m 9,5 C 14,5 C 3,2 km/h (1 Bft) 100,00 %
30.03.2016 19:52 14,4 C 73 % 1012,2 hPa 0,0 l/m 1,5 km/h (1 Bft) SW 222 0 min 0,000 mm 0,0 UV-I 0 W/m 9,6 C 14,4 C 3,2 km/h (1 Bft) 100,00 %
30.03.2016 19:53 14,3 C 73 % 1012,2 hPa 0,0 l/m 1,7 km/h (1 Bft) SW 222 0 min 0,000 mm 0,0 UV-I 0 W/m 9,5 C 14,3 C 3,2 km/h (1 Bft) 95,83 %
30.03.2016 19:54 14,3 C 74 % 1012,2 hPa 0,0 l/m 1,2 km/h (1 Bft) SW 222 0 min 0,000 mm 0,0 UV-I 0 W/m 9,7 C 14,3 C 3,2 km/h (1 Bft) 100,00 %
30.03.2016 19:55 14,3 C 73 % 1012,2 hPa 0,0 l/m 1,0 km/h (0 Bft) SW 222 0 min 0,000 mm 0,0 UV-I 0 W/m 9,5 C 14,3 C 3,2 km/h (1 Bft) 100,00 %
30.03.2016 19:56 14,3 C 72 % 1012,1 hPa 0,0 l/m 0,2 km/h (0 Bft) SW 222 0 min 0,000 mm 0,0 UV-I 0 W/m 9,3 C 14,3 C 1,6 km/h (1 Bft) 100,00 %
30.03.2016 19:57 14,3 C 73 % 1012,1 hPa 0,0 l/m 0,0 km/h (0 Bft) SW 222 0 min 0,000 mm 0,0 UV-I 0 W/m 9,5 C 14,3 C 0,0 km/h (0 Bft) 100,00 %
30.03.2016 19:58 14,3 C 72 % 1012,1 hPa 0,0 l/m 0,0 km/h (0 Bft) SW 222 0 min 0,000 mm 0,0 UV-I 0 W/m 9,3 C 14,3 C 0,0 km/h (0 Bft) 100,00 %
30.03.2016 19:59 14,3 C 72 % 1012,1 hPa 0,0 l/m 0,0 km/h (0 Bft) SW 222 0 min 0,000 mm 0,0 UV-I 0 W/m 9,3 C 14,3 C 0,0 km/h (0 Bft) 100,00 %
30.03.2016 20:00 14,3 C 73 % 1012,2 hPa 0,0 l/m 0,1 km/h (0 Bft) SW 222 0 min 0,000 mm 0,0 UV-I 0 W/m 9,5 C 14,3 C 1,6 km/h (1 Bft) 100,00 %
30.03.2016 20:02 14,2 C 73 % 1012,2 hPa 0,0 l/m 0,6 km/h (0 Bft) SW 222 0 min 0,025 mm 0,0 UV-I 0 W/m 9,4 C 14,2 C 3,2 km/h (1 Bft) 100,00 %
30.03.2016 20:03 14,2 C 73 % 1012,2 hPa 0,0 l/m 1,4 km/h (1 Bft) SW 222 0 min 0,000 mm 0,0 UV-I 0 W/m 9,4 C 14,2 C 1,6 km/h (1 Bft) 100,00 %
30.03.2016 20:04 14,2 C 74 % 1012,2 hPa 0,0 l/m 1,5 km/h (1 Bft) SW 222 0 min 0,000 mm 0,0 UV-I 0 W/m 9,6 C 14,2 C 3,2 km/h (1 Bft) 96,30 %
30.03.2016 20:05 14,1 C 74 % 1012,2 hPa 0,0 l/m 1,1 km/h (1 Bft) SW 222 0 min 0,000 mm 0,0 UV-I 0 W/m 9,5 C 14,1 C 3,2 km/h (1 Bft) 95,65 %
30.03.2016 20:06 14,1 C 73 % 1012,3 hPa 0,0 l/m 0,3 km/h (0 Bft) SW 222 0 min 0,000 mm 0,0 UV-I 0 W/m 9,3 C 14,1 C 1,6 km/h (1 Bft) 100,00 %
30.03.2016 20:07 14,0 C 74 % 1012,3 hPa 0,0 l/m 0,0 km/h (0 Bft) SW 222 0 min 0,000 mm 0,0 UV-I 0 W/m 9,4 C 14,0 C 0,0 km/h (0 Bft) 95,65 %
30.03.2016 20:08 13,9 C 75 % 1012,3 hPa 0,0 l/m 0,2 km/h (0 Bft) SW 222 0 min 0,000 mm 0,0 UV-I 0 W/m 9,5 C 13,9 C 1,6 km/h (1 Bft) 95,83 %
30.03.2016 20:09 13,8 C 76 % 1012,3 hPa 0,0 l/m 0,8 km/h (0 Bft) SW 222 0 min 0,000 mm 0,0 UV-I 0 W/m 9,6 C 13,8 C 1,6 km/h (1 Bft) 100,00 %
30.03.2016 20:10 13,8 C 75 % 1012,3 hPa 0,0 l/m 0,7 km/h (0 Bft) SW 222 0 min 0,000 mm 0,0 UV-I 0 W/m 9,4 C 13,8 C 1,6 km/h (1 Bft) 92,59 %
30.03.2016 20:11 13,8 C 76 % 1012,3 hPa 0,0 l/m 0,8 km/h (0 Bft) SW 222 0 min 0,000 mm 0,0 UV-I 0 W/m 9,6 C 13,8 C 1,6 km/h (1 Bft) 100,00 %
30.03.2016 20:12 13,8 C 77 % 1012,3 hPa 0,0 l/m 0,5 km/h (0 Bft) SW 222 0 min 0,000 mm 0,0 UV-I 0 W/m 9,8 C 13,8 C 1,6 km/h (1 Bft) 95,83 %
30.03.2016 20:13 13,8 C 77 % 1012,3 hPa 0,0 l/m 0,0 km/h (0 Bft) SW 222 0 min 0,000 mm 0,0 UV-I 0 W/m 9,8 C 13,8 C 0,0 km/h (0 Bft) 100,00 %
30.03.2016 20:14 13,7 C 77 % 1012,4 hPa 0,0 l/m 0,9 km/h (0 Bft) SW 222 0 min 0,000 mm 0,0 UV-I 0 W/m 9,7 C 13,7 C 3,2 km/h (1 Bft) 95,83 %
30.03.2016 20:15 13,7 C 76 % 1012,4 hPa 0,0 l/m 1,6 km/h (1 Bft) SW 222 0 min 0,000 mm 0,0 UV-I 0 W/m 9,5 C 13,7 C 3,2 km/h (1 Bft) 96,15 %
30.03.2016 20:16 13,7 C 77 % 1012,4 hPa 0,0 l/m 1,8 km/h (1 Bft) SW 222 0 min 0,000 mm 0,0 UV-I 0 W/m 9,7 C 13,7 C 3,2 km/h (1 Bft) 95,83 %
30.03.2016 20:17 13,7 C 76 % 1012,4 hPa 0,0 l/m 1,7 km/h (1 Bft) SW 222 0 min 0,000 mm 0,0 UV-I 0 W/m 9,5 C 13,7 C 3,2 km/h (1 Bft) 95,65 %
30.03.2016 20:18 13,8 C 78 % 1012,4 hPa 0,0 l/m 1,9 km/h (1 Bft) SW 222 0 min 0,000 mm 0,0 UV-I 0 W/m 10,0 C 13,8 C 3,2 km/h (1 Bft) 100,00 %
30.03.2016 20:19 13,8 C 76 % 1012,4 hPa 0,0 l/m 1,9 km/h (1 Bft) SW 222 0 min 0,000 mm 0,0 UV-I 0 W/m 9,6 C 13,8 C 3,2 km/h (1 Bft) 96,55 %
30.03.2016 20:20 13,8 C 75 % 1012,4 hPa 0,0 l/m 0,9 km/h (0 Bft) SW 222 0 min 0,000 mm 0,0 UV-I 0 W/m 9,4 C 13,8 C 1,6 km/h (1 Bft) 100,00 %
30.03.2016 20:21 13,8 C 76 % 1012,4 hPa 0,0 l/m 0,4 km/h (0 Bft) SW 222 0 min 0,000 mm 0,0 UV-I 0 W/m 9,6 C 13,8 C 1,6 km/h (1 Bft) 91,67 %
30.03.2016 20:22 13,9 C 74 % 1012,4 hPa 0,0 l/m 0,0 km/h (0 Bft) SW 222 0 min 0,000 mm 0,0 UV-I 0 W/m 9,3 C 13,9 C 0,0 km/h (0 Bft) 96,88 %
30.03.2016 20:23 13,9 C 74 % 1012,4 hPa 0,0 l/m 0,9 km/h (0 Bft) SW 222 0 min 0,000 mm 0,0 UV-I 0 W/m 9,3 C 13,9 C 1,6 km/h (1 Bft) 92,31 %
30.03.2016 20:24 14,0 C 74 % 1012,4 hPa 0,0 l/m 0,4 km/h (0 Bft) SW 222 0 min 0,000 mm 0,0 UV-I 0 W/m 9,4 C 14,0 C 1,6 km/h (1 Bft) 96,30 %
30.03.2016 20:25 14,0 C 75 % 1012,5 hPa 0,0 l/m 0,1 km/h (0 Bft) SW 222 0 min 0,000 mm 0,0 UV-I 0 W/m 9,6 C 14,0 C 1,6 km/h (1 Bft) 93,33 %
30.03.2016 20:26 14,1 C 73 % 1012,5 hPa 0,0 l/m 0,0 km/h (0 Bft) SW 222 0 min 0,000 mm 0,0 UV-I 0 W/m 9,3 C 14,1 C 0,0 km/h (0 Bft) 92,31 %
30.03.2016 20:27 14,1 C 74 % 1012,5 hPa 0,0 l/m 0,3 km/h (0 Bft) SW 222 0 min 0,000 mm 0,0 UV-I 0 W/m 9,5 C 14,1 C 1,6 km/h (1 Bft) 100,00 %
30.03.2016 20:28 14,1 C 74 % 1012,5 hPa 0,0 l/m 0,0 km/h (0 Bft) SW 222 0 min 0,000 mm 0,0 UV-I 0 W/m 9,5 C 14,1 C 0,0 km/h (0 Bft) 96,55 %
30.03.2016 20:29 14,1 C 75 % 1012,5 hPa 0,0 l/m 0,1 km/h (0 Bft) SW 222 0 min 0,000 mm 0,0 UV-I 0 W/m 9,7 C 14,1 C 1,6 km/h (1 Bft) 100,00 %
30.03.2016 20:30 14,1 C 74 % 1012,5 hPa 0,0 l/m 0,5 km/h (0 Bft) SW 222 0 min 0,000 mm 0,0 UV-I 0 W/m 9,5 C 14,1 C 1,6 km/h (1 Bft) 92,59 %
30.03.2016 20:31 14,0 C 74 % 1012,5 hPa 0,0 l/m 1,9 km/h (1 Bft) SW 222 0 min 0,000 mm 0,0 UV-I 0 W/m 9,4 C 14,0 C 3,2 km/h (1 Bft) 96,30 %
30.03.2016 20:32 14,1 C 74 % 1012,5 hPa 0,0 l/m 2,5 km/h (1 Bft) SW 222 0 min 0,000 mm 0,0 UV-I 0 W/m 9,5 C 14,1 C 3,2 km/h (1 Bft) 96,15 %
30.03.2016 20:33 14,1 C 73 % 1012,6 hPa 0,0 l/m 2,3 km/h (1 Bft) SW 222 0 min 0,000 mm 0,0 UV-I 0 W/m 9,3 C 14,1 C 4,8 km/h (1 Bft) 95,83 %
30.03.2016 20:34 14,1 C 73 % 1012,6 hPa 0,0 l/m 1,2 km/h (1 Bft) SW 222 0 min 0,000 mm 0,0 UV-I 0 W/m 9,3 C 14,1 C 1,6 km/h (1 Bft) 100,00 %
30.03.2016 20:35 14,1 C 74 % 1012,6 hPa 0,0 l/m 2,5 km/h (1 Bft) SW 222 0 min 0,000 mm 0,0 UV-I 0 W/m 9,5 C 14,1 C 3,2 km/h (1 Bft) 92,59 %
30.03.2016 20:36 14,1 C 74 % 1012,6 hPa 0,0 l/m 2,2 km/h (1 Bft) SW 222 0 min 0,000 mm 0,0 UV-I 0 W/m 9,5 C 14,1 C 4,8 km/h (1 Bft) 100,00 %
30.03.2016 20:37 14,1 C 74 % 1012,6 hPa 0,0 l/m 3,2 km/h (1 Bft) SW 222 0 min 0,000 mm 0,0 UV-I 0 W/m 9,5 C 14,1 C 4,8 km/h (1 Bft) 96,30 %
30.03.2016 20:38 14,1 C 75 % 1012,6 hPa 0,0 l/m 1,2 km/h (1 Bft) SW 222 0 min 0,000 mm 0,0 UV-I 0 W/m 9,7 C 14,1 C 1,6 km/h (1 Bft) 100,00 %
30.03.2016 20:39 14,1 C 74 % 1012,6 hPa 0,0 l/m 0,6 km/h (0 Bft) SW 222 0 min 0,000 mm 0,0 UV-I 0 W/m 9,5 C 14,1 C 1,6 km/h (1 Bft) 95,83 %
30.03.2016 20:40 14,1 C 74 % 1012,6 hPa 0,0 l/m 0,1 km/h (0 Bft) SW 222 0 min 0,000 mm 0,0 UV-I 0 W/m 9,5 C 14,1 C 1,6 km/h (1 Bft) 100,00 %
30.03.2016 20:41 14,0 C 75 % 1012,6 hPa 0,0 l/m 0,6 km/h (0 Bft) SW 222 0 min 0,000 mm 0,0 UV-I 0 W/m 9,6 C 14,0 C 1,6 km/h (1 Bft) 100,00 %
30.03.2016 20:42 14,0 C 75 % 1012,6 hPa 0,0 l/m 0,1 km/h (0 Bft) SW 222 0 min 0,000 mm 0,0 UV-I 0 W/m 9,6 C 14,0 C 1,6 km/h (1 Bft) 95,65 %
30.03.2016 20:43 13,9 C 76 % 1012,6 hPa 0,0 l/m 0,2 km/h (0 Bft) SW 222 0 min 0,000 mm 0,0 UV-I 0 W/m 9,7 C 13,9 C 1,6 km/h (1 Bft) 100,00 %
30.03.2016 20:44 13,9 C 76 % 1012,6 hPa 0,0 l/m 0,1 km/h (0 Bft) SW 222 0 min 0,000 mm 0,0 UV-I 0 W/m 9,7 C 13,9 C 1,6 km/h (1 Bft) 96,30 %
30.03.2016 20:45 13,9 C 76 % 1012,6 hPa 0,0 l/m 1,1 km/h (1 Bft) SW 222 0 min 0,000 mm 0,0 UV-I 0 W/m 9,7 C 13,9 C 1,6 km/h (1 Bft) 96,15 %
30.03.2016 20:46 13,8 C 75 % 1012,6 hPa 0,0 l/m 1,3 km/h (1 Bft) SW 222 0 min 0,000 mm 0,0 UV-I 0 W/m 9,4 C 13,8 C 1,6 km/h (1 Bft) 100,00 %
30.03.2016 20:47 13,9 C 75 % 1012,6 hPa 0,0 l/m 0,1 km/h (0 Bft) SW 222 0 min 0,000 mm 0,0 UV-I 0 W/m 9,5 C 13,9 C 1,6 km/h (1 Bft) 100,00 %
30.03.2016 20:48 13,9 C 74 % 1012,6 hPa 0,0 l/m 1,3 km/h (1 Bft) SW 222 0 min 0,000 mm 0,0 UV-I 0 W/m 9,3 C 13,9 C 1,6 km/h (1 Bft) 100,00 %
30.03.2016 20:49 13,9 C 75 % 1012,6 hPa 0,0 l/m 0,9 km/h (0 Bft) SW 222 0 min 0,000 mm 0,0 UV-I 0 W/m 9,5 C 13,9 C 1,6 km/h (1 Bft) 100,00 %
30.03.2016 20:50 13,9 C 76 % 1012,7 hPa 0,0 l/m 1,9 km/h (1 Bft) SW 222 0 min 0,000 mm 0,0 UV-I 0 W/m 9,7 C 13,9 C 3,2 km/h (1 Bft) 100,00 %
30.03.2016 20:51 13,9 C 74 % 1012,7 hPa 0,0 l/m 2,5 km/h (1 Bft) SW 224 0 min 0,000 mm 0,0 UV-I 0 W/m 9,3 C 13,9 C 3,2 km/h (1 Bft) 96,55 %
30.03.2016 20:52 13,9 C 74 % 1012,7 hPa 0,0 l/m 1,7 km/h (1 Bft) SW 224 0 min 0,000 mm 0,0 UV-I 0 W/m 9,3 C 13,9 C 3,2 km/h (1 Bft) 100,00 %
30.03.2016 20:53 13,9 C 74 % 1012,7 hPa 0,0 l/m 2,6 km/h (1 Bft) SW 227 0 min 0,000 mm 0,0 UV-I 0 W/m 9,3 C 13,9 C 3,2 km/h (1 Bft) 92,86 %
30.03.2016 20:54 13,9 C 75 % 1012,7 hPa 0,0 l/m 1,7 km/h (1 Bft) SW 227 0 min 0,000 mm 0,0 UV-I 0 W/m 9,5 C 13,9 C 3,2 km/h (1 Bft) 100,00 %
30.03.2016 20:55 13,9 C 74 % 1012,7 hPa 0,0 l/m 1,1 km/h (1 Bft) SW 227 0 min 0,000 mm 0,0 UV-I 0 W/m 9,3 C 13,9 C 1,6 km/h (1 Bft) 100,00 %
30.03.2016 20:56 13,9 C 74 % 1012,7 hPa 0,0 l/m 1,3 km/h (1 Bft) SW 227 0 min 0,000 mm 0,0 UV-I 0 W/m 9,3 C 13,9 C 3,2 km/h (1 Bft) 96,30 %
30.03.2016 20:57 13,9 C 75 % 1012,7 hPa 0,0 l/m 0,5 km/h (0 Bft) SW 227 0 min 0,000 mm 0,0 UV-I 0 W/m 9,5 C 13,9 C 1,6 km/h (1 Bft) 100,00 %
30.03.2016 20:58 13,8 C 75 % 1012,7 hPa 0,0 l/m 3,2 km/h (1 Bft) W-NW 291 0 min 0,000 mm 0,0 UV-I 0 W/m 9,4 C 13,8 C 6,4 km/h (2 Bft) 100,00 %
30.03.2016 20:59 13,8 C 75 % 1012,7 hPa 0,0 l/m 3,0 km/h (1 Bft) W 281 0 min 0,000 mm 0,0 UV-I 0 W/m 9,4 C 13,8 C 4,8 km/h (1 Bft) 100,00 %
30.03.2016 21:00 13,8 C 76 % 1012,7 hPa 0,0 l/m 1,2 km/h (1 Bft) W 281 0 min 0,000 mm 0,0 UV-I 0 W/m 9,6 C 13,8 C 3,2 km/h (1 Bft) 100,00 %
30.03.2016 21:02 13,7 C 76 % 1012,8 hPa 0,0 l/m 0,0 km/h (0 Bft) W 281 0 min 0,000 mm 0,0 UV-I 0 W/m 9,5 C 13,7 C 0,0 km/h (0 Bft) 100,00 %
30.03.2016 21:03 13,7 C 76 % 1012,7 hPa 0,0 l/m 0,5 km/h (0 Bft) W 281 0 min 0,000 mm 0,0 UV-I 0 W/m 9,5 C 13,7 C 1,6 km/h (1 Bft) 100,00 %
30.03.2016 21:04 13,7 C 76 % 1012,7 hPa 0,0 l/m 0,2 km/h (0 Bft) W 281 0 min 0,000 mm 0,0 UV-I 0 W/m 9,5 C 13,7 C 1,6 km/h (1 Bft) 100,00 %
30.03.2016 21:05 13,6 C 77 % 1012,7 hPa 0,0 l/m 0,1 km/h (0 Bft) W 281 0 min 0,000 mm 0,0 UV-I 0 W/m 9,6 C 13,6 C 1,6 km/h (1 Bft) 100,00 %
30.03.2016 21:06 13,6 C 77 % 1012,7 hPa 0,0 l/m 0,5 km/h (0 Bft) W-NW 296 0 min 0,000 mm 0,0 UV-I 0 W/m 9,6 C 13,6 C 1,6 km/h (1 Bft) 95,65 %
30.03.2016 21:07 13,6 C 78 % 1012,7 hPa 0,0 l/m 0,8 km/h (0 Bft) W-NW 296 0 min 0,000 mm 0,0 UV-I 0 W/m 9,8 C 13,6 C 1,6 km/h (1 Bft) 100,00 %
30.03.2016 21:08 13,5 C 78 % 1012,7 hPa 0,0 l/m 0,1 km/h (0 Bft) W-NW 296 0 min 0,000 mm 0,0 UV-I 0 W/m 9,7 C 13,5 C 1,6 km/h (1 Bft) 100,00 %
30.03.2016 21:09 13,5 C 77 % 1012,7 hPa 0,0 l/m 0,0 km/h (0 Bft) W-NW 296 0 min 0,000 mm 0,0 UV-I 0 W/m 9,5 C 13,5 C 0,0 km/h (0 Bft) 100,00 %
30.03.2016 21:10 13,4 C 77 % 1012,8 hPa 0,0 l/m 0,0 km/h (0 Bft) W-NW 296 0 min 0,000 mm 0,0 UV-I 0 W/m 9,5 C 13,4 C 0,0 km/h (0 Bft) 100,00 %
30.03.2016 21:11 13,4 C 77 % 1012,8 hPa 0,0 l/m 0,2 km/h (0 Bft) W-NW 296 0 min 0,000 mm 0,0 UV-I 0 W/m 9,5 C 13,4 C 1,6 km/h (1 Bft) 95,83 %
30.03.2016 21:12 13,4 C 77 % 1012,8 hPa 0,0 l/m 0,0 km/h (0 Bft) W-NW 296 0 min 0,000 mm 0,0 UV-I 0 W/m 9,5 C 13,4 C 0,0 km/h (0 Bft) 100,00 %
30.03.2016 21:13 13,4 C 77 % 1012,8 hPa 0,0 l/m 0,1 km/h (0 Bft) W-NW 296 0 min 0,000 mm 0,0 UV-I 0 W/m 9,5 C 13,4 C 1,6 km/h (1 Bft) 100,00 %
30.03.2016 21:14 13,4 C 76 % 1012,8 hPa 0,0 l/m 1,4 km/h (1 Bft) W-NW 298 0 min 0,000 mm 0,0 UV-I 0 W/m 9,3 C 13,4 C 1,6 km/h (1 Bft) 100,00 %
30.03.2016 21:15 13,4 C 76 % 1012,9 hPa 0,0 l/m 1,9 km/h (1 Bft) NW 324 0 min 0,000 mm 0,0 UV-I 0 W/m 9,3 C 13,4 C 4,8 km/h (1 Bft) 95,83 %
30.03.2016 21:16 13,5 C 76 % 1012,8 hPa 0,0 l/m 1,6 km/h (1 Bft) NW 322 0 min 0,000 mm 0,0 UV-I 0 W/m 9,4 C 13,5 C 3,2 km/h (1 Bft) 100,00 %
30.03.2016 21:17 13,5 C 76 % 1012,8 hPa 0,0 l/m 1,2 km/h (1 Bft) NW 326 0 min 0,000 mm 0,0 UV-I 0 W/m 9,4 C 13,5 C 3,2 km/h (1 Bft) 100,00 %
30.03.2016 21:18 13,5 C 77 % 1012,8 hPa 0,0 l/m 0,7 km/h (0 Bft) N-NW 329 0 min 0,000 mm 0,0 UV-I 0 W/m 9,5 C 13,5 C 3,2 km/h (1 Bft) 100,00 %
30.03.2016 21:19 13,5 C 77 % 1012,9 hPa 0,0 l/m 1,5 km/h (1 Bft) N-NW 328 0 min 0,000 mm 0,0 UV-I 0 W/m 9,5 C 13,5 C 4,8 km/h (1 Bft) 100,00 %
30.03.2016 21:20 13,5 C 77 % 1012,8 hPa 0,0 l/m 1,9 km/h (1 Bft) N 355 0 min 0,000 mm 0,0 UV-I 0 W/m 9,5 C 13,5 C 4,8 km/h (1 Bft) 100,00 %
30.03.2016 21:21 13,4 C 77 % 1012,9 hPa 0,0 l/m 0,9 km/h (0 Bft) N 355 0 min 0,000 mm 0,0 UV-I 0 W/m 9,5 C 13,4 C 1,6 km/h (1 Bft) 91,67 %
30.03.2016 21:22 13,4 C 78 % 1012,9 hPa 0,0 l/m 2,4 km/h (1 Bft) N 11 0 min 0,000 mm 0,0 UV-I 0 W/m 9,6 C 13,4 C 4,8 km/h (1 Bft) 100,00 %
30.03.2016 21:23 13,4 C 78 % 1012,9 hPa 0,0 l/m 1,2 km/h (1 Bft) N 351 0 min 0,000 mm 0,0 UV-I 0 W/m 9,6 C 13,4 C 3,2 km/h (1 Bft) 100,00 %
30.03.2016 21:24 13,3 C 78 % 1012,9 hPa 0,0 l/m 2,6 km/h (1 Bft) N-NW 329 0 min 0,000 mm 0,0 UV-I 0 W/m 9,5 C 13,3 C 4,8 km/h (1 Bft) 100,00 %
30.03.2016 21:25 13,3 C 77 % 1013,0 hPa 0,0 l/m 2,0 km/h (1 Bft) NW 311 0 min 0,000 mm 0,0 UV-I 0 W/m 9,4 C 13,3 C 3,2 km/h (1 Bft) 100,00 %
30.03.2016 21:26 13,3 C 77 % 1013,0 hPa 0,0 l/m 2,9 km/h (1 Bft) N-NW 342 0 min 0,000 mm 0,0 UV-I 0 W/m 9,4 C 13,3 C 4,8 km/h (1 Bft) 100,00 %
30.03.2016 21:27 13,3 C 78 % 1013,0 hPa 0,0 l/m 2,9 km/h (1 Bft) N-NW 330 0 min 0,000 mm 0,0 UV-I 0 W/m 9,5 C 13,3 C 4,8 km/h (1 Bft) 100,00 %
30.03.2016 21:28 13,3 C 78 % 1013,0 hPa 0,0 l/m 6,6 km/h (2 Bft) N 351 0 min 0,000 mm 0,0 UV-I 0 W/m 9,5 C 13,2 C 12,9 km/h (3 Bft) 100,00 %
30.03.2016 21:29 13,3 C 78 % 1013,1 hPa 0,0 l/m 4,8 km/h (1 Bft) W-NW 301 0 min 0,000 mm 0,0 UV-I 0 W/m 9,5 C 13,3 C 9,7 km/h (2 Bft) 100,00 %
30.03.2016 21:30 13,3 C 78 % 1013,1 hPa 0,0 l/m 3,2 km/h (1 Bft) NW 317 0 min 0,000 mm 0,0 UV-I 0 W/m 9,5 C 13,3 C 6,4 km/h (2 Bft) 100,00 %
30.03.2016 21:31 13,3 C 78 % 1013,1 hPa 0,0 l/m 5,4 km/h (1 Bft) N 355 0 min 0,000 mm 0,0 UV-I 0 W/m 9,5 C 13,3 C 8,0 km/h (2 Bft) 100,00 %
30.03.2016 21:32 13,3 C 78 % 1013,1 hPa 0,0 l/m 4,9 km/h (1 Bft) NW 318 0 min 0,000 mm 0,0 UV-I 0 W/m 9,5 C 13,3 C 8,0 km/h (2 Bft) 100,00 %
30.03.2016 21:33 13,3 C 78 % 1013,1 hPa 0,0 l/m 4,8 km/h (1 Bft) N-NW 347 0 min 0,000 mm 0,0 UV-I 0 W/m 9,5 C 13,3 C 8,0 km/h (2 Bft) 100,00 %
30.03.2016 21:34 13,3 C 78 % 1013,1 hPa 0,0 l/m 4,7 km/h (1 Bft) N-NW 335 0 min 0,000 mm 0,0 UV-I 0 W/m 9,5 C 13,3 C 6,4 km/h (2 Bft) 95,83 %
30.03.2016 21:35 13,3 C 78 % 1013,1 hPa 0,0 l/m 6,9 km/h (2 Bft) W-NW 292 0 min 0,000 mm 0,0 UV-I 0 W/m 9,5 C 13,0 C 12,9 km/h (3 Bft) 100,00 %
30.03.2016 21:36 13,3 C 78 % 1013,1 hPa 0,0 l/m 3,7 km/h (1 Bft) W-NW 293 0 min 0,000 mm 0,0 UV-I 0 W/m 9,5 C 13,3 C 6,4 km/h (2 Bft) 100,00 %
30.03.2016 21:37 13,2 C 78 % 1013,1 hPa 0,0 l/m 5,1 km/h (1 Bft) NW 315 0 min 0,000 mm 0,0 UV-I 0 W/m 9,4 C 13,2 C 11,3 km/h (2 Bft) 92,31 %
30.03.2016 21:38 13,2 C 78 % 1013,1 hPa 0,0 l/m 4,1 km/h (1 Bft) NW 319 0 min 0,000 mm 0,0 UV-I 0 W/m 9,4 C 13,2 C 6,4 km/h (2 Bft) 100,00 %
30.03.2016 21:39 13,2 C 78 % 1013,1 hPa 0,0 l/m 4,2 km/h (1 Bft) N-NO 13 0 min 0,000 mm 0,0 UV-I 0 W/m 9,4 C 13,2 C 6,4 km/h (2 Bft) 100,00 %
30.03.2016 21:40 13,2 C 78 % 1013,2 hPa 0,0 l/m 5,7 km/h (1 Bft) N-NW 331 0 min 0,000 mm 0,0 UV-I 0 W/m 9,4 C 13,2 C 11,3 km/h (2 Bft) 100,00 %
30.03.2016 21:41 13,2 C 78 % 1013,1 hPa 0,0 l/m 5,2 km/h (1 Bft) NW 310 0 min 0,000 mm 0,0 UV-I 0 W/m 9,4 C 13,2 C 8,0 km/h (2 Bft) 100,00 %
30.03.2016 21:42 13,2 C 78 % 1013,3 hPa 0,0 l/m 3,9 km/h (1 Bft) N-NW 327 0 min 0,000 mm 0,0 UV-I 0 W/m 9,4 C 13,2 C 6,4 km/h (2 Bft) 95,65 %
30.03.2016 21:43 13,1 C 78 % 1013,3 hPa 0,0 l/m 5,8 km/h (2 Bft) NW 321 0 min 0,000 mm 0,0 UV-I 0 W/m 9,4 C 13,1 C 9,7 km/h (2 Bft) 100,00 %
30.03.2016 21:44 13,2 C 78 % 1013,3 hPa 0,0 l/m 6,3 km/h (2 Bft) NW 308 0 min 0,000 mm 0,0 UV-I 0 W/m 9,4 C 13,2 C 11,3 km/h (2 Bft) 100,00 %
30.03.2016 21:45 13,1 C 78 % 1013,2 hPa 0,0 l/m 3,5 km/h (1 Bft) N-NW 329 0 min 0,000 mm 0,0 UV-I 0 W/m 9,4 C 13,1 C 4,8 km/h (1 Bft) 100,00 %
30.03.2016 21:46 13,1 C 78 % 1013,3 hPa 0,0 l/m 5,3 km/h (1 Bft) W-NW 299 0 min 0,000 mm 0,0 UV-I 0 W/m 9,4 C 13,1 C 11,3 km/h (2 Bft) 100,00 %
30.03.2016 21:47 13,1 C 78 % 1013,3 hPa 0,0 l/m 4,2 km/h (1 Bft) N-NW 333 0 min 0,000 mm 0,0 UV-I 0 W/m 9,4 C 13,1 C 9,7 km/h (2 Bft) 96,67 %
30.03.2016 21:48 13,1 C 78 % 1013,2 hPa 0,0 l/m 2,5 km/h (1 Bft) NW 317 0 min 0,000 mm 0,0 UV-I 0 W/m 9,4 C 13,1 C 3,2 km/h (1 Bft) 100,00 %
30.03.2016 21:49 13,1 C 78 % 1013,3 hPa 0,0 l/m 4,1 km/h (1 Bft) NW 313 0 min 0,000 mm 0,0 UV-I 0 W/m 9,4 C 13,1 C 6,4 km/h (2 Bft) 100,00 %
30.03.2016 21:50 13,1 C 78 % 1013,3 hPa 0,0 l/m 3,8 km/h (1 Bft) NW 313 0 min 0,000 mm 0,0 UV-I 0 W/m 9,4 C 13,1 C 6,4 km/h (2 Bft) 98,57 %
30.03.2016 21:51 13,1 C 79 % 1013,3 hPa 0,0 l/m 3,8 km/h (1 Bft) N 11 0 min 0,000 mm 0,0 UV-I 0 W/m 9,5 C 13,1 C 6,4 km/h (2 Bft) 100,00 %
30.03.2016 21:52 13,1 C 79 % 1013,4 hPa 0,0 l/m 3,2 km/h (1 Bft) NW 312 0 min 0,000 mm 0,0 UV-I 0 W/m 9,5 C 13,1 C 6,4 km/h (2 Bft) 98,58 %
30.03.2016 21:53 13,1 C 79 % 1013,4 hPa 0,0 l/m 3,4 km/h (1 Bft) W-NW 303 0 min 0,000 mm 0,0 UV-I 0 W/m 9,5 C 13,1 C 6,4 km/h (2 Bft) 100,00 %
30.03.2016 21:54 13,1 C 79 % 1013,4 hPa 0,0 l/m 4,3 km/h (1 Bft) N-NW 329 0 min 0,000 mm 0,0 UV-I 0 W/m 9,5 C 13,1 C 6,4 km/h (2 Bft) 100,00 %
30.03.2016 21:55 13,1 C 79 % 1013,5 hPa 0,0 l/m 2,1 km/h (1 Bft) NW 320 0 min 0,000 mm 0,0 UV-I 0 W/m 9,5 C 13,1 C 3,2 km/h (1 Bft) 100,00 %
30.03.2016 21:56 13,0 C 80 % 1013,5 hPa 0,0 l/m 0,9 km/h (0 Bft) NW 320 0 min 0,000 mm 0,0 UV-I 0 W/m 9,6 C 13,0 C 3,2 km/h (1 Bft) 95,65 %
30.03.2016 21:57 13,0 C 80 % 1013,5 hPa 0,0 l/m 1,8 km/h (1 Bft) NW 323 0 min 0,000 mm 0,0 UV-I 0 W/m 9,6 C 13,0 C 3,2 km/h (1 Bft) 100,00 %
30.03.2016 21:58 12,9 C 80 % 1013,5 hPa 0,0 l/m 2,6 km/h (1 Bft) N-NW 327 0 min 0,000 mm 0,0 UV-I 0 W/m 9,5 C 12,9 C 3,2 km/h (1 Bft) 98,58 %
30.03.2016 21:59 12,9 C 79 % 1013,5 hPa 0,0 l/m 3,7 km/h (1 Bft) N-NW 327 0 min 0,000 mm 0,0 UV-I 0 W/m 9,3 C 12,9 C 6,4 km/h (2 Bft) 100,00 %
30.03.2016 22:00 12,9 C 79 % 1013,5 hPa 0,0 l/m 3,5 km/h (1 Bft) N-NW 339 0 min 0,000 mm 0,0 UV-I 0 W/m 9,3 C 12,9 C 4,8 km/h (1 Bft) 100,00 %
30.03.2016 22:02 12,9 C 81 % 1013,6 hPa 0,0 l/m 2,3 km/h (1 Bft) N-NW 343 0 min 0,000 mm 0,0 UV-I 0 W/m 9,7 C 12,9 C 6,4 km/h (2 Bft) 100,00 %
30.03.2016 22:03 12,8 C 81 % 1013,6 hPa 0,0 l/m 1,8 km/h (1 Bft) NW 306 0 min 0,000 mm 0,0 UV-I 0 W/m 9,6 C 12,8 C 4,8 km/h (1 Bft) 100,00 %
30.03.2016 22:04 12,8 C 82 % 1013,6 hPa 0,0 l/m 2,6 km/h (1 Bft) N-NW 348 0 min 0,000 mm 0,0 UV-I 0 W/m 9,8 C 12,8 C 4,8 km/h (1 Bft) 100,00 %
30.03.2016 22:05 12,8 C 82 % 1013,6 hPa 0,0 l/m 2,9 km/h (1 Bft) NW 321 0 min 0,000 mm 0,0 UV-I 0 W/m 9,8 C 12,8 C 4,8 km/h (1 Bft) 100,00 %
30.03.2016 22:06 12,7 C 82 % 1013,6 hPa 0,0 l/m 1,7 km/h (1 Bft) N-NW 343 0 min 0,000 mm 0,0 UV-I 0 W/m 9,7 C 12,7 C 3,2 km/h (1 Bft) 100,00 %
30.03.2016 22:07 12,7 C 83 % 1013,6 hPa 0,0 l/m 1,4 km/h (1 Bft) NW 320 0 min 0,000 mm 0,0 UV-I 0 W/m 9,9 C 12,7 C 3,2 km/h (1 Bft) 100,00 %
30.03.2016 22:08 12,6 C 83 % 1013,6 hPa 0,0 l/m 1,0 km/h (0 Bft) NW 320 0 min 0,000 mm 0,0 UV-I 0 W/m 9,8 C 12,6 C 3,2 km/h (1 Bft) 100,00 %
30.03.2016 22:09 12,6 C 83 % 1013,5 hPa 0,0 l/m 1,0 km/h (0 Bft) N 355 0 min 0,000 mm 0,0 UV-I 0 W/m 9,8 C 12,6 C 3,2 km/h (1 Bft) 100,00 %
30.03.2016 22:10 12,6 C 83 % 1013,5 hPa 0,0 l/m 1,5 km/h (1 Bft) N-NW 328 0 min 0,000 mm 0,0 UV-I 0 W/m 9,8 C 12,6 C 4,8 km/h (1 Bft) 95,83 %
30.03.2016 22:11 12,5 C 83 % 1013,6 hPa 0,0 l/m 2,5 km/h (1 Bft) NW 317 0 min 0,000 mm 0,0 UV-I 0 W/m 9,7 C 12,5 C 4,8 km/h (1 Bft) 100,00 %
30.03.2016 22:12 12,5 C 82 % 1013,5 hPa 0,0 l/m 2,0 km/h (1 Bft) N-NW 327 0 min 0,000 mm 0,0 UV-I 0 W/m 9,5 C 12,5 C 3,2 km/h (1 Bft) 96,30 %
30.03.2016 22:13 12,5 C 82 % 1013,5 hPa 0,0 l/m 2,3 km/h (1 Bft) NW 323 0 min 0,000 mm 0,0 UV-I 0 W/m 9,5 C 12,5 C 4,8 km/h (1 Bft) 100,00 %
30.03.2016 22:14 12,6 C 82 % 1013,6 hPa 0,0 l/m 2,1 km/h (1 Bft) N-NW 339 0 min 0,000 mm 0,0 UV-I 0 W/m 9,6 C 12,6 C 3,2 km/h (1 Bft) 96,67 %
30.03.2016 22:15 12,6 C 82 % 1013,5 hPa 0,0 l/m 1,7 km/h (1 Bft) N-NW 341 0 min 0,000 mm 0,0 UV-I 0 W/m 9,6 C 12,6 C 4,8 km/h (1 Bft) 100,00 %
30.03.2016 22:16 12,6 C 82 % 1013,5 hPa 0,0 l/m 0,6 km/h (0 Bft) N-NW 341 0 min 0,000 mm 0,0 UV-I 0 W/m 9,6 C 12,6 C 3,2 km/h (1 Bft) 96,30 %
30.03.2016 22:17 12,5 C 82 % 1013,5 hPa 0,0 l/m 0,3 km/h (0 Bft) N-NW 341 0 min 0,000 mm 0,0 UV-I 0 W/m 9,5 C 12,5 C 1,6 km/h (1 Bft) 95,65 %
30.03.2016 22:18 12,5 C 83 % 1013,5 hPa 0,0 l/m 0,5 km/h (0 Bft) N-NW 341 0 min 0,000 mm 0,0 UV-I 0 W/m 9,7 C 12,5 C 1,6 km/h (1 Bft) 91,67 %
30.03.2016 22:19 12,4 C 84 % 1013,5 hPa 0,0 l/m 0,6 km/h (0 Bft) N-NW 338 0 min 0,000 mm 0,0 UV-I 0 W/m 9,8 C 12,4 C 1,6 km/h (1 Bft) 97,56 %
30.03.2016 22:20 12,4 C 84 % 1013,5 hPa 0,0 l/m 0,7 km/h (0 Bft) N-NW 344 0 min 0,000 mm 0,0 UV-I 0 W/m 9,8 C 12,4 C 1,6 km/h (1 Bft) 100,00 %
30.03.2016 22:21 12,3 C 84 % 1013,6 hPa 0,0 l/m 0,6 km/h (0 Bft) N-NW 344 0 min 0,000 mm 0,0 UV-I 0 W/m 9,7 C 12,3 C 1,6 km/h (1 Bft) 91,67 %
30.03.2016 22:22 12,3 C 84 % 1013,6 hPa 0,0 l/m 0,9 km/h (0 Bft) N-NW 344 0 min 0,000 mm 0,0 UV-I 0 W/m 9,7 C 12,3 C 3,2 km/h (1 Bft) 100,00 %
30.03.2016 22:23 12,3 C 84 % 1013,6 hPa 0,0 l/m 1,2 km/h (1 Bft) N-NW 344 0 min 0,000 mm 0,0 UV-I 0 W/m 9,7 C 12,3 C 1,6 km/h (1 Bft) 95,83 %
30.03.2016 22:24 12,3 C 85 % 1013,7 hPa 0,0 l/m 0,5 km/h (0 Bft) N-NW 344 0 min 0,000 mm 0,0 UV-I 0 W/m 9,9 C 12,3 C 1,6 km/h (1 Bft) 100,00 %
30.03.2016 22:25 12,3 C 85 % 1013,6 hPa 0,0 l/m 0,0 km/h (0 Bft) N-NW 344 0 min 0,000 mm 0,0 UV-I 0 W/m 9,9 C 12,3 C 0,0 km/h (0 Bft) 96,30 %
30.03.2016 22:26 12,2 C 86 % 1013,7 hPa 0,0 l/m 0,2 km/h (0 Bft) N-NW 344 0 min 0,000 mm 0,0 UV-I 0 W/m 9,9 C 12,2 C 1,6 km/h (1 Bft) 96,15 %
30.03.2016 22:27 12,2 C 85 % 1013,6 hPa 0,0 l/m 0,0 km/h (0 Bft) N-NW 344 0 min 0,000 mm 0,0 UV-I 0 W/m 9,8 C 12,2 C 0,0 km/h (0 Bft) 100,00 %
30.03.2016 22:28 12,2 C 85 % 1013,6 hPa 0,0 l/m 0,1 km/h (0 Bft) N-NW 344 0 min 0,000 mm 0,0 UV-I 0 W/m 9,8 C 12,2 C 1,6 km/h (1 Bft) 95,65 %
30.03.2016 22:29 12,2 C 86 % 1013,6 hPa 0,0 l/m 1,1 km/h (1 Bft) N-NW 344 0 min 0,000 mm 0,0 UV-I 0 W/m 9,9 C 12,2 C 1,6 km/h (1 Bft) 100,00 %
30.03.2016 22:30 12,2 C 85 % 1013,6 hPa 0,0 l/m 0,0 km/h (0 Bft) N-NW 344 0 min 0,000 mm 0,0 UV-I 0 W/m 9,8 C 12,2 C 0,0 km/h (0 Bft) 95,65 %
30.03.2016 22:31 12,2 C 85 % 1013,6 hPa 0,0 l/m 0,0 km/h (0 Bft) N-NW 344 0 min 0,000 mm 0,0 UV-I 0 W/m 9,8 C 12,2 C 0,0 km/h (0 Bft) 100,00 %
30.03.2016 22:32 12,2 C 85 % 1013,5 hPa 0,0 l/m 0,0 km/h (0 Bft) N-NW 344 0 min 0,000 mm 0,0 UV-I 0 W/m 9,8 C 12,2 C 0,0 km/h (0 Bft) 95,65 %
30.03.2016 22:33 12,2 C 85 % 1013,5 hPa 0,0 l/m 1,7 km/h (1 Bft) N-NW 344 0 min 0,000 mm 0,0 UV-I 0 W/m 9,8 C 12,2 C 3,2 km/h (1 Bft) 100,00 %
30.03.2016 22:34 12,2 C 85 % 1013,6 hPa 0,0 l/m 0,2 km/h (0 Bft) N-NW 344 0 min 0,000 mm 0,0 UV-I 0 W/m 9,8 C 12,2 C 1,6 km/h (1 Bft) 96,15 %
30.03.2016 22:35 12,2 C 85 % 1013,5 hPa 0,0 l/m 0,0 km/h (0 Bft) N-NW 344 0 min 0,000 mm 0,0 UV-I 0 W/m 9,8 C 12,2 C 0,0 km/h (0 Bft) 100,00 %
30.03.2016 22:36 12,2 C 85 % 1013,5 hPa 0,0 l/m 0,3 km/h (0 Bft) N-NW 344 0 min 0,000 mm 0,0 UV-I 0 W/m 9,8 C 12,2 C 1,6 km/h (1 Bft) 96,55 %
30.03.2016 22:37 12,2 C 85 % 1013,5 hPa 0,0 l/m 0,8 km/h (0 Bft) N-NW 344 0 min 0,000 mm 0,0 UV-I 0 W/m 9,8 C 12,2 C 1,6 km/h (1 Bft) 95,83 %
30.03.2016 22:38 12,2 C 85 % 1013,4 hPa 0,0 l/m 1,8 km/h (1 Bft) N-NW 344 0 min 0,000 mm 0,0 UV-I 0 W/m 9,8 C 12,2 C 3,2 km/h (1 Bft) 100,00 %
30.03.2016 22:39 12,3 C 85 % 1013,4 hPa 0,0 l/m 2,6 km/h (1 Bft) N 351 0 min 0,000 mm 0,0 UV-I 0 W/m 9,9 C 12,3 C 4,8 km/h (1 Bft) 92,59 %
30.03.2016 22:40 12,2 C 85 % 1013,4 hPa 0,0 l/m 2,9 km/h (1 Bft) N-NW 342 0 min 0,000 mm 0,0 UV-I 0 W/m 9,8 C 12,2 C 3,2 km/h (1 Bft) 100,00 %
30.03.2016 22:41 12,2 C 84 % 1013,4 hPa 0,0 l/m 3,1 km/h (1 Bft) N 11 0 min 0,000 mm 0,0 UV-I 0 W/m 9,6 C 12,2 C 4,8 km/h (1 Bft) 93,33 %
30.03.2016 22:42 12,2 C 83 % 1013,4 hPa 0,0 l/m 1,4 km/h (1 Bft) N 11 0 min 0,000 mm 0,0 UV-I 0 W/m 9,4 C 12,2 C 3,2 km/h (1 Bft) 100,00 %
30.03.2016 22:43 12,2 C 83 % 1013,4 hPa 0,0 l/m 0,8 km/h (0 Bft) N 11 0 min 0,000 mm 0,0 UV-I 0 W/m 9,4 C 12,2 C 3,2 km/h (1 Bft) 95,65 %
30.03.2016 22:44 12,2 C 84 % 1013,4 hPa 0,0 l/m 2,3 km/h (1 Bft) N 11 0 min 0,000 mm 0,0 UV-I 0 W/m 9,6 C 12,2 C 3,2 km/h (1 Bft) 100,00 %
30.03.2016 22:45 12,2 C 84 % 1013,4 hPa 0,0 l/m 2,9 km/h (1 Bft) N 11 0 min 0,000 mm 0,0 UV-I 0 W/m 9,6 C 12,2 C 3,2 km/h (1 Bft) 100,00 %
30.03.2016 22:46 12,2 C 84 % 1013,4 hPa 0,0 l/m 2,9 km/h (1 Bft) N-NO 12 0 min 0,000 mm 0,0 UV-I 0 W/m 9,6 C 12,2 C 3,2 km/h (1 Bft) 100,00 %
30.03.2016 22:47 12,2 C 84 % 1013,4 hPa 0,0 l/m 2,5 km/h (1 Bft) N 11 0 min 0,000 mm 0,0 UV-I 0 W/m 9,6 C 12,2 C 3,2 km/h (1 Bft) 96,55 %
30.03.2016 22:48 12,2 C 83 % 1013,4 hPa 0,0 l/m 2,9 km/h (1 Bft) N-NO 12 0 min 0,000 mm 0,0 UV-I 0 W/m 9,4 C 12,2 C 3,2 km/h (1 Bft) 91,67 %
30.03.2016 22:49 12,2 C 83 % 1013,4 hPa 0,0 l/m 2,0 km/h (1 Bft) N 11 0 min 0,000 mm 0,0 UV-I 0 W/m 9,4 C 12,2 C 3,2 km/h (1 Bft) 100,00 %
30.03.2016 22:50 12,2 C 85 % 1013,4 hPa 0,0 l/m 1,7 km/h (1 Bft) N-NO 12 0 min 0,000 mm 0,0 UV-I 0 W/m 9,8 C 12,2 C 3,2 km/h (1 Bft) 100,00 %
30.03.2016 22:51 12,1 C 86 % 1013,4 hPa 0,0 l/m 0,3 km/h (0 Bft) N-NO 12 0 min 0,000 mm 0,0 UV-I 0 W/m 9,8 C 12,1 C 1,6 km/h (1 Bft) 96,15 %
30.03.2016 22:52 12,0 C 86 % 1013,4 hPa 0,0 l/m 0,6 km/h (0 Bft) N-NO 12 0 min 0,000 mm 0,0 UV-I 0 W/m 9,7 C 12,0 C 1,6 km/h (1 Bft) 100,00 %
30.03.2016 22:53 11,8 C 87 % 1013,5 hPa 0,0 l/m 1,6 km/h (1 Bft) N-NO 12 0 min 0,000 mm 0,0 UV-I 0 W/m 9,7 C 11,8 C 3,2 km/h (1 Bft) 100,00 %
30.03.2016 22:54 11,7 C 88 % 1013,5 hPa 0,0 l/m 2,5 km/h (1 Bft) N-NO 12 0 min 0,000 mm 0,0 UV-I 0 W/m 9,8 C 11,7 C 3,2 km/h (1 Bft) 100,00 %
30.03.2016 22:55 11,7 C 88 % 1013,5 hPa 0,0 l/m 3,4 km/h (1 Bft) O-NO 68 0 min 0,000 mm 0,0 UV-I 0 W/m 9,8 C 11,7 C 4,8 km/h (1 Bft) 95,65 %
30.03.2016 22:56 11,6 C 89 % 1013,4 hPa 0,0 l/m 3,6 km/h (1 Bft) O 80 0 min 0,000 mm 0,0 UV-I 0 W/m 9,8 C 11,6 C 4,8 km/h (1 Bft) 100,00 %
30.03.2016 22:57 11,5 C 90 % 1013,4 hPa 0,0 l/m 3,9 km/h (1 Bft) O 89 0 min 0,000 mm 0,0 UV-I 0 W/m 9,9 C 11,5 C 4,8 km/h (1 Bft) 93,33 %
30.03.2016 22:58 11,4 C 90 % 1013,4 hPa 0,0 l/m 4,5 km/h (1 Bft) O 90 0 min 0,000 mm 0,0 UV-I 0 W/m 9,8 C 11,4 C 4,8 km/h (1 Bft) 100,00 %
30.03.2016 22:59 11,3 C 90 % 1013,4 hPa 0,0 l/m 3,2 km/h (1 Bft) O 90 0 min 0,000 mm 0,0 UV-I 0 W/m 9,7 C 11,3 C 3,2 km/h (1 Bft) 100,00 %
30.03.2016 23:00 11,3 C 91 % 1013,4 hPa 0,0 l/m 3,6 km/h (1 Bft) O 90 0 min 0,000 mm 0,0 UV-I 0 W/m 9,9 C 11,3 C 4,8 km/h (1 Bft) 96,55 %
30.03.2016 23:01 11,2 C 91 % 1013,4 hPa 0,0 l/m 3,0 km/h (1 Bft) O 90 0 min 0,000 mm 0,0 UV-I 0 W/m 9,8 C 11,2 C 3,2 km/h (1 Bft) 95,83 %
30.03.2016 23:02 11,2 C 92 % 1013,4 hPa 0,0 l/m 3,4 km/h (1 Bft) O 90 0 min 0,000 mm 0,0 UV-I 0 W/m 9,9 C 11,2 C 4,8 km/h (1 Bft) 100,00 %
30.03.2016 23:03 11,1 C 92 % 1013,3 hPa 0,0 l/m 3,2 km/h (1 Bft) O 90 0 min 0,000 mm 0,0 UV-I 0 W/m 9,8 C 11,1 C 4,8 km/h (1 Bft) 100,00 %
30.03.2016 23:04 11,1 C 92 % 1013,3 hPa 0,0 l/m 4,1 km/h (1 Bft) O 90 0 min 0,000 mm 0,0 UV-I 0 W/m 9,8 C 11,1 C 4,8 km/h (1 Bft) 100,00 %
30.03.2016 23:05 11,1 C 92 % 1013,3 hPa 0,0 l/m 4,7 km/h (1 Bft) O 90 0 min 0,000 mm 0,0 UV-I 0 W/m 9,8 C 11,1 C 4,8 km/h (1 Bft) 100,00 %
30.03.2016 23:06 11,0 C 92 % 1013,3 hPa 0,0 l/m 4,8 km/h (1 Bft) O 90 0 min 0,000 mm 0,0 UV-I 0 W/m 9,8 C 11,0 C 6,4 km/h (2 Bft) 100,00 %
30.03.2016 23:07 10,9 C 92 % 1013,3 hPa 0,0 l/m 4,9 km/h (1 Bft) O 90 0 min 0,000 mm 0,0 UV-I 0 W/m 9,7 C 10,9 C 6,4 km/h (2 Bft) 100,00 %
30.03.2016 23:08 10,9 C 93 % 1013,3 hPa 0,0 l/m 4,7 km/h (1 Bft) O 90 0 min 0,000 mm 0,0 UV-I 0 W/m 9,8 C 10,9 C 6,4 km/h (2 Bft) 100,00 %
30.03.2016 23:09 10,9 C 92 % 1013,3 hPa 0,0 l/m 3,5 km/h (1 Bft) O 90 0 min 0,000 mm 0,0 UV-I 0 W/m 9,7 C 10,9 C 4,8 km/h (1 Bft) 100,00 %
30.03.2016 23:10 10,8 C 92 % 1013,3 hPa 0,0 l/m 2,7 km/h (1 Bft) O 90 0 min 0,000 mm 0,0 UV-I 0 W/m 9,6 C 10,8 C 3,2 km/h (1 Bft) 95,65 %
30.03.2016 23:11 10,8 C 93 % 1013,3 hPa 0,0 l/m 2,0 km/h (1 Bft) O 90 0 min 0,000 mm 0,0 UV-I 0 W/m 9,7 C 10,8 C 3,2 km/h (1 Bft) 100,00 %
30.03.2016 23:12 10,8 C 93 % 1013,3 hPa 0,0 l/m 1,3 km/h (1 Bft) O 90 0 min 0,000 mm 0,0 UV-I 0 W/m 9,7 C 10,8 C 1,6 km/h (1 Bft) 91,67 %
30.03.2016 23:13 10,8 C 93 % 1013,4 hPa 0,0 l/m 0,2 km/h (0 Bft) O 90 0 min 0,000 mm 0,0 UV-I 0 W/m 9,7 C 10,8 C 1,6 km/h (1 Bft) 100,00 %
30.03.2016 23:14 10,8 C 93 % 1013,3 hPa 0,0 l/m 0,0 km/h (0 Bft) O 90 0 min 0,000 mm 0,0 UV-I 0 W/m 9,7 C 10,8 C 0,0 km/h (0 Bft) 100,00 %
30.03.2016 23:15 10,8 C 93 % 1013,3 hPa 0,0 l/m 0,2 km/h (0 Bft) O 90 0 min 0,000 mm 0,0 UV-I 0 W/m 9,7 C 10,8 C 1,6 km/h (1 Bft) 100,00 %
30.03.2016 23:16 10,8 C 93 % 1013,3 hPa 0,0 l/m 2,1 km/h (1 Bft) O 90 0 min 0,000 mm 0,0 UV-I 0 W/m 9,7 C 10,8 C 3,2 km/h (1 Bft) 96,15 %
30.03.2016 23:17 10,9 C 93 % 1013,3 hPa 0,0 l/m 2,2 km/h (1 Bft) O 90 0 min 0,000 mm 0,0 UV-I 0 W/m 9,8 C 10,9 C 3,2 km/h (1 Bft) 100,00 %
30.03.2016 23:18 10,9 C 93 % 1013,3 hPa 0,0 l/m 3,6 km/h (1 Bft) O 90 0 min 0,000 mm 0,0 UV-I 0 W/m 9,8 C 10,9 C 4,8 km/h (1 Bft) 100,00 %
30.03.2016 23:19 10,9 C 93 % 1013,4 hPa 0,0 l/m 3,9 km/h (1 Bft) O 90 0 min 0,000 mm 0,0 UV-I 0 W/m 9,8 C 10,9 C 4,8 km/h (1 Bft) 96,88 %
30.03.2016 23:20 10,9 C 93 % 1013,4 hPa 0,0 l/m 3,9 km/h (1 Bft) O 90 0 min 0,000 mm 0,0 UV-I 0 W/m 9,8 C 10,9 C 4,8 km/h (1 Bft) 100,00 %
30.03.2016 23:21 10,9 C 93 % 1013,4 hPa 0,0 l/m 3,9 km/h (1 Bft) O 90 0 min 0,000 mm 0,0 UV-I 0 W/m 9,8 C 10,9 C 4,8 km/h (1 Bft) 100,00 %
30.03.2016 23:22 10,9 C 93 % 1013,4 hPa 0,0 l/m 4,6 km/h (1 Bft) O 90 0 min 0,000 mm 0,0 UV-I 0 W/m 9,8 C 10,9 C 4,8 km/h (1 Bft) 100,00 %
30.03.2016 23:23 10,9 C 93 % 1013,4 hPa 0,0 l/m 4,0 km/h (1 Bft) O 90 0 min 0,000 mm 0,0 UV-I 0 W/m 9,8 C 10,9 C 4,8 km/h (1 Bft) 100,00 %
30.03.2016 23:24 10,8 C 93 % 1013,4 hPa 0,0 l/m 3,4 km/h (1 Bft) O 90 0 min 0,000 mm 0,0 UV-I 0 W/m 9,7 C 10,8 C 4,8 km/h (1 Bft) 100,00 %
30.03.2016 23:25 10,8 C 93 % 1013,3 hPa 0,0 l/m 2,6 km/h (1 Bft) O 90 0 min 0,000 mm 0,0 UV-I 0 W/m 9,7 C 10,8 C 4,8 km/h (1 Bft) 100,00 %
30.03.2016 23:26 10,8 C 93 % 1013,4 hPa 0,0 l/m 3,2 km/h (1 Bft) O 90 0 min 0,000 mm 0,0 UV-I 0 W/m 9,7 C 10,8 C 3,2 km/h (1 Bft) 100,00 %
30.03.2016 23:27 10,8 C 93 % 1013,4 hPa 0,0 l/m 2,8 km/h (1 Bft) O 90 0 min 0,000 mm 0,0 UV-I 0 W/m 9,7 C 10,8 C 4,8 km/h (1 Bft) 100,00 %
30.03.2016 23:28 10,7 C 93 % 1013,4 hPa 0,0 l/m 4,3 km/h (1 Bft) O 90 0 min 0,000 mm 0,0 UV-I 0 W/m 9,6 C 10,7 C 4,8 km/h (1 Bft) 100,00 %
30.03.2016 23:29 10,7 C 93 % 1013,3 hPa 0,0 l/m 4,1 km/h (1 Bft) O 101 0 min 0,000 mm 0,0 UV-I 0 W/m 9,6 C 10,7 C 4,8 km/h (1 Bft) 100,00 %
30.03.2016 23:30 10,7 C 93 % 1013,4 hPa 0,0 l/m 3,8 km/h (1 Bft) O-SO 121 0 min 0,000 mm 0,0 UV-I 0 W/m 9,6 C 10,7 C 6,4 km/h (2 Bft) 100,00 %
30.03.2016 23:31 10,8 C 93 % 1013,3 hPa 0,0 l/m 5,2 km/h (1 Bft) O-SO 121 0 min 0,000 mm 0,0 UV-I 0 W/m 9,7 C 10,8 C 6,4 km/h (2 Bft) 100,00 %
30.03.2016 23:32 10,8 C 93 % 1013,3 hPa 0,0 l/m 5,0 km/h (1 Bft) O-SO 121 0 min 0,000 mm 0,0 UV-I 0 W/m 9,7 C 10,8 C 6,4 km/h (2 Bft) 100,00 %
30.03.2016 23:33 10,8 C 93 % 1013,3 hPa 0,0 l/m 5,2 km/h (1 Bft) O-SO 121 0 min 0,000 mm 0,0 UV-I 0 W/m 9,7 C 10,8 C 6,4 km/h (2 Bft) 100,00 %
30.03.2016 23:34 10,8 C 93 % 1013,3 hPa 0,0 l/m 4,9 km/h (1 Bft) O-SO 121 0 min 0,000 mm 0,0 UV-I 0 W/m 9,7 C 10,8 C 6,4 km/h (2 Bft) 100,00 %
30.03.2016 23:35 10,8 C 92 % 1013,3 hPa 0,0 l/m 4,8 km/h (1 Bft) O-SO 121 0 min 0,000 mm 0,0 UV-I 0 W/m 9,6 C 10,8 C 6,4 km/h (2 Bft) 95,65 %
30.03.2016 23:36 10,9 C 92 % 1013,3 hPa 0,0 l/m 4,5 km/h (1 Bft) O-SO 112 0 min 0,000 mm 0,0 UV-I 0 W/m 9,7 C 10,9 C 4,8 km/h (1 Bft) 95,83 %
30.03.2016 23:37 10,9 C 92 % 1013,3 hPa 0,0 l/m 3,8 km/h (1 Bft) O-SO 112 0 min 0,000 mm 0,0 UV-I 0 W/m 9,7 C 10,9 C 4,8 km/h (1 Bft) 100,00 %
30.03.2016 23:38 11,0 C 92 % 1013,3 hPa 0,0 l/m 2,2 km/h (1 Bft) O-SO 112 0 min 0,000 mm 0,0 UV-I 0 W/m 9,8 C 11,0 C 4,8 km/h (1 Bft) 100,00 %
30.03.2016 23:39 11,0 C 92 % 1013,4 hPa 0,0 l/m 1,9 km/h (1 Bft) O-SO 112 0 min 0,000 mm 0,0 UV-I 0 W/m 9,8 C 11,0 C 3,2 km/h (1 Bft) 100,00 %
30.03.2016 23:40 11,0 C 92 % 1013,4 hPa 0,0 l/m 2,0 km/h (1 Bft) O-SO 112 0 min 0,000 mm 0,0 UV-I 0 W/m 9,8 C 11,0 C 3,2 km/h (1 Bft) 100,00 %
30.03.2016 23:41 11,0 C 92 % 1013,4 hPa 0,0 l/m 2,1 km/h (1 Bft) O-SO 122 0 min 0,000 mm 0,0 UV-I 0 W/m 9,8 C 11,0 C 4,8 km/h (1 Bft) 95,83 %
30.03.2016 23:42 11,1 C 92 % 1013,4 hPa 0,0 l/m 3,2 km/h (1 Bft) O-SO 123 0 min 0,000 mm 0,0 UV-I 0 W/m 9,8 C 11,1 C 4,8 km/h (1 Bft) 95,65 %
30.03.2016 23:43 11,1 C 92 % 1013,4 hPa 0,0 l/m 3,4 km/h (1 Bft) S-SO 150 0 min 0,000 mm 0,0 UV-I 0 W/m 9,8 C 11,1 C 4,8 km/h (1 Bft) 100,00 %
30.03.2016 23:44 11,1 C 92 % 1013,4 hPa 0,0 l/m 3,8 km/h (1 Bft) SO 139 0 min 0,000 mm 0,0 UV-I 0 W/m 9,8 C 11,1 C 8,0 km/h (2 Bft) 100,00 %
30.03.2016 23:45 11,2 C 92 % 1013,4 hPa 0,0 l/m 4,1 km/h (1 Bft) O-SO 116 0 min 0,000 mm 0,0 UV-I 0 W/m 9,9 C 11,2 C 9,7 km/h (2 Bft) 100,00 %
30.03.2016 23:46 11,2 C 91 % 1013,4 hPa 0,0 l/m 5,5 km/h (1 Bft) SO 127 0 min 0,000 mm 0,0 UV-I 0 W/m 9,8 C 11,2 C 6,4 km/h (2 Bft) 100,00 %
30.03.2016 23:47 11,3 C 91 % 1013,4 hPa 0,0 l/m 1,5 km/h (1 Bft) SO 128 0 min 0,000 mm 0,0 UV-I 0 W/m 9,9 C 11,3 C 4,8 km/h (1 Bft) 100,00 %
30.03.2016 23:48 11,3 C 91 % 1013,4 hPa 0,0 l/m 1,0 km/h (0 Bft) SO 128 0 min 0,000 mm 0,0 UV-I 0 W/m 9,9 C 11,3 C 1,6 km/h (1 Bft) 94,74 %
30.03.2016 23:49 11,3 C 90 % 1013,4 hPa 0,0 l/m 3,0 km/h (1 Bft) SO 128 0 min 0,000 mm 0,0 UV-I 0 W/m 9,7 C 11,3 C 4,8 km/h (1 Bft) 100,00 %
30.03.2016 23:50 11,3 C 91 % 1013,5 hPa 0,0 l/m 0,7 km/h (0 Bft) SO 128 0 min 0,000 mm 0,0 UV-I 0 W/m 9,9 C 11,3 C 1,6 km/h (1 Bft) 100,00 %
30.03.2016 23:51 11,4 C 91 % 1013,4 hPa 0,0 l/m 0,3 km/h (0 Bft) SO 128 0 min 0,000 mm 0,0 UV-I 0 W/m 10,0 C 11,4 C 1,6 km/h (1 Bft) 100,00 %
30.03.2016 23:52 11,4 C 91 % 1013,5 hPa 0,0 l/m 0,1 km/h (0 Bft) SO 128 0 min 0,000 mm 0,0 UV-I 0 W/m 10,0 C 11,4 C 1,6 km/h (1 Bft) 100,00 %
30.03.2016 23:53 11,4 C 90 % 1013,5 hPa 0,0 l/m 1,8 km/h (1 Bft) SO 128 0 min 0,000 mm 0,0 UV-I 0 W/m 9,8 C 11,4 C 3,2 km/h (1 Bft) 100,00 %
30.03.2016 23:54 11,3 C 90 % 1013,5 hPa 0,0 l/m 1,3 km/h (1 Bft) SO 128 0 min 0,000 mm 0,0 UV-I 0 W/m 9,7 C 11,3 C 1,6 km/h (1 Bft) 100,00 %
30.03.2016 23:55 11,3 C 91 % 1013,5 hPa 0,0 l/m 1,1 km/h (1 Bft) SO 128 0 min 0,000 mm 0,0 UV-I 0 W/m 9,9 C 11,3 C 1,6 km/h (1 Bft) 100,00 %
30.03.2016 23:56 11,3 C 91 % 1013,5 hPa 0,0 l/m 4,3 km/h (1 Bft) SO 133 0 min 0,000 mm 0,0 UV-I 0 W/m 9,9 C 11,3 C 6,4 km/h (2 Bft) 95,83 %
30.03.2016 23:57 11,3 C 91 % 1013,5 hPa 0,0 l/m 4,7 km/h (1 Bft) O-SO 117 0 min 0,000 mm 0,0 UV-I 0 W/m 9,9 C 11,3 C 11,3 km/h (2 Bft) 95,65 %
30.03.2016 23:58 11,3 C 91 % 1013,5 hPa 0,0 l/m 7,6 km/h (2 Bft) O-SO 116 0 min 0,000 mm 0,0 UV-I 0 W/m 9,9 C 10,5 C 11,3 km/h (2 Bft) 100,00 %
30.03.2016 23:59 11,3 C 90 % 1013,5 hPa 0,0 l/m 7,7 km/h (2 Bft) O-SO 114 0 min 0,000 mm 0,0 UV-I 0 W/m 9,7 C 10,4 C 12,9 km/h (3 Bft) 100,00 %
_ Min-Zeit 07:38 15:13 15:49 - 04:39 - - - - - - 07:38 01:59 04:39 18:36
Minimum _ 5,5 C 54 % 1011,2 hPa - 0,0 km/h (0 Bft) - - - - - - 4,9 C 1,2 C 0,0 km/h (0 Bft) 81,82 %
_ Max-Zeit 17:06 07:13 01:06 00:09 01:59 - - 10:02 14:00 13:54 10:50 14:24 17:06 02:02 00:04
Maximum _ 18,0 C 97 % 1015,5 hPa 0,2 l/m 18,0 km/h
S (3 Bft)
- - 2 min 0,305 mm 3,5 UV-I 779 W/m 11,0 C 18,0 C 30,6 km/h
S (5 Bft)
100,00 %
Durchschnitt _ 11,5 C 80 % 1013,2 hPa #3,6 l/m 3,6 km/h (1 Bft) NO - #9:24 h #2,438 mm 2,0 UV-I 350 W/m 7,9 C 11,3 C 5,8 km/h (2 Bft) 98,54 %